[[{"header":{"parameterUnit":"m.s-1","parameterCategory":1,"la1":31.0,"la2":29.5877,"lo1":-88.7671,"lo2":-86.6584,"dy":0.0162,"dx":0.0185,"nx":115,"ny":88,"refTime":"2023-09-17T06:00:00:Z","depth":0,"parameterNumber":2,"parameterNumberName":"U-component_of_WINDS"},"data":[0.0,0.0,0.0,0.0,0.0,0.0,0.0,0.0,0.0,0.0,0.0,0.0,0.0,0.0,0.0,0.0,0.0,0.0,0.0,0.0,0.0,0.0,0.0,0.0,0.0,0.0,0.0,0.0,0.0,0.0,0.0,0.0,0.0,0.0,0.0,0.0,0.0,0.0,0.0,0.0,0.0,0.0,0.0,0.0,0.0,0.0,0.0,0.0,0.0,0.0,0.0,0.0,0.0,0.0,0.0,0.0,0.0,0.0,0.0,0.0,0.0,0.0,0.0,0.0,0.0,0.0,0.0,0.0,0.0,0.0,0.0,0.0,0.0,0.0,0.0,0.0,0.0,0.0,0.0,0.0,0.0,0.0,0.0,0.0,0.0,0.0,0.0,0.0,0.0,0.0,0.0,0.0,0.0,0.0,0.0,0.0,0.0,0.0,0.0,0.0,0.0,0.0,0.0,0.0,0.0,0.0,0.0,0.0,0.0,0.0,0.0,0.0,0.0,0.0,0.0,0.0,0.0,0.0,0.0,0.0,0.0,0.0,0.0,0.0,0.0,0.0,0.0,0.0,0.0,0.0,0.0,0.0,0.0,0.0,0.0,0.0,0.0,0.0,0.0,0.0,0.0,0.0,0.0,0.0,0.0,0.0,0.0,0.0,0.0,0.0,0.0,0.0,0.0,0.0,0.0,0.0,0.0,0.0,0.0,0.0,0.0,0.0,0.0,0.0,0.0,0.0,0.0,0.0,0.0,0.0,0.0,0.0,0.0,0.0,0.0,0.0,0.0,0.0,0.0,0.0,0.0,0.0,0.0,0.0,0.0,0.0,0.0,0.0,0.0,0.0,0.0,0.0,0.0,0.0,0.0,0.0,0.0,0.0,0.0,0.0,0.0,0.0,0.0,0.0,0.0,0.0,0.0,0.0,0.0,0.0,0.0,0.0,0.0,0.0,0.0,0.0,0.0,0.0,0.0,0.0,0.0,0.0,0.0,0.0,0.0,0.0,0.0,0.0,0.0,0.0,0.0,0.0,0.0,0.0,0.0,0.0,0.0,0.0,0.0,0.0,0.0,0.0,0.0,0.0,0.0,0.0,0.0,0.0,0.0,0.0,0.0,0.0,0.0,0.0,0.0,0.0,0.0,0.0,0.0,0.0,0.0,0.0,0.0,0.0,0.0,0.0,0.0,0.0,0.0,0.0,0.0,0.0,0.0,0.0,0.0,0.0,0.0,0.0,0.0,0.0,0.0,0.0,0.0,0.0,0.0,0.0,0.0,0.0,0.0,0.0,0.0,0.0,0.0,0.0,0.0,0.0,0.0,0.0,0.0,0.0,0.0,0.0,0.0,0.0,0.0,0.0,0.0,0.0,0.0,0.0,0.0,0.0,0.0,0.0,0.0,0.0,0.0,0.0,0.0,0.0,0.0,0.0,0.0,0.0,0.0,0.0,0.0,0.0,0.0,0.0,0.0,0.0,0.0,0.0,0.0,0.0,0.0,0.0,0.0,0.0,0.0,0.0,0.0,0.0,0.0,0.0,0.0,0.0,0.0,0.0,0.0,0.0,0.0,0.0,0.0,0.0,0.0,0.0,0.0,0.0,0.0,0.0,0.0,0.0,0.0,0.0,0.0,0.0,0.0,0.0,0.0,0.0,0.0,0.0,0.0,0.0,0.0,0.0,0.0,0.0,0.0,0.0,0.0,0.0,0.0,0.0,0.0,0.0,0.0,0.0,0.0,0.0,0.0,0.0,0.0,0.0,0.0,0.0,0.0,0.0,0.0,0.0,0.0,0.0,0.0,0.0,0.0,0.0,0.0,0.0,0.0,0.0,0.0,0.0,0.0,0.0,0.0,0.0,0.0,0.0,0.0,0.0,0.0,0.0,0.0,0.0,0.0,0.0,0.0,0.0,0.0,0.0,0.0,0.0,0.0,0.0,0.0,0.0,0.0,0.0,0.0,0.0,0.0,0.0,0.0,0.0,0.0,0.0,0.0,0.0,0.0,0.0,0.0,0.0,0.0,0.0,0.0,0.0,0.0,0.0,0.0,0.0,0.0,0.0,0.0,0.0,0.0,0.0,0.0,0.0,0.0,0.0,0.0,0.0,0.0,0.0,0.0,0.0,0.0,0.0,0.0,0.0,0.0,0.0,0.0,0.0,0.0,0.0,0.0,0.0,0.0,0.0,0.0,0.0,0.0,0.0,0.0,0.0,0.0,0.0,0.0,0.0,0.0,0.0,0.0,0.0,0.0,0.0,0.0,0.0,0.0,0.0,0.0,0.0,0.0,0.0,0.0,0.0,0.0,0.0,0.0,0.0,0.0,0.0,0.0,0.0,0.0,0.0,0.0,0.0,0.0,0.0,0.0,0.0,0.0,0.0,0.0,0.0,0.0,0.0,0.0,0.0,0.0,0.0,0.0,0.0,0.0,0.0,0.0,0.0,0.0,0.0,0.0,0.0,0.0,0.0,0.0,0.0,0.0,0.0,0.0,0.0,0.0,0.0,0.0,0.0,0.0,0.0,0.0,0.0,0.0,0.0,0.0,0.0,0.0,0.0,0.0,0.0,0.0,0.0,0.0,0.0,0.0,0.0,0.0,0.0,0.0,0.0,0.0,0.0,0.0,0.0,0.0,0.0,0.0,0.0,0.0,0.0,0.0,0.0,0.0,0.0,0.0,0.0,0.0,0.0,0.0,0.0,0.0,0.0,0.0,0.0,0.0,0.0,0.0,0.0,0.0,0.0,0.0,0.0,0.0,0.0,0.0,0.0,0.0,0.0,0.0,0.0,0.0,0.0,0.0,0.0,0.0,0.0,0.0,0.0,0.0,0.0,0.0,0.0,0.0,0.0,0.0,0.0,0.0,0.0,0.0,0.0,0.0,0.0,0.0,0.0,0.0,0.0,0.0,0.0,0.0,0.0,0.0,0.0,0.0,0.0,0.0,0.0,0.0,0.0,0.0,0.0,0.0,0.0,0.0,0.0,0.0,0.0,0.0,0.0,0.0,0.0,0.0,0.0,0.0,0.0,0.0,0.0,0.0,0.0,0.0,0.0,0.0,0.0,0.0,0.0,0.0,0.0,0.0,0.0,0.0,0.0,0.0,0.0,0.0,0.0,0.0,0.0,0.0,0.0,0.0,0.0,0.0,0.0,0.0,0.0,0.0,0.0,0.0,0.0,0.0,0.0,0.0,0.0,0.0,0.0,0.0,0.0,0.0,0.0,0.0,0.0,0.0,0.0,0.0,0.0,0.0,0.0,0.0,0.0,0.0,0.0,0.0,0.0,0.0,0.0,0.0,0.0,0.0,0.0,0.0,0.0,0.0,0.0,0.0,0.0,0.0,0.0,0.0,0.0,0.0,0.0,0.0,0.0,0.0,0.0,0.0,0.0,0.0,0.0,0.0,0.0,0.0,0.0,0.0,0.0,0.0,0.0,0.0,0.0,0.0,0.0,0.0,0.0,0.0,0.0,0.0,0.0,0.0,0.0,0.0,0.0,0.0,0.0,0.0,0.0,0.0,0.0,0.0,0.0,0.0,0.0,0.0,0.0,0.0,0.0,0.0,0.0,0.0,0.0,0.0,0.0,0.0,0.0,0.0,0.0,0.0,0.0,0.0,0.0,0.0,0.0,0.0,0.0,0.0,0.0,0.0,0.0,0.0,0.0,0.0,0.0,0.0,0.0,0.0,0.0,0.0,0.0,0.0,0.0,0.0,0.0,0.0,0.0,0.0,0.0,0.0,0.0,0.0,0.0,0.0,0.0,0.0,0.0,0.0,0.0,0.0,0.0,0.0,0.0,0.0,0.0,0.0,0.0,0.0,0.0,0.0,0.0,0.0,0.0,0.0,0.0,0.0,0.0,0.0,0.0,0.0,0.0,0.0,0.0,0.0,0.0,0.0,0.0,0.0,0.0,0.0,0.0,0.0,0.0,0.0,0.0,0.0,0.0,0.0,0.0,0.0,0.0,0.0,0.0,0.0,0.0,0.0,0.0,0.0,0.0,0.0,0.0,0.0,0.0,0.0,0.0,0.0,0.0,0.0,0.0,0.0,0.0,0.0,0.0,0.0,0.0,0.0,0.0,0.0,0.0,0.0,0.0,0.0,0.0,0.0,0.0,0.0,0.0,0.0,0.0,0.0,0.0,0.0,0.0,0.0,0.0,0.0,0.0,0.0,0.0,0.0,0.0,0.0,0.0,0.0,0.0,0.0,0.0,0.0,0.0,0.0,0.0,0.0,0.0,0.0,0.0,0.0,0.0,0.0,0.0,0.0,0.0,0.0,0.0,1.5508,0.0,0.0,0.0,0.0,0.0,0.0,0.0,0.0,0.0,0.0,0.0,0.0,0.0,0.0,0.0,0.0,0.0,0.0,0.0,0.0,0.0,0.0,0.0,0.0,0.0,0.0,0.0,0.0,0.0,0.0,0.0,0.0,0.0,0.0,0.0,0.0,0.0,0.0,0.0,0.0,0.0,0.0,0.0,0.0,0.0,0.0,0.0,0.0,0.0,0.0,0.0,0.0,0.0,0.0,0.0,0.0,0.0,0.0,0.0,0.0,0.0,0.0,0.0,0.0,0.0,0.0,0.0,0.0,0.0,0.0,0.0,0.0,0.0,0.0,0.0,0.0,0.0,0.0,0.0,0.0,0.0,0.0,0.0,0.0,0.0,0.0,0.0,0.0,0.0,0.0,0.0,0.0,0.0,0.0,0.0,0.0,0.0,0.0,0.0,0.0,0.0,0.0,0.0,0.0,0.0,0.0,0.0,0.0,0.0,0.0,1.541,1.541,1.541,1.541,1.541,0.0,0.0,0.0,0.0,0.0,0.0,0.0,0.0,0.0,0.0,0.0,0.0,0.0,0.0,0.0,0.0,0.0,0.0,0.0,0.0,0.0,0.0,0.0,0.0,0.0,0.0,0.0,0.0,0.0,0.0,0.0,0.0,0.0,0.0,0.0,0.0,0.0,0.0,0.0,0.0,0.0,0.0,0.0,0.0,0.0,0.0,0.0,0.0,0.0,0.0,0.0,0.0,0.0,0.0,0.0,0.0,0.0,0.0,0.0,0.0,0.0,0.0,0.0,0.0,0.0,0.0,0.0,0.0,0.0,0.0,0.0,0.0,0.0,0.0,0.0,0.0,0.0,0.0,0.0,0.0,0.0,0.0,0.0,0.0,0.0,0.0,0.0,0.0,0.0,0.0,0.0,0.0,0.0,0.0,0.0,0.0,0.0,0.0,0.0,0.0,0.0,0.0,0.0,0.0,0.0,0.0,0.0,0.0,0.0,0.0,0.0,0.0,1.541,1.541,1.541,0.0,0.0,0.0,0.0,0.0,0.0,0.0,0.0,0.0,0.0,0.0,0.0,0.0,0.0,0.0,0.0,0.0,0.0,0.0,0.0,0.0,0.0,0.0,0.0,0.0,0.0,0.0,0.0,0.0,0.0,0.0,0.0,0.0,0.0,0.0,0.0,0.0,0.0,0.0,0.0,0.0,0.0,0.0,0.0,0.0,0.0,0.0,0.0,0.0,0.0,0.0,0.0,0.0,0.0,0.0,0.0,0.0,0.0,0.0,0.0,0.0,0.0,0.0,0.0,0.0,0.0,0.0,0.0,0.0,0.0,0.0,0.0,0.0,0.0,0.0,0.0,0.0,0.0,0.0,0.0,0.0,0.0,0.0,0.0,0.0,0.0,0.0,0.0,0.0,0.0,0.0,0.0,0.0,0.0,0.0,0.0,0.0,0.0,0.0,0.0,0.0,0.0,0.0,0.0,0.0,0.0,0.0,0.0,0.0,0.0,1.541,1.541,1.541,0.0,1.541,0.0,0.0,0.0,0.0,0.0,0.0,0.0,0.0,0.0,0.0,0.0,0.0,0.0,0.0,0.0,0.0,0.0,0.0,0.0,0.0,0.0,0.0,0.0,0.0,0.0,0.0,0.0,0.0,0.0,0.0,0.0,0.0,0.0,0.0,0.0,0.0,0.0,0.0,0.0,0.0,0.0,0.0,0.0,0.0,0.0,0.0,0.0,0.0,0.0,0.0,0.0,0.0,0.0,0.0,0.0,0.0,0.0,0.0,0.0,0.0,0.0,0.0,0.0,0.0,0.0,0.0,0.0,0.0,0.0,0.0,0.0,0.0,0.0,0.0,0.0,0.0,0.0,0.0,0.0,0.0,0.0,0.0,0.0,0.0,0.0,0.0,0.0,0.0,0.0,0.0,0.0,0.0,0.0,0.0,0.0,0.0,0.0,0.0,0.0,0.0,0.0,0.0,0.0,0.0,0.0,0.0,0.0,0.0,0.0,0.0,1.541,1.541,1.541,1.541,0.0,0.0,0.0,0.0,0.0,0.0,0.0,0.0,0.0,0.0,0.0,0.0,0.0,0.0,0.0,0.0,0.0,0.0,0.0,0.0,0.0,0.0,0.0,0.0,0.0,0.0,0.0,0.0,0.0,0.0,0.0,0.0,0.0,0.0,0.0,0.0,0.0,0.0,0.0,0.0,0.0,0.0,0.0,0.0,0.0,0.0,0.0,0.0,0.0,0.0,0.0,0.0,0.0,0.0,0.0,0.0,0.0,0.0,0.0,0.0,0.0,0.0,0.0,0.0,0.0,0.0,0.0,0.0,0.0,0.0,0.0,0.0,0.0,0.0,0.0,0.0,0.0,0.0,0.0,0.0,0.0,0.0,0.0,0.0,0.0,0.0,0.0,0.0,0.0,0.0,0.0,0.0,0.0,0.0,0.0,0.0,0.0,0.0,0.0,0.0,0.0,0.0,0.0,0.0,0.0,0.0,0.0,0.0,0.0,0.0,1.541,1.541,1.541,1.541,1.541,1.541,0.0,0.0,0.0,0.0,0.0,0.0,0.0,0.0,0.0,0.0,0.0,0.0,0.0,0.0,0.0,0.0,0.0,0.0,0.0,0.0,0.0,0.0,0.0,0.0,0.0,0.0,0.0,0.0,0.0,0.0,0.0,0.0,0.0,0.0,0.0,0.0,0.0,0.0,0.0,0.0,0.0,0.0,0.0,0.0,0.0,0.0,0.0,0.0,0.0,0.0,0.0,0.0,0.0,0.0,0.0,0.0,0.0,0.0,0.0,0.0,0.0,0.0,0.0,0.0,0.0,0.0,0.0,0.0,0.0,0.0,0.0,0.0,0.0,0.0,0.0,0.0,0.0,0.0,0.0,0.0,0.0,0.0,0.0,0.0,0.0,0.0,0.0,0.0,0.0,0.0,0.0,0.0,0.0,0.0,0.0,0.0,0.0,0.0,0.0,0.0,0.0,0.0,0.0,0.0,0.0,0.0,0.0,0.0,1.541,1.541,1.541,1.541,1.541,1.541,0.0,0.0,0.0,0.0,0.0,0.0,0.0,0.0,0.0,0.0,0.0,0.0,0.0,0.0,0.0,0.0,0.0,0.0,0.0,0.0,0.0,0.0,0.0,0.0,0.0,0.0,0.0,0.0,0.0,0.0,0.0,0.0,0.0,0.0,0.0,0.0,0.0,0.0,0.0,0.0,0.0,0.0,0.0,0.0,0.0,0.0,0.0,0.0,0.0,0.0,0.0,0.0,0.0,0.0,0.0,0.0,0.0,0.0,0.0,0.0,0.0,0.0,0.0,0.0,0.0,0.0,0.0,0.0,0.0,0.0,0.0,0.0,0.0,0.0,0.0,0.0,0.0,0.0,0.0,0.0,0.0,0.0,0.0,0.0,0.0,0.0,0.0,0.0,0.0,0.0,0.0,0.0,0.0,0.0,0.0,0.0,0.0,0.0,0.0,0.0,0.0,0.0,0.0,0.0,0.0,0.0,0.0,0.0,0.0,1.541,1.541,1.541,1.541,1.541,1.541,0.0,0.0,0.0,0.0,0.0,0.0,0.0,0.0,0.0,0.0,0.0,0.0,0.0,0.0,0.0,0.0,0.0,0.0,0.0,0.0,0.0,0.0,0.0,0.0,0.0,0.0,0.0,0.0,0.0,0.0,0.0,0.0,0.0,0.0,0.0,0.0,0.0,0.0,0.0,0.0,0.0,0.0,0.0,0.0,0.0,0.0,0.0,0.0,0.0,0.0,0.0,0.0,0.0,0.0,0.0,0.0,0.0,0.0,0.0,0.0,0.0,0.0,0.0,0.0,0.0,0.0,0.0,0.0,0.0,0.0,0.0,0.0,0.0,0.0,0.0,0.0,0.0,0.0,0.0,0.0,0.0,0.0,0.0,0.0,0.0,0.0,0.0,0.0,0.0,0.0,0.0,0.0,0.0,0.0,0.0,0.0,0.0,0.0,0.0,0.0,0.0,0.0,0.0,0.0,0.0,0.0,0.0,0.0,0.0,1.541,0.0,1.541,1.541,1.541,1.541,0.0,0.0,0.0,0.0,0.0,0.0,0.0,0.0,0.0,0.0,0.0,0.0,0.0,0.0,0.0,0.0,0.0,0.0,0.0,0.0,0.0,0.0,0.0,0.0,0.0,0.0,0.0,0.0,0.0,0.0,0.0,0.0,0.0,0.0,0.0,0.0,0.0,0.0,0.0,0.0,0.0,0.0,0.0,0.0,0.0,0.0,0.0,0.0,0.0,0.0,0.0,0.0,0.0,0.0,0.0,0.0,0.0,0.0,0.0,0.0,0.0,0.0,0.0,0.0,0.0,0.0,0.0,0.0,0.0,0.0,0.0,0.0,0.0,0.0,0.0,0.0,0.0,0.0,0.0,0.0,0.0,0.0,0.0,0.0,0.0,0.0,0.0,0.0,0.0,0.0,0.0,0.0,0.0,0.0,0.0,0.0,0.0,0.0,0.0,0.0,0.0,0.0,0.0,0.0,0.0,0.0,0.0,0.0,1.543,1.5415,1.5449,1.5474,1.543,1.5449,1.543,0.0,0.0,0.0,0.0,0.0,0.0,0.0,0.0,0.0,0.0,0.0,0.0,0.0,0.0,0.0,0.0,0.0,0.0,0.0,0.0,0.0,0.0,0.0,0.0,0.0,0.0,0.0,0.0,0.0,0.0,0.0,0.0,0.0,0.0,0.0,0.0,0.0,0.0,0.0,0.0,0.0,0.0,0.0,0.0,0.0,0.0,0.0,0.0,0.0,0.0,0.0,0.0,0.0,0.0,0.0,0.0,0.0,0.0,0.0,0.0,0.0,0.0,0.0,0.0,0.0,0.0,0.0,0.0,0.0,0.0,0.0,0.0,0.0,0.0,0.0,0.0,0.0,0.0,0.0,0.0,0.0,0.0,0.0,0.0,0.0,0.0,0.0,0.0,0.0,0.0,0.0,0.0,0.0,0.0,0.0,0.0,0.0,0.0,0.0,0.0,0.0,0.0,0.0,0.0,0.0,0.0,0.0,0.0,0.0,1.5909,1.6137,1.6297,1.6278,1.6016,1.5874,0.0,0.0,0.0,0.0,0.0,0.0,0.0,0.0,0.0,0.0,0.0,0.0,0.0,0.0,0.0,0.0,0.0,0.0,0.0,0.0,0.0,0.0,0.0,0.0,0.0,0.0,0.0,0.0,0.0,0.0,0.0,0.0,0.0,0.0,0.0,0.0,0.0,0.0,0.0,0.0,0.0,0.0,0.0,0.0,0.0,0.0,0.0,0.0,0.0,0.0,0.0,0.0,0.0,0.0,0.0,0.0,0.0,0.0,0.0,0.0,0.0,0.0,0.0,0.0,0.0,0.0,0.0,0.0,0.0,0.0,0.0,0.0,0.0,0.0,0.0,0.0,0.0,0.0,0.0,0.0,0.0,0.0,0.0,0.0,0.0,0.0,0.0,0.0,0.0,0.0,0.0,0.0,0.0,0.0,0.0,0.0,0.0,0.0,0.0,0.0,0.0,0.0,0.0,0.0,0.0,0.0,0.0,0.0,0.0,1.7031,1.6992,1.6957,1.6957,1.6715,1.6437,1.6105,0.0,0.0,0.0,0.0,0.0,0.0,0.0,0.0,0.0,0.0,0.0,0.0,0.0,0.0,0.0,0.0,0.0,0.0,0.0,0.0,0.0,0.0,0.0,0.0,0.0,0.0,0.0,0.0,0.0,0.0,0.0,0.0,0.0,0.0,0.0,0.0,0.0,0.0,0.0,0.0,0.0,0.0,0.0,0.0,0.0,0.0,0.0,0.0,0.0,0.0,0.0,0.0,0.0,0.0,0.0,0.0,0.0,0.0,0.0,0.0,0.0,0.0,0.0,0.0,0.0,0.0,0.0,0.0,0.0,0.0,0.0,0.0,0.0,0.0,0.0,0.0,0.0,0.0,0.0,0.0,0.0,0.0,0.0,0.0,0.0,0.0,0.0,0.0,0.0,0.0,0.0,0.0,0.0,0.0,0.0,0.0,0.0,0.0,0.0,0.0,0.0,0.0,0.0,0.0,0.0,0.0,0.0,0.0,1.8734,1.8027,1.7637,1.7556,1.7497,1.7067,0.0,0.0,0.0,0.0,0.0,0.0,0.0,0.0,0.0,0.0,0.0,0.0,0.0,0.0,0.0,0.0,0.0,0.0,0.0,0.0,0.0,0.0,0.0,0.0,0.0,0.0,0.0,0.0,0.0,0.0,0.0,0.0,0.0,0.0,0.0,0.0,0.0,0.0,0.0,0.0,0.0,0.0,0.0,0.0,0.0,0.0,0.0,0.0,0.0,0.0,0.0,0.0,0.0,0.0,0.0,0.0,0.0,0.0,0.0,0.0,0.0,0.0,0.0,0.0,0.0,0.0,0.0,0.0,0.0,0.0,0.0,0.0,0.0,0.0,0.0,0.0,0.0,0.0,0.0,0.0,0.0,0.0,0.0,0.0,0.0,0.0,0.0,0.0,0.0,0.0,0.0,0.0,0.0,0.0,0.0,0.0,0.0,0.0,0.0,0.0,0.0,0.0,0.0,0.0,0.0,0.0,0.0,0.0,0.0,2.0469,2.0664,2.0234,1.9259,1.8615,1.803,0.0,0.0,0.0,0.0,0.0,0.0,0.0,0.0,0.0,0.0,0.0,0.0,0.0,0.0,0.0,0.0,0.0,0.0,0.0,0.0,0.0,0.0,0.0,0.0,0.0,0.0,0.0,0.0,0.0,0.0,0.0,0.0,0.0,0.0,0.0,0.0,0.0,0.0,0.0,0.0,0.0,0.0,0.0,0.0,0.0,0.0,0.0,0.0,0.0,0.0,0.0,0.0,0.0,0.0,0.0,0.0,0.0,0.0,0.0,0.0,0.0,0.0,0.0,0.0,0.0,0.0,0.0,0.0,0.0,0.0,0.0,0.0,0.0,0.0,0.0,0.0,0.0,0.0,0.0,0.0,0.0,0.0,0.0,0.0,0.0,0.0,0.0,0.0,0.0,0.0,0.0,0.0,0.0,0.0,0.0,0.0,0.0,0.0,0.0,0.0,0.0,0.0,0.0,0.0,0.0,0.0,0.0,0.0,2.0195,2.1484,2.2109,2.2169,2.1562,2.0333,1.9221,0.0,0.0,0.0,0.0,0.0,0.0,0.0,0.0,0.0,0.0,0.0,0.0,0.0,0.0,0.0,0.0,0.0,0.0,0.0,0.0,0.0,0.0,0.0,0.0,0.0,0.0,0.0,0.0,0.0,0.0,0.0,0.0,0.0,0.0,0.0,0.0,0.0,0.0,0.0,0.0,0.0,0.0,0.0,0.0,0.0,0.0,0.0,0.0,0.0,0.0,0.0,0.0,0.0,0.0,0.0,0.0,0.0,0.0,0.0,0.0,0.0,0.0,0.0,0.0,0.0,0.0,0.0,0.0,0.0,0.0,0.0,0.0,0.0,0.0,0.0,0.0,0.0,0.0,0.0,0.0,0.0,0.0,0.0,0.0,0.0,0.0,0.0,0.0,0.0,0.0,0.0,0.0,0.0,0.0,0.0,0.0,0.0,0.0,0.0,0.0,0.0,0.0,0.0,0.0,0.0,0.0,0.0,0.0,2.0762,2.2091,2.2951,2.3557,2.387,2.2245,2.0527,0.0,0.0,0.0,0.0,0.0,0.0,0.0,0.0,0.0,0.0,0.0,0.0,0.0,0.0,0.0,0.0,0.0,0.0,0.0,0.0,0.0,0.0,0.0,0.0,0.0,0.0,0.0,0.0,0.0,0.0,0.0,0.0,0.0,0.0,0.0,0.0,0.0,0.0,0.0,0.0,0.0,0.0,0.0,0.0,0.0,0.0,0.0,0.0,0.0,0.0,0.0,0.0,0.0,0.0,0.0,0.0,0.0,0.0,0.0,0.0,0.0,0.0,0.0,0.0,0.0,0.0,0.0,0.0,0.0,0.0,0.0,0.0,0.0,0.0,0.0,0.0,0.0,0.0,0.0,0.0,0.0,0.0,0.0,0.0,0.0,0.0,0.0,0.0,0.0,0.0,0.0,0.0,0.0,0.0,0.0,0.0,0.0,0.0,0.0,0.0,0.0,0.0,0.0,0.0,0.0,0.0,0.0,0.0,2.209,2.3359,2.4242,2.473,2.4809,2.3166,2.1582,0.0,0.0,0.0,0.0,0.0,0.0,0.0,0.0,0.0,0.0,0.0,0.0,0.0,0.0,0.0,0.0,0.0,0.0,0.0,0.0,0.0,0.0,0.0,0.0,0.0,0.0,0.0,0.0,0.0,0.0,0.0,0.0,0.0,0.0,0.0,0.0,0.0,0.0,0.0,0.0,0.0,0.0,0.0,0.0,0.0,0.0,0.0,0.0,2.093,0.0,0.0,0.0,0.0,0.0,0.0,0.0,0.0,0.0,0.0,0.0,0.0,0.0,0.0,0.0,0.0,0.0,0.0,0.0,0.0,0.0,0.0,0.0,0.0,0.0,0.0,0.0,0.0,0.0,0.0,0.0,0.0,0.0,0.0,0.0,0.0,0.0,0.0,0.0,0.0,0.0,0.0,0.0,0.0,0.0,0.0,0.0,0.0,0.0,0.0,0.0,0.0,0.0,0.0,0.0,0.0,0.0,0.0,0.0,2.25,2.3769,2.4652,2.52,2.5332,2.4079,2.2715,0.0,0.0,0.0,0.0,0.0,0.0,0.0,0.0,0.0,0.0,0.0,0.0,0.0,0.0,0.0,0.0,0.0,0.0,0.0,0.0,0.0,0.0,0.0,0.0,0.0,0.0,0.0,0.0,0.0,0.0,0.0,0.0,0.0,0.0,0.0,0.0,0.0,0.0,0.0,0.0,0.0,0.0,0.0,0.0,0.0,0.0,0.0,0.0,0.0,0.0,0.0,0.0,0.0,0.0,0.0,0.0,0.0,0.0,0.0,0.0,0.0,0.0,0.0,0.0,0.0,0.0,0.0,0.0,0.0,0.0,0.0,0.0,0.0,0.0,0.0,0.0,0.0,0.0,0.0,0.0,0.0,0.0,0.0,0.0,0.0,0.0,0.0,0.0,0.0,0.0,0.0,0.0,0.0,0.0,0.0,0.0,0.0,0.0,0.0,0.0,0.0,0.0,0.0,0.0,0.0,0.0,0.0,2.1504,2.2795,2.3968,2.4742,2.528,2.5606,2.4765,2.3582,2.2087,0.0,0.0,0.0,0.0,0.0,0.0,0.0,0.0,0.0,0.0,0.0,0.0,0.0,0.0,0.0,0.0,0.0,0.0,0.0,0.0,0.0,0.0,0.0,0.0,0.0,0.0,0.0,0.0,0.0,0.0,0.0,0.0,0.0,0.0,0.0,0.0,0.0,0.0,2.0501,2.143,0.0,0.0,0.0,0.0,0.0,0.0,0.0,0.0,2.3002,0.0,0.0,0.0,0.0,0.0,0.0,0.0,0.0,0.0,0.0,0.0,0.0,0.0,0.0,0.0,0.0,0.0,0.0,0.0,0.0,0.0,0.0,0.0,0.0,0.0,0.0,0.0,0.0,0.0,0.0,0.0,0.0,0.0,0.0,0.0,0.0,0.0,0.0,0.0,0.0,0.0,0.0,0.0,0.0,0.0,0.0,0.0,0.0,0.0,0.0,0.0,0.0,0.0,0.0,0.0,0.0,2.1563,2.2854,2.3948,2.4844,2.5136,2.528,2.5338,2.4364,2.3446,2.2645,0.0,0.0,0.0,0.0,0.0,0.0,0.0,0.0,0.0,0.0,0.0,0.0,0.0,0.0,0.0,0.0,0.0,0.0,0.0,0.0,0.0,0.0,0.0,0.0,0.0,0.0,0.0,0.0,0.0,0.0,0.0,0.0,0.0,0.0,0.0,0.0,0.0,0.0,0.0,2.243,2.3043,0.0,0.0,0.0,0.0,0.0,0.0,0.0,0.0,2.3614,0.0,0.0,0.0,0.0,0.0,0.0,0.0,0.0,0.0,0.0,0.0,0.0,0.0,0.0,0.0,0.0,0.0,0.0,0.0,0.0,0.0,0.0,0.0,0.0,0.0,0.0,0.0,0.0,0.0,0.0,0.0,0.0,0.0,0.0,0.0,0.0,0.0,0.0,0.0,0.0,0.0,0.0,0.0,0.0,0.0,0.0,0.0,0.0,0.0,0.0,0.0,0.0,0.0,0.0,0.0,2.1876,2.3144,2.4222,2.5063,2.5223,2.5212,2.4987,2.3926,2.2944,0.0,0.0,0.0,0.0,0.0,0.0,0.0,0.0,0.0,0.0,0.0,0.0,0.0,0.0,0.0,0.0,0.0,0.0,0.0,0.0,0.0,0.0,0.0,0.0,0.0,0.0,0.0,0.0,0.0,0.0,0.0,0.0,0.0,0.0,0.0,0.0,0.0,0.0,0.0,0.0,2.3145,2.3735,2.3363,0.0,0.0,0.0,0.0,0.0,0.0,2.4819,2.4462,0.0,0.0,0.0,0.0,0.0,0.0,0.0,0.0,0.0,0.0,0.0,0.0,0.0,0.0,0.0,0.0,0.0,0.0,0.0,0.0,0.0,0.0,0.0,0.0,0.0,0.0,0.0,0.0,0.0,0.0,0.0,0.0,0.0,0.0,0.0,0.0,0.0,0.0,0.0,0.0,0.0,0.0,0.0,0.0,0.0,0.0,0.0,0.0,0.0,0.0,0.0,0.0,0.0,0.0,0.0,2.2129,2.332,2.4336,2.5176,2.5208,2.5,2.456,2.3479,2.2302,0.0,0.0,0.0,0.0,0.0,0.0,0.0,0.0,0.0,0.0,0.0,0.0,0.0,0.0,0.0,0.0,0.0,0.0,0.0,0.0,0.0,0.0,0.0,0.0,0.0,0.0,0.0,0.0,0.0,0.0,0.0,0.0,0.0,0.0,0.0,0.0,0.0,0.0,0.0,0.0,0.0,2.4297,2.4015,2.4073,0.0,0.0,0.0,0.0,2.5405,2.5548,0.0,0.0,0.0,0.0,0.0,0.0,0.0,0.0,0.0,0.0,0.0,0.0,0.0,0.0,0.0,0.0,0.0,0.0,0.0,0.0,0.0,0.0,0.0,0.0,0.0,0.0,0.0,0.0,0.0,0.0,0.0,0.0,0.0,0.0,0.0,0.0,0.0,0.0,0.0,0.0,0.0,0.0,0.0,0.0,0.0,0.0,0.0,0.0,0.0,0.0,0.0,0.0,0.0,0.0,0.0,0.0,2.2927,2.3864,2.4742,2.5557,2.5172,2.466,2.4082,2.2805,2.1634,0.0,0.0,0.0,0.0,0.0,0.0,0.0,0.0,0.0,0.0,0.0,0.0,0.0,0.0,0.0,0.0,0.0,0.0,0.0,0.0,0.0,0.0,0.0,0.0,0.0,0.0,0.0,0.0,0.0,0.0,0.0,0.0,0.0,0.0,0.0,0.0,0.0,0.0,0.0,0.0,0.0,2.4917,2.4712,2.4977,2.5285,0.0,0.0,2.5429,2.5928,2.6011,0.0,0.0,0.0,0.0,0.0,0.0,0.0,0.0,0.0,0.0,0.0,0.0,0.0,0.0,0.0,0.0,0.0,0.0,0.0,0.0,0.0,0.0,0.0,0.0,0.0,0.0,0.0,0.0,0.0,0.0,0.0,0.0,0.0,0.0,0.0,0.0,0.0,0.0,0.0,0.0,0.0,0.0,0.0,0.0,0.0,0.0,0.0,0.0,0.0,0.0,0.0,0.0,0.0,0.0,0.0,2.1224,2.2887,2.3484,2.4184,2.4958,2.4504,2.3999,2.3523,2.2384,2.123,0.0,0.0,0.0,0.0,0.0,0.0,0.0,0.0,0.0,0.0,0.0,0.0,0.0,0.0,0.0,0.0,0.0,0.0,0.0,0.0,0.0,0.0,0.0,0.0,0.0,0.0,0.0,0.0,0.0,0.0,0.0,0.0,0.0,0.0,0.0,0.0,0.0,0.0,0.0,0.0,0.0,0.0,2.5035,2.5595,0.0,0.0,0.0,2.655,2.7249,0.0,0.0,0.0,0.0,0.0,0.0,0.0,0.0,0.0,0.0,0.0,0.0,0.0,0.0,0.0,0.0,0.0,0.0,0.0,0.0,0.0,0.0,0.0,0.0,0.0,0.0,0.0,0.0,0.0,0.0,0.0,0.0,0.0,0.0,0.0,0.0,0.0,0.0,0.0,0.0,0.0,0.0,0.0,0.0,0.0,0.0,0.0,0.0,0.0,0.0,0.0,0.0,0.0,0.0,0.0,0.0,0.0,2.2665,2.312,2.3671,2.4411,2.3921,2.3391,2.2863,2.1881,0.0,0.0,0.0,0.0,0.0,0.0,0.0,0.0,0.0,0.0,0.0,0.0,0.0,0.0,0.0,0.0,0.0,0.0,0.0,0.0,0.0,0.0,0.0,0.0,0.0,0.0,0.0,2.0957,0.0,0.0,0.0,0.0,0.0,0.0,0.0,0.0,0.0,0.0,0.0,0.0,0.0,0.0,2.4431,2.5295,2.5925,2.6429,0.0,0.0,2.7117,2.7895,2.7695,2.7084,0.0,0.0,0.0,0.0,0.0,0.0,0.0,0.0,0.0,0.0,0.0,0.0,0.0,0.0,0.0,0.0,0.0,0.0,0.0,0.0,0.0,0.0,0.0,0.0,0.0,0.0,0.0,0.0,0.0,0.0,0.0,0.0,0.0,0.0,0.0,0.0,0.0,0.0,0.0,0.0,0.0,0.0,0.0,0.0,0.0,0.0,0.0,0.0,0.0,0.0,0.0,0.0,0.0,0.0,2.0939,2.2381,2.3051,2.3656,2.4252,2.3809,2.3073,2.219,2.1263,2.0174,0.0,0.0,0.0,0.0,0.0,0.0,0.0,0.0,0.0,0.0,0.0,0.0,0.0,0.0,0.0,0.0,0.0,0.0,0.0,0.0,0.0,0.0,0.0,0.0,0.0,0.0,0.0,0.0,0.0,0.0,0.0,0.0,0.0,0.0,0.0,0.0,0.0,0.0,0.0,0.0,0.0,2.4555,2.5517,2.5829,2.6164,0.0,2.6579,2.6548,2.7185,2.6936,2.6454,2.583,0.0,0.0,0.0,0.0,0.0,0.0,0.0,0.0,0.0,0.0,0.0,0.0,0.0,0.0,0.0,0.0,0.0,0.0,0.0,0.0,0.0,0.0,0.0,0.0,0.0,0.0,0.0,0.0,0.0,0.0,0.0,0.0,0.0,0.0,0.0,0.0,0.0,0.0,0.0,0.0,0.0,0.0,0.0,0.0,0.0,0.0,0.0,0.0,0.0,0.0,0.0,0.0,0.0,2.1025,2.2059,2.2174,2.2401,2.2735,2.2236,2.1788,2.1412,2.0831,2.0171,0.0,0.0,0.0,0.0,0.0,0.0,0.0,0.0,0.0,0.0,0.0,0.0,0.0,0.0,0.0,0.0,0.0,0.0,0.0,0.0,0.0,0.0,0.0,0.0,0.0,0.0,0.0,0.0,2.3101,2.301,2.1889,0.0,0.0,0.0,0.0,0.0,0.0,0.0,0.0,0.0,0.0,2.4192,2.5205,2.572,0.0,0.0,2.6724,2.6801,2.7042,2.6888,2.6339,2.5191,2.4027,0.0,0.0,0.0,0.0,0.0,0.0,0.0,0.0,0.0,0.0,0.0,0.0,0.0,0.0,0.0,0.0,0.0,0.0,0.0,0.0,0.0,0.0,0.0,0.0,0.0,0.0,0.0,0.0,0.0,0.0,0.0,0.0,0.0,0.0,0.0,0.0,0.0,0.0,0.0,0.0,0.0,0.0,0.0,0.0,0.0,0.0,0.0,0.0,0.0,0.0,0.0,0.0,2.0893,2.1698,2.1545,2.1526,2.1705,2.1185,2.0871,2.0766,2.0407,2.0044,0.0,0.0,0.0,0.0,0.0,0.0,0.0,0.0,0.0,0.0,0.0,0.0,0.0,0.0,0.0,0.0,0.0,0.0,0.0,0.0,0.0,0.0,0.0,0.0,0.0,0.0,0.0,0.0,2.2897,2.2404,2.0877,0.0,0.0,0.0,0.0,0.0,0.0,0.0,0.0,0.0,0.0,2.3486,2.4345,2.4845,2.532,2.5747,2.5937,2.607,2.6209,2.6061,2.5524,2.4369,0.0,0.0,0.0,0.0,0.0,0.0,0.0,0.0,0.0,0.0,0.0,0.0,0.0,0.0,0.0,0.0,0.0,0.0,0.0,0.0,0.0,0.0,0.0,0.0,0.0,0.0,0.0,1.6213,0.0,0.0,1.5834,0.0,0.0,0.0,0.0,0.0,0.0,0.0,0.0,0.0,0.0,0.0,0.0,0.0,0.0,0.0,0.0,0.0,0.0,0.0,0.0,0.0,0.0,2.0421,2.1189,2.1251,2.1366,2.1483,2.097,2.0544,2.0215,1.9949,1.9639,1.9233,0.0,0.0,0.0,0.0,0.0,0.0,0.0,0.0,0.0,0.0,0.0,0.0,0.0,0.0,0.0,0.0,0.0,0.0,0.0,0.0,0.0,0.0,0.0,0.0,0.0,0.0,2.2793,2.2304,2.1379,0.0,0.0,0.0,0.0,0.0,0.0,0.0,0.0,0.0,2.1351,2.191,2.2386,2.289,2.2949,2.325,2.3877,2.3868,2.3931,2.4389,2.4155,2.3721,0.0,0.0,0.0,0.0,0.0,0.0,0.0,0.0,0.0,0.0,0.0,0.0,0.0,0.0,0.0,0.0,0.0,0.0,0.0,0.0,0.0,0.0,0.0,0.0,0.0,0.0,0.0,1.7702,1.7114,0.0,0.0,0.0,0.0,0.0,0.0,0.0,0.0,0.0,0.0,0.0,2.0245,2.0135,0.0,0.0,0.0,0.0,0.0,0.0,0.0,0.0,0.0,0.0,0.0,0.0,2.0241,2.0562,2.054,2.0479,2.0373,2.0013,1.9768,1.9672,1.9586,1.9441,1.9193,0.0,0.0,0.0,0.0,0.0,0.0,0.0,0.0,0.0,0.0,0.0,0.0,0.0,0.0,0.0,0.0,0.0,0.0,0.0,0.0,0.0,0.0,0.0,0.0,0.0,2.1648,0.0,0.0,0.0,0.0,0.0,0.0,0.0,0.0,0.0,0.0,0.0,2.0508,2.0992,2.1264,2.1565,2.2003,2.2186,2.2457,0.0,0.0,0.0,0.0,0.0,0.0,0.0,0.0,0.0,0.0,0.0,0.0,0.0,0.0,2.1177,2.0839,2.0875,2.1154,2.1732,0.0,0.0,0.0,0.0,0.0,0.0,0.0,0.0,0.0,0.0,0.0,0.0,0.0,0.0,1.8389,1.7998,1.7677,0.0,0.0,0.0,0.0,0.0,0.0,0.0,0.0,2.0414,2.1104,2.1709,2.151,2.1466,2.1553,2.0908,2.0272,0.0,0.0,0.0,0.0,0.0,0.0,0.0,0.0,1.9999,2.0182,2.002,1.9963,1.9961,1.9681,1.9573,1.9666,1.9666,1.9643,1.954,1.9562,1.9705,0.0,0.0,0.0,0.0,0.0,0.0,0.0,0.0,0.0,0.0,0.0,0.0,0.0,0.0,0.0,0.0,0.0,0.0,0.0,0.0,0.0,0.0,0.0,2.0964,0.0,0.0,0.0,0.0,0.0,0.0,0.0,0.0,0.0,1.9614,1.995,2.0257,2.0715,2.0772,2.0772,2.0964,0.0,0.0,0.0,0.0,0.0,0.0,0.0,2.2164,2.1348,2.1567,2.1729,2.1285,2.1444,2.1755,2.214,0.0,0.0,2.2046,2.2156,2.2577,2.3294,2.3449,2.3621,2.4097,2.4245,2.4263,0.0,0.0,0.0,0.0,1.7952,0.0,0.0,0.0,1.8862,1.8836,0.0,1.8894,0.0,0.0,0.0,0.0,1.8264,1.9437,0.0,0.0,2.2002,2.256,2.2957,2.3063,2.2943,2.2524,2.1784,2.142,2.1328,1.9879,0.0,0.0,0.0,0.0,0.0,0.0,1.9708,1.998,1.9805,1.9887,2.026,1.9991,1.9947,2.0184,2.0197,2.0201,2.0171,1.9914,2.0074,2.0828,1.9903,0.0,0.0,0.0,0.0,0.0,0.0,0.0,0.0,0.0,0.0,0.0,0.0,0.0,0.0,0.0,0.0,0.0,0.0,0.0,0.0,2.0642,0.0,0.0,0.0,0.0,0.0,0.0,0.0,0.0,0.0,0.0,1.9401,1.9719,2.0082,2.0554,0.0,0.0,0.0,0.0,2.0358,2.0639,2.0878,2.1116,2.1296,2.1339,2.1401,2.1418,0.0,0.0,2.2356,2.2899,2.3247,2.3278,2.3323,2.3197,2.2978,2.3448,2.404,2.4663,2.5003,2.5478,2.6009,2.5808,2.5689,1.8827,0.0,0.0,0.0,0.0,1.9,1.9425,1.9868,2.0093,2.025,2.0293,2.0007,0.0,0.0,0.0,0.0,0.0,0.0,2.2034,2.2821,2.3456,2.3956,2.4293,2.3907,2.3676,2.352,2.2719,2.2231,2.1973,2.0724,1.9966,1.9611,0.0,0.0,0.0,0.0,1.9461,2.0011,1.9878,1.9914,2.0227,2.0137,2.0117,2.0197,2.021,2.0187,2.0197,2.0335,2.0501,2.0672,2.0374,0.0,0.0,0.0,0.0,0.0,0.0,0.0,0.0,0.0,0.0,0.0,0.0,0.0,0.0,0.0,0.0,0.0,0.0,0.0,2.0446,2.0395,1.9876,0.0,0.0,0.0,0.0,0.0,0.0,0.0,0.0,0.0,2.0181,2.02,2.0245,0.0,0.0,2.0261,2.0413,2.0663,2.0958,2.1281,2.1534,0.0,2.1475,2.1859,2.2083,2.1905,2.2705,2.3444,2.3834,2.4204,2.4561,2.4759,2.4852,2.487,2.5046,2.4593,2.4551,2.512,2.5527,2.5856,2.6223,2.6447,2.6417,2.0139,1.9514,1.9159,1.9194,1.9509,1.9768,2.0096,2.0454,2.0945,2.1194,2.1351,2.1334,2.1258,2.1077,2.0945,0.0,0.0,0.0,2.3184,2.3671,2.3998,2.4322,2.4482,2.3979,2.3701,2.3664,2.2862,2.2383,2.2201,2.1116,2.0493,2.0238,0.0,1.9066,1.9471,1.921,1.9374,1.9962,1.9836,1.9991,2.0357,2.049,2.0557,2.0544,2.0557,2.0544,2.0544,2.0652,2.0807,2.0992,2.0727,2.0439,0.0,0.0,0.0,0.0,0.0,0.0,0.0,0.0,0.0,0.0,0.0,1.7766,1.7751,0.0,0.0,0.0,1.9508,2.0162,2.0605,2.023,0.0,0.0,0.0,0.0,0.0,0.0,0.0,1.8536,1.9272,2.0091,2.0984,2.1125,2.1138,2.1086,2.0795,2.0707,2.1043,0.0,2.1491,2.1935,2.2141,2.2273,2.2348,2.2647,2.2976,2.306,2.3932,2.4656,2.4864,2.5178,2.5476,2.5622,2.5682,2.5741,2.597,2.5474,2.5273,2.5992,2.636,2.668,2.7002,2.713,2.7002,2.1348,2.1302,2.0562,2.0348,2.0509,2.0516,2.0661,2.0959,2.1466,2.1819,2.2084,2.2652,2.27,2.2396,2.2674,0.0,2.2832,2.3642,2.4004,2.3996,2.4018,2.4051,2.4049,2.3538,2.3294,2.3315,2.2504,2.2096,2.2067,2.1172,2.0701,2.0659,1.9675,1.9168,1.9237,1.9221,1.9402,1.9809,1.9813,2.012,2.0726,2.0975,2.1109,2.1096,2.1082,2.1037,2.1069,2.082,2.0906,2.1433,2.092,2.0568,2.0497,0.0,0.0,0.0,0.0,0.0,0.0,0.0,0.0,0.0,0.0,0.0,0.0,0.0,0.0,0.0,2.0194,0.0,2.0765,2.0237,0.0,0.0,0.0,1.8613,1.895,1.9272,1.9635,2.0016,0.0,0.0,2.1876,2.2418,2.2579,2.2037,2.1642,2.1511,2.1847,2.195,2.214,2.2769,2.2828,2.3032,2.3593,2.3755,2.4004,2.4543,2.5198,2.5564,2.5608,2.59,2.6091,2.617,2.6149,2.6179,2.6179,2.6185,2.6357,2.7001,2.7277,2.7566,2.7823,2.763,2.7269,2.1836,2.182,2.1641,2.1515,2.1491,2.1471,2.1667,2.2022,2.2133,2.2373,2.2626,2.2771,2.2902,2.3011,2.3531,2.3747,2.3808,2.4492,2.4819,2.4783,2.4405,2.4382,2.4541,2.3541,2.3189,2.337,2.2526,2.2082,2.2052,2.1142,2.0692,2.0665,1.9985,1.9649,1.964,1.9416,1.9468,1.9809,1.9986,2.0384,2.0989,2.1069,2.1109,2.1109,2.0895,2.0806,2.0806,2.0494,2.0395,2.0503,2.0435,2.0272,2.0,1.9077,0.0,0.0,0.0,0.0,0.0,0.0,0.0,0.0,0.0,1.7622,1.8125,0.0,1.9582,0.0,2.053,2.1203,2.1437,2.1101,0.0,0.0,2.0237,2.0239,2.0589,2.0925,2.1423,2.2228,2.252,2.2974,2.3811,2.4045,2.4177,2.425,2.3545,2.3149,2.3503,2.3735,2.406,2.4412,2.4499,2.4573,2.4734,2.492,2.5179,2.5608,2.6018,2.6266,2.6281,2.6749,2.713,2.7144,2.7298,2.7429,2.7415,2.7444,2.7489,2.7615,2.7248,2.6942,2.7246,2.7033,2.6648,2.2318,2.2461,2.2461,2.2405,2.2306,2.2012,2.2076,2.2409,2.2554,2.2782,2.3025,2.3217,2.3464,2.375,2.4107,2.4412,2.4703,2.4954,2.5057,2.5001,2.4296,2.3949,2.3956,2.2906,2.2482,2.2632,2.1969,2.1647,2.1617,2.1146,2.0862,2.0862,2.0261,1.9908,1.9768,1.9365,1.9293,1.962,2.0157,2.0624,2.1082,2.1109,2.1056,2.0909,2.0628,2.0414,2.0294,2.0,1.9907,2.0027,2.0059,2.0015,1.9809,1.9057,1.8335,0.0,0.0,0.0,0.0,0.0,0.0,0.0,0.0,0.0,0.0,0.0,2.0223,2.0822,2.1452,2.1979,2.2301,2.2037,2.1832,2.1759,2.1789,2.1949,2.2432,2.2784,2.3269,2.3928,2.4101,2.4393,2.4935,2.5242,2.5491,2.5681,2.5491,2.5169,2.4832,2.5008,2.5364,2.5686,2.5862,2.6009,2.6141,2.6398,2.6625,2.6815,2.6991,2.7108,2.7122,2.7437,2.7686,2.77,2.7794,2.7911,2.7911,2.7911,2.7911,2.7824,2.7393,2.7034,2.7156,2.7011,2.6721,2.2907,2.3149,2.3149,2.3121,2.3101,2.2509,2.2375,2.2565,2.2888,2.3171,2.3453,2.3792,2.4149,2.4417,2.4474,2.4783,2.5344,2.5111,2.4965,2.4818,2.3891,2.3256,2.2841,2.1958,2.1566,2.1578,2.1265,2.1125,2.1156,2.1141,2.1162,2.1149,2.0615,2.017,1.9893,1.9332,1.9185,1.9508,2.0338,2.0855,2.1096,2.1149,2.1015,2.0681,2.0347,2.001,1.9746,1.9455,1.9401,1.9613,1.9666,1.9679,1.9666,1.9212,1.8687,0.0,1.7525,0.0,0.0,0.0,0.0,0.0,0.0,0.0,0.0,2.0041,2.0915,2.2137,2.2546,2.2852,2.3204,2.3045,2.3047,2.3325,2.3398,2.3647,2.4203,2.4587,2.4939,2.5291,2.5549,2.5705,2.5851,2.6319,2.6655,2.672,2.7056,2.6954,2.6099,2.607,2.6348,2.6661,2.6925,2.7115,2.7378,2.7648,2.7824,2.7868,2.7824,2.7911,2.7853,2.7926,2.7984,2.7984,2.8028,2.8057,2.8028,2.8057,2.8043,2.7958,2.7672,2.7411,2.7296,2.7102,2.6913,2.383,2.3877,2.3877,2.3877,2.3861,2.3763,2.3527,2.3305,2.3696,2.3898,2.3956,2.4253,2.4421,2.4499,2.4778,2.4973,2.5082,2.5023,2.473,2.4156,2.3462,2.2812,2.2171,2.1497,2.1345,2.1562,2.1285,2.1236,2.1501,2.1514,2.1502,2.1489,2.1109,2.0802,2.0525,0.0,0.0,0.0,2.0708,2.1056,2.1109,2.1349,2.1248,2.0726,2.016,0.0,1.9481,1.8973,1.8705,1.8744,1.8958,0.0,0.0,0.0,0.0,0.0,0.0,0.0,0.0,0.0,0.0,0.0,2.0144,2.016,2.043,2.1011,2.1636,2.2356,2.2996,2.3472,2.3788,2.4316,2.4661,2.4719,2.492,2.5091,2.5223,2.5515,2.5959,2.6559,2.6676,2.691,2.7312,2.7575,2.7619,2.7604,2.7751,2.7721,2.7473,2.7458,2.7546,2.7648,2.7692,2.7751,2.7809,2.7897,2.797,2.7911,2.7911,2.7926,2.7955,2.816,2.8306,2.8306,2.8496,2.8695,2.8695,2.871,2.8565,2.8298,2.8128,2.7946,2.7407,2.6776,2.6281,2.4114,2.4114,2.4114,2.4114,0.0,2.4275,2.4213,2.4055,2.4084,2.4114,2.4114,2.4261,2.4386,2.4547,2.4725,2.4971,2.5269,2.4954,2.4533,2.4005,2.305,2.225,2.1524,2.0913,2.0679,2.0869,2.0809,2.0971,2.1304,2.1422,2.1601,2.1796,2.1502,2.1288,2.1141,2.0846,2.0601,2.0454,2.1029,2.1336,2.1336,2.1502,2.1301,2.0726,2.0241,0.0,0.0,0.0,0.0,0.0,0.0,0.0,0.0,1.98,0.0,1.9735,1.96,1.967,2.0101,2.0276,2.0794,2.1644,2.2002,2.2023,2.1624,2.2132,2.2735,2.3387,2.3731,2.4077,2.4374,2.4916,2.5244,2.5273,2.5854,2.6252,2.6296,2.6655,2.7064,2.7356,2.7466,2.7575,2.783,2.8057,2.8145,2.816,2.8291,2.8364,2.8364,2.8247,2.8189,2.835,2.8417,2.8379,2.8417,2.8417,2.8364,2.8379,2.8379,2.8379,2.8379,2.8549,2.8666,2.8666,2.8798,2.8886,2.8886,2.8744,2.8549,2.8314,2.7976,2.7577,2.7203,2.6799,2.645,2.4259,2.4275,2.4259,2.4259,2.4291,2.4577,2.4674,2.4642,2.4386,0.0,0.0,2.4275,2.4434,2.4704,2.4674,2.4985,2.5441,2.4826,2.4255,2.379,2.2574,2.161,2.0903,2.0342,2.0112,2.0175,2.039,2.0655,2.0993,2.1332,2.166,2.1945,2.183,2.1748,2.1676,2.1802,2.1582,2.1141,2.1515,2.1716,2.1662,2.1716,2.1462,2.0873,2.0517,2.0224,1.996,1.9709,1.9682,1.9933,2.0,2.0281,2.082,2.0695,2.0704,2.0949,2.0802,2.0935,2.1456,2.1754,2.2223,2.3011,2.3583,2.3536,2.2771,2.3201,2.3693,2.424,2.4393,2.4581,2.486,2.5349,2.5677,2.5734,2.6583,2.7159,2.7188,2.7575,2.7882,2.7984,2.7984,2.8028,2.8101,2.8321,2.8481,2.8511,2.871,2.8886,2.8856,2.8666,2.8554,2.8783,2.8798,2.8856,2.8886,2.8856,2.8886,2.8842,2.8856,2.8886,2.8886,2.8886,2.8886,2.8871,2.8886,2.8847,2.8769,2.851,2.825,2.8093,2.7504,2.6953,2.6913,2.686,2.6768,2.4944,2.496,2.496,2.496,2.496,2.5008,2.504,2.4993,2.4976,2.496,2.496,2.496,2.4992,2.504,2.504,2.5071,2.5103,2.4487,2.3666,2.2793,2.201,2.1115,2.017,2.0041,2.0145,2.0356,2.0394,2.0584,2.0941,2.1517,2.1861,2.1949,2.2178,2.2178,2.2024,2.2452,2.2679,2.2586,2.2378,2.2178,2.1937,2.2164,2.2017,2.1489,2.1149,2.0855,2.0561,2.0281,2.0254,2.0565,2.0788,2.1082,2.1448,2.1857,2.2124,2.2178,2.2378,2.2645,2.2945,2.3054,2.3249,2.3611,2.3959,2.3995,2.3652,2.3709,2.3798,2.3892,2.4443,2.4833,2.5171,2.6059,2.6692,2.6949,2.7482,2.778,2.7765,2.7868,2.8057,2.8291,2.8335,2.8437,2.8666,2.8769,2.8798,2.8827,2.8856,2.8886,2.8886,2.8856,2.8842,2.8886,2.8886,2.8886,2.8886,2.8886,2.8886,2.8886,2.8886,2.8886,2.8886,2.8886,2.8886,2.8886,2.8886,2.873,2.8471,2.8328,2.7976,2.7412,2.7071,2.686,2.6584,2.6558,2.6479,2.5072,2.5072,2.5072,2.5072,2.5072,2.5072,2.5072,2.5072,2.5072,2.5072,2.5072,2.5072,2.5072,2.5072,2.5072,2.5011,2.4795,2.396,2.3177,2.2501,2.1464,2.0734,2.0236,2.003,1.9992,2.0114,2.0261,2.0524,2.0885,2.1306,2.174,2.2128,2.2648,2.2812,2.2752,2.314,2.3388,2.3388,2.322,2.3006,2.2726,2.2846,2.2699,2.2305,2.2158,2.2037,2.1903,2.1737,2.1756,2.189,2.2024,2.2191,2.2498,2.2766,2.2945,2.314,2.3308,2.3487,2.3745,2.4102,2.4409,2.4727,2.4836,2.4847,2.4726,2.4599,2.4556,2.4703,2.5022,2.5218,2.5367,2.603,2.6607,2.6923,2.7488,2.7931,2.8165,2.8335,2.852,2.8651,2.8681,2.8739,2.8871,2.8886,2.8886,2.8886,2.8886,2.8886,2.8886,2.8886,2.8886,2.8886,2.8886,2.8886,2.8886,2.8886,2.8886,2.8886,2.8886,2.8886,2.8886,2.8886,2.8886,2.8886,2.8744,2.851,2.8289,2.7897,2.7465,2.7175,2.6781,2.6584,2.6426,2.64,2.64,2.5072,2.5072,2.5072,2.5072,2.5072,2.5072,2.5072,2.5072,2.5072,2.5151,2.5214,2.5151,2.5072,2.5119,2.5183,2.4983,2.4517,2.361,2.2886,2.2263,2.1059,2.0438,2.0342,2.0099,2.0035,2.0108,2.0267,2.0535,2.0798,2.1039,2.1625,2.2393,2.2998,2.3354,2.3434,2.3714,2.391,2.391,2.3964,2.3794,2.3447,2.3399,2.3313,2.3121,2.3094,2.3094,2.3108,2.3108,2.3134,2.3201,2.3201,2.3327,2.3688,2.3714,2.3861,2.4115,2.4205,2.4262,2.4502,2.4917,2.5277,2.5491,2.5518,2.5531,2.5585,2.5449,2.5331,2.5491,2.5464,2.5504,2.5661,2.5995,2.6367,2.6843,2.749,2.8057,2.8487,2.8754,2.8886,2.8886,2.8886,2.8886,2.8886,2.8886,2.8886,2.8886,2.8886,2.8886,2.8886,2.8886,2.8886,2.8886,2.8886,2.8886,2.8886,2.8886,2.8886,2.8886,2.8886,2.8886,2.8886,2.8886,2.8886,2.8861,2.8588,2.8275,2.8118,2.7544,2.7071,2.686,2.6623,2.6426,2.6386,2.64,2.64,2.5119,2.5072,2.5135,2.5072,2.5135,2.5104,2.5135,2.5135,2.5088,2.5263,2.5517,2.5246,2.5104,2.512,2.5422,2.5203,2.4557,2.382,2.2911,2.1937,2.0895,2.0379,2.0321,2.0277,2.0398,2.0591,2.064,2.064,2.0743,2.1069,2.1726,2.2675,2.3139,2.3439,2.3763,2.4022,2.4168,2.4168,2.4422,2.4289,2.3803,2.3763,2.375,2.3701,2.3723,2.3723,2.3736,2.3723,2.3808,2.4048,2.4075,2.4329,2.486,2.4941,2.5037,2.5291,2.5331,2.5371,2.5384,2.5438,2.5491,2.5504,2.5545,2.5651,2.5931,2.5931,2.5797,2.5611,2.5531,2.5665,2.5956,2.6307,2.6738,2.732,2.7848,2.8388,2.8725,2.8871,2.8886,2.8886,2.8886,2.8886,2.8886,2.8886,2.8886,2.8886,2.8886,2.8886,2.8886,2.8886,2.8886,2.8886,2.8886,2.8886,2.8886,2.8886,2.8886,2.8886,2.8886,2.8886,2.8886,2.8886,2.8886,2.8744,2.851,2.8118,2.7726,2.7294,2.6874,2.6623,2.6465,2.64,2.64,2.6413,2.6426,2.5754,2.5754,2.5723,2.5754,2.5754,2.5754,2.5754,2.5754,2.5754,2.5834,2.5945,2.5818,2.5754,2.5739,2.566,2.5244,2.4539,2.3428,2.2533,2.1785,2.0818,2.0391,2.0519,2.0543,2.0603,2.07,2.07,2.07,2.0794,2.1206,2.1873,2.2647,2.3207,2.365,2.4048,2.4315,2.4412,2.4426,2.4546,2.4479,2.4315,2.4275,2.4275,2.4275,2.4275,2.4369,2.4529,2.4579,2.4676,2.4943,2.4983,2.5077,2.5317,2.5331,2.5384,2.5504,2.5518,2.5598,2.5758,2.581,2.5852,2.6012,2.6026,2.6092,2.6238,2.6213,2.6198,2.6066,2.6026,2.6092,2.6225,2.637,2.6699,2.7187,2.7647,2.8118,2.8471,2.8783,2.8886,2.8886,2.8886,2.8886,2.8886,2.8886,2.8886,2.8886,2.8886,2.8886,2.8886,2.8886,2.8886,2.8886,2.8886,2.8886,2.8886,2.8886,2.8886,2.8886,2.8886,2.8886,2.8886,2.8886,2.8861,2.8588,2.8197,2.7805,2.7333,2.6939,2.6584,2.6413,2.64,2.64,2.64,2.6533,2.6627,2.6168,2.6168,2.6168,2.6168,2.6168,2.6168,2.6168,2.6168,2.6168,2.6232,2.6359,2.6327,2.6342,2.6244,2.5825,2.5163,2.4348,2.3139,2.2238,2.1611,2.0786,2.0519,2.0688,2.07,2.07,2.07,2.07,2.0736,2.0868,2.1428,2.2055,2.2726,2.3292,2.3835,2.4306,2.4506,2.4599,2.4599,2.4599,2.4639,2.4743,2.4719,2.4756,2.4719,2.4756,2.4903,2.5184,2.5197,2.5291,2.5491,2.5518,2.5558,2.5625,2.5638,2.5665,2.5745,2.5745,2.5852,2.6105,2.6118,2.6198,2.636,2.64,2.64,2.64,2.64,2.64,2.6373,2.64,2.6373,2.64,2.64,2.6558,2.6939,2.7412,2.7844,2.8275,2.8666,2.8886,2.8886,2.8886,2.8886,2.8886,2.8886,2.8886,2.8886,2.8886,2.8886,2.8886,2.8886,2.8886,2.8886,2.8886,2.8886,2.8886,2.8886,2.8886,2.8886,2.8886,2.8886,2.8847,2.8861,2.8705,2.8392,2.7883,2.756,2.7354,2.6904,2.6613,2.6613,2.6627,2.6627,2.6747,2.6841,2.6921,2.6168,2.6184,2.6216,2.6216,2.6184,2.6232,2.62,2.6247,2.6216,2.6391,2.6661,2.6693,2.6671,2.6575,2.5898,2.5018,2.4018,2.3201,2.2266,2.1274,2.0837,2.0688,2.07,2.07,2.0712,2.0736,2.0736,2.0869,2.1099,2.1675,2.2306,2.2969,2.3372,2.3917,2.4445,2.4586,2.4599,2.4599,2.4613,2.477,2.501,2.505,2.5064,2.509,2.5101,2.5197,2.5451,2.5491,2.5518,2.5531,2.5558,2.5651,2.5944,2.5971,2.6091,2.6279,2.6319,2.6333,2.6386,2.6333,2.6346,2.6386,2.64,2.64,2.64,2.64,2.64,2.64,2.64,2.64,2.64,2.64,2.6544,2.6913,2.7372,2.7805,2.825,2.8588,2.8847,2.8886,2.8886,2.8886,2.8886,2.8886,2.8886,2.8886,2.8886,2.8886,2.8886,2.8886,2.89,2.893,2.893,2.89,2.89,2.8886,2.8886,2.8915,2.893,2.889,2.8744,2.8627,2.846,2.8175,2.7695,2.7409,2.7347,2.7216,2.7015,2.7001,2.7108,2.7135,2.7041,2.7202,2.7282,2.6655,2.6819,2.6852,2.6852,2.6852,2.6819,2.6819,2.6852,2.6852,2.6883,2.6994,2.701,2.6907,2.6651,2.5658,2.4761,2.3899,2.2956,2.2035,2.1207,2.0873,2.07,2.07,2.07,2.0797,2.0942,2.0954,2.1184,2.1583,2.1825,2.2264,2.2891,2.3298,2.3719,2.4179,2.4488,2.4599,2.4613,2.4773,2.497,2.5141,2.5251,2.5451,2.565,2.5451,2.5491,2.5785,2.5798,2.5879,2.6066,2.6066,2.6119,2.6252,2.6239,2.6319,2.636,2.6252,2.6238,2.6372,2.6252,2.6199,2.6373,2.64,2.64,2.64,2.64,2.64,2.64,2.64,2.64,2.64,2.64,2.6465,2.6623,2.6978,2.7412,2.7805,2.8236,2.8588,2.8847,2.8886,2.8886,2.8886,2.8886,2.8886,2.8886,2.8886,2.89,2.89,2.89,2.8988,2.9149,2.9208,2.9281,2.954,2.9105,2.89,2.8959,2.9017,2.8967,2.8852,2.8907,2.8779,2.8151,2.7591,2.7431,2.7446,2.7419,2.7255,2.7268,2.7389,2.7429,2.7296,2.7483,2.7522,2.6833,2.7034,2.7167,2.72,2.72,2.72,2.72,2.72,2.72,2.72,2.72,2.72,2.6967,2.6432,2.5558,2.4631,2.3679,2.2619,2.1794,2.1207,2.0873,2.0749,2.0821,2.0833,2.0966,2.1208,2.1329,2.1559,2.1873,2.1994,2.2349,2.2881,2.3228,2.36,2.3994,2.4377,2.4626,2.4796,2.497,2.5195,2.5382,2.5451,2.5651,2.5904,2.5665,2.5651,2.5984,2.5998,2.6024,2.6092,2.6106,2.6106,2.6106,2.6106,2.6146,2.6252,2.6118,2.6118,2.6359,2.6238,2.6225,2.6373,2.64,2.64,2.64,2.64,2.64,2.64,2.64,2.64,2.64,2.64,2.64,2.6465,2.6742,2.7189,2.7594,2.804,2.8431,2.8822,2.8886,2.8886,2.8886,2.8886,2.8886,2.8886,2.8959,2.9032,2.9047,2.9149,2.9291,2.9525,2.9569,2.9657,2.976,2.9525,2.9379,2.9423,2.9369,2.9247,2.9028,2.9053,2.8802,2.8152,2.7799,2.7621,2.7552,2.7564,2.755,2.7563,2.7657,2.7764,2.7737,2.7764,2.7817,2.67,2.6767,2.7067,2.7167,2.72,2.72,2.72,2.72,2.72,2.72,2.72,2.72,2.6833,2.6197,2.5794,2.4849,2.3611,2.2543,2.1751,2.122,2.0898,2.0892,2.1051,2.1087,2.1244,2.1486,2.1776,2.1897,2.1946,2.2151,2.2471,2.2856,2.3215,2.355,2.397,2.4404,2.4759,2.497,2.5064,2.5396,2.5864,2.5625,2.5638,2.5904,2.5651,2.5625,2.5931,2.5957,2.5812,2.5598,2.5571,2.5531,2.5625,2.5625,2.5692,2.6011,2.6011,2.6145,2.6333,2.6346,2.6332,2.6386,2.64,2.64,2.64,2.64,2.64,2.64,2.64,2.64,2.64,2.64,2.64,2.6426,2.6742,2.7097,2.7569,2.8054,2.8431,2.8769,2.8886,2.8886,2.89,2.8944,2.8973,2.9061,2.9222,2.9423,2.9437,2.9599,2.9818,2.9892,2.9921,2.998,2.995,2.9906,2.9921,2.9921,2.9892,2.976,2.9208,2.9066,2.8755,2.8194,2.7879,2.7699,2.782,2.7831,2.7938,2.7978,2.8058,2.8031,2.8018,2.8005,2.8058,2.6231,2.67,2.68,2.7,2.7167,2.72,2.72,2.72,2.72,2.72,2.72,2.72,2.6967,2.6532,2.6115,2.5408,2.4476,2.3563,2.2493,2.142,2.1301,2.1226,2.1159,2.1305,2.1486,2.1788,2.2054,2.2175,2.2187,2.226,2.2371,2.2558,2.3116,2.3451,2.3674,2.4451,2.493,2.4823,2.5184,2.5398,2.5422,2.5464,2.5558,2.5625,2.5558,2.5478,2.5371,2.5545,2.5598,2.5504,2.5518,2.5598,2.581,2.585,2.5998,2.6225,2.6091,2.6118,2.6306,2.6265,2.6238,2.6333,2.64,2.64,2.64,2.64,2.64,2.64,2.64,2.64,2.64,2.64,2.64,2.64,2.6505,2.6781,2.7307,2.7897,2.8431,2.8822,2.8886,2.8973,2.9164,2.9222,2.9335,2.9525,2.9672,2.9745,2.9774,2.9877,3.0024,3.0185,3.0214,3.0302,3.0305,3.032,3.0334,3.0331,3.0232,2.9917,2.9455,2.9087,2.8772,2.8358,2.7997,2.7926,2.8005,2.8085,2.8152,2.8192,2.8138,2.8138,2.8179,2.8192,2.8192,2.5423,2.6048,2.6231,2.6465,2.68,2.6934,2.7034,2.7034,2.7167,2.72,2.72,2.72,2.7,2.6715,2.654,2.6027,2.5188,2.4615,2.3542,2.2081,2.1772,2.1637,2.1449,2.168,2.1873,2.2042,2.2224,2.2296,2.2308,2.2308,2.2371,2.2595,2.3116,2.3513,2.3674,2.4438,2.4836,2.4813,2.5157,2.5317,2.5264,2.5304,2.5358,2.5344,2.5237,2.509,2.4943,2.5066,2.5146,2.5173,2.5291,2.5451,2.5663,2.5757,2.5957,2.6158,2.6131,2.6118,2.6359,2.6279,2.6225,2.636,2.64,2.64,2.64,2.64,2.64,2.64,2.64,2.64,2.64,2.64,2.64,2.64,2.6386,2.6663,2.7189,2.7957,2.8619,2.9002,2.9232,2.9339,2.9486,2.9613,2.9672,2.9862,3.0009,3.0082,3.0111,3.0199,3.0375,3.0507,3.0551,3.0612,3.0759,3.0746,3.0746,3.07,3.0598,3.01,2.9533,2.9396,2.9133,2.8506,2.8087,2.8073,2.8125,2.8138,2.8192,2.8192,2.8192,2.8192,2.8192,2.8192,2.8192,2.4224,2.4936,2.5322,2.5693,2.6063,2.6465,2.67,2.6767,2.7067,2.72,2.72,2.72,2.7065,2.691,2.7009,2.652,2.5677,2.5361,2.45,2.3207,2.2519,2.2079,2.1922,2.2103,2.2212,2.226,2.2284,2.2296,2.2308,2.2308,2.2483,2.2856,2.3228,2.36,2.3983,2.4391,2.4786,2.4957,2.5064,2.5211,2.5358,2.5184,2.5064,2.5088,2.4836,2.4653,2.4653,2.4719,2.4706,2.4679,2.4997,2.517,2.5211,2.5398,2.5732,2.6065,2.6038,2.6172,2.6333,2.636,2.636,2.6386,2.64,2.64,2.64,2.64,2.64,2.64,2.64,2.64,2.64,2.64,2.64,2.6426,2.6466,2.681,2.7507,2.8273,2.8841,2.9243,2.9661,2.9906,2.9906,2.9936,2.9965,3.0068,3.0273,3.0375,3.0448,3.0525,3.0744,3.0788,3.0729,3.0759,3.0776,3.0776,3.0776,3.0761,3.0703,3.0314,2.9675,2.9481,2.9188,2.8558,2.8192,2.8192,2.8192,2.8192,2.8192,2.8192,2.8192,2.8192,2.8192,2.8192,2.8192,2.2928,2.385,2.419,2.4699,2.5356,2.5981,2.6417,2.6733,2.7034,2.7167,2.72,2.72,2.7292,2.7413,2.7202,2.6775,2.618,2.5605,2.4674,2.3523,2.2926,2.251,2.2262,2.226,2.2308,2.2308,2.2308,2.2308,2.2308,2.2308,2.252,2.2893,2.3265,2.3587,2.402,2.465,2.4826,2.481,2.4983,2.4983,2.4839,2.4786,2.4719,2.4706,2.4639,2.4599,2.4626,2.485,2.4957,2.497,2.5024,2.5329,2.569,2.5824,2.5998,2.6186,2.6266,2.6293,2.636,2.64,2.64,2.64,2.64,2.64,2.64,2.64,2.64,2.64,2.64,2.64,2.64,2.64,2.648,2.6667,2.672,2.692,2.7521,2.8169,2.8809,2.9226,2.9676,2.9957,3.0199,3.0273,3.0346,3.0481,3.0583,3.0671,3.0671,3.07,3.0776,3.0776,3.0788,3.0761,3.0776,3.0776,3.0776,3.0776,3.0719,3.0553,2.9913,2.9439,2.8936,2.8305,2.8221,2.8192,2.8192,2.8192,2.8192,2.8192,2.8192,2.8192,2.8192,2.8192,2.8192,2.1484,2.2516,2.303,2.3679,2.4394,2.5274,2.5947,2.6465,2.6833,2.71,2.7199,2.7342,2.7433,2.7419,2.7338,2.6893,2.6222,2.556,2.4611,2.3516,2.288,2.2508,2.2334,2.2308,2.2308,2.2308,2.2308,2.2308,2.2308,2.2308,2.2595,2.3042,2.329,2.3661,2.4267,2.4597,2.4786,2.4666,2.481,2.4759,2.4613,2.4599,2.4599,2.4599,2.4599,2.4639,2.4823,2.4997,2.5077,2.513,2.5304,2.565,2.5944,2.6118,2.6252,2.6386,2.64,2.6386,2.64,2.64,2.64,2.64,2.64,2.64,2.64,2.64,2.64,2.64,2.64,2.64,2.6413,2.6493,2.6707,2.6961,2.7108,2.7297,2.7648,2.8179,2.8739,2.9286,2.9754,3.0156,3.0498,3.0539,3.0627,3.0744,3.0717,3.0746,3.0761,3.0776,3.0776,3.0776,3.0776,3.0776,3.0776,3.0776,3.0776,3.0776,3.0776,3.0624,3.0206,2.9537,2.895,2.8529,2.8361,2.8192,2.8192,2.8192,2.8192,2.8192,2.8192,2.8192,2.8192,2.8192,2.8192,2.0028,2.1034,2.1794,2.2551,2.3338,2.4428,2.5288,2.5977,2.6494,2.6878,2.7125,2.746,2.7392,2.7099,2.713,2.6792,2.579,2.5121,2.4261,2.3339,2.2669,2.2346,2.2346,2.2308,2.2308,2.2308,2.2308,2.2308,2.2308,2.2308,2.2707,2.3191,2.3401,2.3846,2.4377,2.4626,2.4599,2.4599,2.4626,2.4639,2.4599,2.4599,2.4599,2.4599,2.4599,2.4783,2.4983,2.5155,2.5208,2.5184,2.5717,2.5957,2.6065,2.6305,2.6373,2.6386,2.64,2.64,2.64,2.64,2.64,2.64,2.64,2.64,2.64,2.64,2.64,2.64,2.64,2.6413,2.652,2.672,2.7028,2.7295,2.7549,2.7795,2.7934,2.8222,2.8758,2.9516,2.9883,3.0345,3.0582,3.079,3.0776,3.0746,3.0776,3.0776,3.0776,3.0776,3.0776,3.0776,3.0776,3.0776,3.0776,3.0776,3.0776,3.0776,3.0776,3.0665,3.0373,2.983,2.9202,2.8782,2.8571,2.8361,2.8192,2.8192,2.8192,2.8192,2.8192,2.8192,2.8192,2.8192,2.8192,1.8947,1.9576,2.0619,2.1462,2.231,2.3577,2.4563,2.5333,2.6201,2.6614,2.6793,2.7085,2.7118,2.6959,2.6463,2.5919,2.5171,2.4288,2.3327,2.2632,2.2446,2.2296,2.2308,2.2308,2.2308,2.2308,2.2308,2.2308,2.2308,2.2371,2.2669,2.329,2.3438,2.3809,2.4488,2.4599,2.4599,2.4599,2.4599,2.4599,2.4599,2.4599,2.4599,2.4599,2.4613,2.481,2.5064,2.5304,2.5531,2.5784,2.5931,2.6118,2.6239,2.6346,2.6386,2.64,2.64,2.64,2.64,2.64,2.64,2.64,2.64,2.64,2.64,2.64,2.64,2.64,2.64,2.652,2.676,2.7215,2.7455,2.7629,2.7884,2.8087,2.8172,2.8464,2.8784,2.9105,2.969,3.0221,3.0346,3.0665,3.0749,3.0776,3.0776,3.0776,3.0776,3.0776,3.0776,3.0776,3.0776,3.0776,3.0776,3.0776,3.0776,3.0776,3.0776,3.0776,3.0499,3.0248,2.9705,2.9202,2.8782,2.8571,2.8361,2.8192,2.8192,2.8192,2.8192,2.8192,2.8192,2.8192,2.8192,1.8117,1.8598,1.9866,2.0807,2.1602,2.2783,2.3935,2.487,2.5478,2.5983,2.6265,2.6428,2.6396,2.6164,2.555,2.4952,2.4251,2.3364,2.2707,2.2371,2.2296,2.2296,2.2308,2.2308,2.2308,2.2308,2.2308,2.2308,2.2308,2.2371,2.2669,2.3364,2.3401,2.3809,2.4488,2.4599,2.4599,2.4599,2.4599,2.4599,2.4599,2.4599,2.4599,2.4639,2.4733,2.4983,2.5277,2.5571,2.5891,2.6118,2.6198,2.6226,2.6346,2.64,2.64,2.64,2.64,2.64,2.64,2.64,2.64,2.64,2.64,2.64,2.64,2.64,2.64,2.6426,2.6547,2.676,2.7175,2.7442,2.7722,2.7909,2.8085,2.8179,2.8221,2.8389,2.8613,2.8866,2.9398,2.9872,3.0206,3.054,3.0749,3.0776,3.0776,3.0776,3.0776,3.0776,3.0776,3.0776,3.0776,3.0776,3.0776,3.0776,3.0776,3.0776,3.0776,3.0776,3.0651,3.0457,3.0248,2.9747,2.9202,2.8782,2.8571,2.8403,2.8234,2.8192,2.8192,2.8192,2.8192,2.8192,2.8192,1.7555,1.8012,1.9412,2.0333,2.104,2.2112,2.3346,2.4396,2.4634,2.5073,2.5534,2.5612,2.5444,2.5065,2.4622,2.3981,2.3253,2.2744,2.2334,2.2334,2.2308,2.2308,2.2308,2.2308,2.2308,2.2308,2.2308,2.2308,2.2308,2.2371,2.2707,2.329,2.3401,2.3846,2.4414,2.4599,2.4599,2.4599,2.4599,2.4599,2.4599,2.4599,2.4613,2.4783,2.4917,2.5237,2.5531,2.5812,2.6105,2.636,2.64,2.64,2.64,2.64,2.64,2.64,2.64,2.64,2.64,2.64,2.64,2.64,2.64,2.64,2.64,2.64,2.644,2.6587,2.6774,2.712,2.7629,2.7776,2.7938,2.8098,2.8179,2.8192,2.8192,2.8192,2.8403,2.8655,2.9188,2.9691,3.0081,3.0415,3.0624,3.0776,3.0776,3.0776,3.0776,3.0776,3.0776,3.0776,3.0776,3.0776,3.0776,3.0776,3.0776,3.0776,3.0776,3.0776,3.0776,3.0651,3.0457,3.0123,2.9635,2.9202,2.8824,2.8571,2.8445,2.8276,2.8192,2.8192,2.8192,2.8192,2.8192,1.752,1.7987,1.9003,1.9859,2.0663,2.1674,2.2597,2.3389,2.3972,2.4269,2.4417,2.4688,2.4553,2.4188,2.3795,2.3178,2.2632,2.2371,2.2308,2.2308,2.2308,2.2308,2.2308,2.2308,2.2308,2.2308,2.2308,2.2308,2.2308,2.2334,2.2707,2.3253,2.3401,2.3809,2.4377,2.4599,2.4599,2.4599,2.4599,2.4599,2.4599,2.4613,2.4719,2.493,2.5077,2.5409,2.5797,2.5971,2.6131,2.636,2.6386,2.64,2.64,2.64,2.64,2.64,2.64,2.64,2.64,2.64,2.64,2.64,2.64,2.64,2.64,2.6426,2.656,2.6854,2.7201,2.7589,2.7682,2.7938,2.8085,2.8179,2.8192,2.8192,2.8192,2.8234,2.8234,2.8445,2.8978,2.9523,2.9858,3.0248,3.0582,3.0734,3.0776,3.0776,3.0776,3.0776,3.0776,3.0776,3.0776,3.0776,3.0776,3.0776,3.0776,3.0776,3.0776,3.0776,3.0776,3.0776,3.0624,3.0332,3.0054,2.9663,2.9244,2.8908,2.8613,2.8431,2.8305,2.8234,2.8192,2.8192,2.8192,1.7555,1.7998,1.8905,1.9723,2.0481,2.1257,2.2153,2.2984,2.3367,2.3603,2.3678,2.3708,2.3624,2.3377,2.3005,2.2595,2.2371,2.2308,2.2308,2.2308,2.2308,2.2308,2.2308,2.2308,2.2308,2.2308,2.2308,2.2308,2.2308,2.2308,2.2707,2.3215,2.3401,2.3809,2.4414,2.4599,2.4599,2.4599,2.4599,2.4599,2.4599,2.4599,2.4796,2.5024,2.5251,2.5569,2.5904,2.6172,2.6279,2.636,2.6386,2.64,2.64,2.64,2.64,2.64,2.64,2.64,2.64,2.64,2.64,2.64,2.64,2.64,2.644,2.6547,2.6814,2.7215,2.7428,2.7776,2.7965,2.8098,2.8165,2.8192,2.8192,2.8192,2.8192,2.8192,2.8192,2.8234,2.8684,2.9188,2.9607,3.0039,3.0499,3.0707,3.0776,3.0776,3.0776,3.0776,3.0776,3.0776,3.0776,3.0776,3.0776,3.0776,3.0776,3.0776,3.0776,3.0776,3.0776,3.0776,3.0734,3.0582,3.029,2.9998,2.9788,2.9453,2.9034,2.8642,2.8613,2.8529,2.8318,2.8192,2.8234,1.7555,1.8068,1.8924,1.962,2.0256,2.098,2.1769,2.257,2.2769,2.2943,2.3116,2.293,2.2819,2.2707,2.252,2.2308,2.2308,2.2308,2.2308,2.2308,2.2308,2.2308,2.2308,2.2308,2.2308,2.2308,2.2308,2.2308,2.2308,2.2308,2.2744,2.3215,2.3401,2.3809,2.4414,2.4599,2.4599,2.4599,2.4599,2.4599,2.4599,2.4666,2.4863,2.5157,2.5451,2.5784,2.6105,2.6239,2.6346,2.6386,2.64,2.64,2.64,2.64,2.64,2.64,2.64,2.64,2.64,2.64,2.64,2.64,2.64,2.6413,2.6587,2.6854,2.7201,2.7602,2.7789,2.7883,2.8098,2.8179,2.8192,2.8192,2.8192,2.8192,2.8192,2.8192,2.8192,2.8318,2.8571,2.895,2.9439,2.9914,3.0415,3.0707,3.0776,3.0776,3.0776,3.0776,3.0776,3.0776,3.0776,3.0776,3.0776,3.0776,3.0776,3.0776,3.0776,3.0776,3.0776,3.0776,3.0734,3.0692,3.0582,3.0332,3.0123,2.9914,2.9495,2.916,2.9034,2.8824,2.8571,2.8403,2.8403,1.7696,1.8395,1.8918,1.9377,1.9902,2.0723,2.14,2.1885,2.2259,2.2371,2.252,2.2408,2.2408,2.2371,2.2371,2.2308,2.2308,2.2308,2.2308,2.2308,2.2308,2.2308,2.2308,2.2308,2.2308,2.2308,2.2308,2.2308,2.2308,2.2308,2.2707,2.3253,2.3475,2.3809,2.4525,2.4599,2.4599,2.4599,2.4599,2.4599,2.4653,2.489,2.5144,2.5451,2.5718,2.6038,2.6279,2.636,2.6386,2.64,2.64,2.64,2.64,2.64,2.64,2.64,2.64,2.64,2.64,2.64,2.64,2.64,2.64,2.652,2.68,2.7201,2.7549,2.7655,2.7951,2.8098,2.8165,2.8179,2.8192,2.8192,2.8192,2.8192,2.8192,2.8192,2.8192,2.8234,2.8403,2.8908,2.9398,2.9872,3.0332,3.0624,3.0776,3.0776,3.0776,3.0776,3.0776,3.0776,3.0776,3.0776,3.0776,3.0776,3.0776,3.0776,3.0776,3.0776,3.0776,3.0776,3.0776,3.0734,3.0665,3.0582,3.0373,3.0123,2.9872,2.9663,2.9453,2.916,2.8824,2.8697,2.8655,1.7625,1.8184,1.8692,1.9242,1.9759,2.0547,2.1195,2.1723,2.2109,2.2308,2.2308,2.2308,2.2308,2.2308,2.2308,2.2308,2.2308,2.2308,2.2308,2.2308,2.2308,2.2308,2.2308,2.2308,2.2308,2.2308,2.2308,2.2308,2.2308,2.2371,2.2669,2.329,2.3438,2.3809,2.4525,2.4599,2.4599,2.4599,2.4613,2.473,2.4877,2.5037,2.5342,2.5732,2.5931,2.6158,2.6319,2.64,2.64,2.64,2.64,2.64,2.64,2.64,2.64,2.64,2.64,2.64,2.64,2.64,2.64,2.64,2.6426,2.6587,2.7014,2.7442,2.7802,2.7991,2.8098,2.8179,2.8192,2.8192,2.8192,2.8192,2.8192,2.8192,2.8192,2.8192,2.8192,2.8192,2.8263,2.881,2.9272,2.9663,3.0165,3.0665,3.0776,3.0776,3.0776,3.0776,3.0776,3.0776,3.0776,3.0776,3.0776,3.0776,3.0776,3.0776,3.0776,3.0776,3.0776,3.0776,3.0776,3.0776,3.0734,3.0665,3.054,3.0457,3.029,3.0081,2.9914,2.9579,2.9286,2.9188,2.9062,1.7485,1.7822,1.8503,1.9098,1.9602,2.0337,2.1006,2.1574,2.2072,2.2308,2.2308,2.2308,2.2308,2.2308,2.2308,2.2308,2.2308,2.2308,2.2308,2.2308,2.2308,2.2308,2.2308,2.2308,2.2308,2.2308,2.2308,2.2308,2.2308,2.2371,2.2669,2.3377,2.3401,2.3859,2.4377,2.4599,2.4599,2.4599,2.4599,2.4783,2.5024,2.5195,2.5529,2.585,2.6078,2.6212,2.6346,2.64,2.64,2.64,2.64,2.64,2.64,2.64,2.64,2.64,2.64,2.64,2.64,2.64,2.64,2.644,2.664,2.6894,2.7188,2.7562,2.7898,2.8138,2.8165,2.8179,2.8192,2.8192,2.8192,2.8192,2.8192,2.8192,2.8192,2.8192,2.8192,2.8192,2.8347,2.8726,2.9146,2.9411,2.99,3.0567,3.0776,3.0776,3.0776,3.0776,3.0776,3.0776,3.0776,3.0776,3.0776,3.0776,3.0776,3.0776,3.0776,3.0776,3.0776,3.0776,3.0776,3.0776,3.0776,3.0734,3.0665,3.0692,3.0692,3.0499,3.029,3.0081,2.9872,2.9691,2.9356,1.7308,1.7434,1.8396,1.8907,1.9227,2.0275,2.0857,2.1225,2.196,2.2308,2.2308,2.2308,2.2308,2.2308,2.2308,2.2308,2.2308,2.2308,2.2308,2.2308,2.2308,2.2308,2.2308,2.2308,2.2308,2.2308,2.2308,2.2308,2.2308,2.2308,2.2744,2.3302,2.3401,2.3933,2.4377,2.4599,2.4599,2.4613,2.4639,2.485,2.5117,2.5358,2.5703,2.5984,2.6252,2.6373,2.64,2.64,2.64,2.64,2.64,2.64,2.64,2.64,2.64,2.64,2.64,2.64,2.64,2.64,2.64,2.6533,2.6814,2.7162,2.7309,2.7844,2.8125,2.8221,2.8179,2.8192,2.8192,2.8192,2.8192,2.8192,2.8192,2.8192,2.8192,2.8192,2.8192,2.8192,2.8389,2.8726,2.9104,2.9453,2.9956,3.0609,3.0776,3.0776,3.0776,3.0776,3.0776,3.0776,3.0776,3.0776,3.0776,3.0776,3.0776,3.0776,3.0776,3.0776,3.0776,3.0776,3.0776,3.0776,3.0776,3.0776,3.0776,3.0776,3.0776,3.0776,3.0651,3.0415,3.0165,2.9914,2.9481,1.7308,1.7389,1.8213,1.8667,1.9011,2.0014,2.0617,2.1017,2.1888,2.2308,2.2308,2.2308,2.2308,2.2308,2.2308,2.2308,2.2308,2.2308,2.2308,2.2308,2.2308,2.2308,2.2308,2.2308,2.2308,2.2308,2.2308,2.2308,2.2308,2.2308,2.2781,2.3178,2.3401,2.3933,2.4341,2.4599,2.4599,2.4666,2.4799,2.505,2.5344,2.5677,2.5971,2.6252,2.6319,2.6386,2.64,2.64,2.64,2.64,2.64,2.64,2.64,2.64,2.64,2.64,2.64,2.64,2.64,2.64,2.64,2.6507,2.6934,2.7309,2.7336,2.7844,2.8125,2.8179,2.8192,2.8192,2.8192,2.8192,2.8192,2.8192,2.8192,2.8192,2.8192,2.8192,2.8192,2.8192,2.8347,2.8558,2.902,2.9495,3.0081,3.0624,3.0734,3.0776,3.0776,3.0776,3.0776,3.0776,3.0776,3.0776,3.0776,3.0776,3.0776,3.0776,3.0776,3.0776,3.0776,3.0776,3.0776,3.0776,3.0776,3.0776,3.0776,3.0776,3.0776,3.0776,3.0776,3.0707,3.0457,3.0165,2.9788,1.7379,1.7555,1.8153,1.8609,1.9049,1.9825,2.0447,2.0966,2.1794,2.2236,2.2296,2.2308,2.2308,2.2308,2.2308,2.2308,2.2308,2.2308,2.2308,2.2308,2.2308,2.2308,2.2308,2.2308,2.2308,2.2308,2.2308,2.2308,2.2308,2.2308,2.2744,2.3178,2.3438,2.3896,2.4414,2.4599,2.4639,2.4823,2.497,2.5304,2.5611,2.5877,2.6118,2.6319,2.6386,2.6386,2.64,2.64,2.64,2.64,2.64,2.64,2.64,2.64,2.64,2.64,2.64,2.64,2.64,2.64,2.64,2.6466,2.6974,2.7242,2.7443,2.7831,2.8152,2.8192,2.8192,2.8192,2.8192,2.8192,2.8192,2.8192,2.8192,2.8192,2.8192,2.8192,2.8192,2.8192,2.8347,2.8473,2.9034,2.9495,3.0123,3.0624,3.0734,3.0776,3.0776,3.0776,3.0776,3.0776,3.0776,3.0776,3.0776,3.0776,3.0776,3.0776,3.0776,3.0776,3.0776,3.0776,3.0776,3.0776,3.0776,3.0776,3.0776,3.0776,3.0776,3.0776,3.0776,3.079,3.0734,3.0457,3.0206,1.752,1.7896,1.8258,1.875,1.9302,1.9727,2.0406,2.1189,2.1737,2.2103,2.2284,2.2308,2.2308,2.2308,2.2308,2.2308,2.2308,2.2308,2.2308,2.2308,2.2308,2.2308,2.2308,2.2308,2.2308,2.2308,2.2308,2.2308,2.2308,2.2308,2.2744,2.3253,2.355,2.3896,2.4562,2.4613,2.4796,2.5024,2.5077,2.5516,2.5824,2.6011,2.6186,2.6319,2.64,2.64,2.64,2.64,2.64,2.64,2.64,2.64,2.64,2.64,2.64,2.64,2.64,2.64,2.64,2.64,2.64,2.6466,2.6961,2.7269,2.7416,2.7791,2.8179,2.8192,2.8192,2.8192,2.8192,2.8192,2.8192,2.8192,2.8192,2.8192,2.8192,2.8192,2.8192,2.8192,2.8221,2.8389,2.895,2.9537,3.0165,3.0582,3.0734,3.0776,3.0776,3.0776,3.0776,3.0776,3.0776,3.0776,3.0776,3.0776,3.0776,3.0776,3.0776,3.0776,3.0776,3.0776,3.0776,3.0776,3.0776,3.0776,3.0776,3.0776,3.0776,3.0776,3.0776,3.0776,3.0776,3.0692,3.0415,1.7545,1.7931,1.8538,1.9073,1.9525,1.979,2.0339,2.111,2.1798,2.2212,2.2284,2.2308,2.2308,2.2308,2.2308,2.2308,2.2308,2.2308,2.2308,2.2308,2.2308,2.2308,2.2308,2.2308,2.2308,2.2308,2.2308,2.2308,2.2308,2.2308,2.2744,2.3253,2.3846,2.4304,2.4592,2.4746,2.501,2.5181,2.5462,2.5824,2.5998,2.6172,2.6279,2.64,2.64,2.64,2.64,2.64,2.64,2.64,2.64,2.64,2.64,2.64,2.64,2.64,2.64,2.64,2.64,2.64,2.64,2.6573,2.6907,2.7255,2.7362,2.7857,2.8098,2.8192,2.8192,2.8192,2.8192,2.8192,2.8192,2.8192,2.8192,2.8192,2.8192,2.8192,2.8192,2.8192,2.8221,2.8445,2.8866,2.9328,2.9956,3.0415,3.0582,3.0734,3.0776,3.0776,3.0776,3.0776,3.0776,3.0776,3.0776,3.0776,3.0776,3.0776,3.0776,3.0776,3.0776,3.0776,3.0776,3.0776,3.0776,3.0776,3.0776,3.0776,3.0776,3.0776,3.0776,3.0776,3.0776,3.0734,3.0582,1.759,1.8107,1.8738,1.9227,1.961,1.9876,2.0414,2.1149,2.1943,2.2308,2.2308,2.2308,2.2308,2.2308,2.2308,2.2308,2.2308,2.2308,2.2308,2.2308,2.2308,2.2308,2.2308,2.2308,2.2308,2.2308,2.2308,2.2308,2.2308,2.2308,2.2707,2.3401,2.4193,2.4568,2.4773,2.4983,2.513,2.5317,2.569,2.6011,2.6172,2.6266,2.6373,2.64,2.64,2.64,2.64,2.64,2.64,2.64,2.64,2.64,2.64,2.64,2.64,2.64,2.64,2.64,2.64,2.64,2.64,2.6426,2.6867,2.7134,2.7336,2.7737,2.8018,2.8138,2.8179,2.8192,2.8192,2.8192,2.8192,2.8192,2.8192,2.8192,2.8192,2.8192,2.8192,2.8192,2.8234,2.8487,2.8697,2.916,2.9677,3.0054,3.043,3.0582,3.0776,3.0776,3.0776,3.0776,3.0776,3.0776,3.0776,3.0776,3.0776,3.0776,3.0776,3.0776,3.0776,3.0776,3.0776,3.0776,3.0776,3.0776,3.0776,3.0776,3.0776,3.0776,3.0776,3.0776,3.0776,3.0734,3.0665,1.7731,1.8398,1.8854,1.9262,1.9611,2.0017,2.0662,2.151,2.2054,2.2284,2.2308,2.2308,2.2308,2.2308,2.2308,2.2308,2.2308,2.2308,2.2308,2.2308,2.2308,2.2308,2.2308,2.2308,2.2308,2.2308,2.2308,2.2308,2.2308,2.252,2.2893,2.3464,2.4295,2.4711,2.4983,2.5184,2.5331,2.5585,2.5852,2.6172,2.6293,2.636,2.64,2.64,2.64,2.64,2.64,2.64,2.64,2.64,2.64,2.64,2.64,2.64,2.64,2.64,2.64,2.64,2.64,2.64,2.64,2.6413,2.6627,2.6934,2.7268,2.763,2.7911,2.8098,2.8192,2.8192,2.8192,2.8192,2.8192,2.8192,2.8192,2.8192,2.8192,2.8192,2.8192,2.8192,2.8192,2.8361,2.8571,2.8992,2.937,2.983,3.0206,3.054,3.0707,3.0776,3.0776,3.0776,3.0776,3.0776,3.0776,3.0776,3.0776,3.0776,3.0776,3.0776,3.0776,3.0776,3.0776,3.0776,3.0776,3.0776,3.0776,3.0776,3.0776,3.0776,3.0776,3.0776,3.0776,3.0776,3.0734,1.8012,1.8468,1.9168,1.9506,1.9703,2.0473,2.1089,2.151,2.1885,2.2103,2.2308,2.2308,2.2308,2.2308,2.2308,2.2308,2.2308,2.2308,2.2308,2.2308,2.2308,2.2308,2.2308,2.2308,2.2308,2.2308,2.2308,2.2308,2.2446,2.2669,2.3042,2.3501,2.4363,2.4871,2.5197,2.5516,2.5703,2.5891,2.6106,2.6253,2.636,2.6386,2.64,2.64,2.64,2.64,2.64,2.64,2.64,2.64,2.64,2.64,2.64,2.64,2.64,2.64,2.64,2.64,2.64,2.64,2.64,2.64,2.6493,2.6841,2.7202,2.7509,2.7789,2.8005,2.8165,2.8192,2.8192,2.8192,2.8192,2.8192,2.8192,2.8192,2.8192,2.8192,2.8192,2.8192,2.8192,2.8234,2.8487,2.8655,2.9076,2.9579,2.9998,3.0332,3.0624,3.0734,3.0776,3.0776,3.0776,3.0776,3.0776,3.0776,3.0776,3.0776,3.0776,3.0776,3.0776,3.0776,3.0776,3.0776,3.0776,3.0776,3.0776,3.0776,3.0776,3.0776,3.0776,3.0776,3.0776,3.0776,3.0776,1.8188,1.8714,1.9297,1.9715,2.0133,2.0695,2.1148,2.151,2.1788,2.2054,2.2284,2.2308,2.2308,2.2308,2.2308,2.2308,2.2308,2.2308,2.2308,2.2308,2.2308,2.2308,2.2308,2.2308,2.2308,2.2308,2.2308,2.2308,2.2446,2.2819,2.3191,2.3476,2.4444,2.4942,2.5306,2.5703,2.6011,2.6158,2.6266,2.6373,2.64,2.64,2.64,2.64,2.64,2.64,2.64,2.64,2.64,2.64,2.64,2.64,2.64,2.64,2.64,2.64,2.64,2.64,2.64,2.64,2.64,2.64,2.64,2.664,2.6974,2.7308,2.7615,2.7856,2.8072,2.8192,2.8192,2.8192,2.8192,2.8192,2.8192,2.8192,2.8192,2.8192,2.8192,2.8192,2.8192,2.8192,2.8305,2.8473,2.8768,2.9356,2.9816,3.015,3.0484,3.0734,3.0776,3.0776,3.0776,3.0776,3.0776,3.0776,3.0776,3.0776,3.0776,3.0776,3.0776,3.0776,3.0776,3.0776,3.0776,3.0776,3.0776,3.0776,3.0776,3.0776,3.0776,3.0776,3.0776,3.0776,3.0776,1.8387,1.9028,1.9401,1.9994,2.0631,2.0724,2.1015,2.1474,2.1752,2.203,2.226,2.2308,2.2308,2.2308,2.2308,2.2308,2.2308,2.2308,2.2308,2.2308,2.2308,2.2308,2.2308,2.2308,2.2308,2.2308,2.2308,2.2308,2.2408,2.2756,2.3166,2.3452,2.4246,2.4936,2.5546,2.5879,2.6185,2.6293,2.6346,2.64,2.64,2.64,2.64,2.64,2.64,2.64,2.64,2.64,2.64,2.64,2.64,2.64,2.64,2.64,2.64,2.64,2.64,2.64,2.64,2.64,2.64,2.64,2.64,2.6533,2.68,2.7068,2.7348,2.7722,2.7951,2.8112,2.8138,2.8179,2.8192,2.8192,2.8192,2.8192,2.8192,2.8192,2.8192,2.8192,2.8192,2.8192,2.8234,2.8389,2.8726,2.923,2.9607,2.9942,3.0401,3.0734,3.0776,3.0776,3.0776,3.0776,3.0776,3.0776,3.0776,3.0776,3.0776,3.0776,3.0776,3.0776,3.0776,3.0776,3.0776,3.0776,3.0776,3.0776,3.0776,3.0776,3.0776,3.0776,3.0776,3.0776,3.0776,1.8808,1.9052,1.9692,2.0249,2.0665,2.07,2.1015,2.1474,2.1535,2.1885,2.2248,2.2308,2.2308,2.2308,2.2308,2.2308,2.2308,2.2308,2.2308,2.2308,2.2308,2.2308,2.2308,2.2308,2.2308,2.2308,2.2308,2.2308,2.2383,2.2731,2.3242,2.3807,2.4454,2.5085,2.5798,2.6131,2.6306,2.64,2.64,2.64,2.64,2.64,2.64,2.64,2.64,2.64,2.64,2.64,2.64,2.64,2.64,2.64,2.64,2.64,2.64,2.64,2.64,2.64,2.64,2.64,2.64,2.64,2.64,2.6426,2.656,2.68,2.7094,2.7495,2.7789,2.7991,2.8125,2.8152,2.8192,2.8192,2.8192,2.8192,2.8192,2.8192,2.8192,2.8192,2.8192,2.8192,2.8192,2.8403,2.874,2.9076,2.9398,2.9774,3.0401,3.0776,3.0776,3.0776,3.0776,3.0776,3.0776,3.0776,3.0776,3.0776,3.0776,3.0776,3.0776,3.0776,3.0776,3.0776,3.0776,3.0776,3.0776,3.0776,3.0776,3.0776,3.0776,3.0776,3.0776,3.0776,3.0776,1.9192,1.9552,2.011,2.0492,2.0665,2.07,2.1015,2.1414,2.1474,2.1813,2.226,2.2308,2.2308,2.2308,2.2308,2.2308,2.2308,2.2308,2.2308,2.2308,2.2308,2.2308,2.2308,2.2308,2.2308,2.2308,2.2308,2.2308,2.2346,2.2679,2.3166,2.3896,2.4534,2.5205,2.5921,2.6226,2.64,2.64,2.64,2.64,2.64,2.64,2.64,2.64,2.64,2.64,2.64,2.64,2.64,2.64,2.64,2.64,2.64,2.64,2.64,2.64,2.64,2.64,2.64,2.64,2.64,2.64,2.64,2.6426,2.6413,2.6653,2.6894,2.7281,2.7642,2.7829,2.8098,2.8179,2.8192,2.8192,2.8192,2.8192,2.8192,2.8192,2.8192,2.8192,2.8192,2.8192,2.8192,2.8234,2.8613,2.9188,2.9481,2.983,3.0401,3.0776,3.0776,3.0776,3.0776,3.0776,3.0776,3.0776,3.0776,3.0776,3.0776,3.0776,3.0776,3.0776,3.0776,3.0776,3.0776,3.0776,3.0776,3.0776,3.0776,3.0776,3.0776,3.0776,3.0776,3.0776,3.0776,1.9517,2.0179,2.0527,2.07,2.0712,2.0749,2.1039,2.1474,2.1559,2.1837,2.226,2.2308,2.2308,2.2308,2.2308,2.2308,2.2308,2.2308,2.2308,2.2308,2.2308,2.2308,2.2308,2.2308,2.2308,2.2308,2.2308,2.2308,2.2308,2.2652,2.3151,2.3896,2.4534,2.514,2.5831,2.6226,2.64,2.64,2.64,2.64,2.64,2.64,2.64,2.64,2.64,2.64,2.64,2.64,2.64,2.64,2.64,2.64,2.64,2.64,2.64,2.64,2.64,2.64,2.64,2.64,2.64,2.64,2.64,2.64,2.64,2.652,2.676,2.7054,2.7415,2.7722,2.7978,2.8165,2.8165,2.8192,2.8192,2.8192,2.8192,2.8192,2.8192,2.8192,2.8192,2.8192,2.8192,2.8192,2.8558,2.9146,2.9649,3.0067,3.0457,3.0651,3.0776,3.0776,3.0776,3.0776,3.0776,3.0776,3.0776,3.0776,3.0776,3.0776,3.0776,3.0776,3.0776,3.0776,3.0776,3.0776,3.0776,3.0776,3.0776,3.0776,3.0776,3.0776,3.0776,3.0776,3.0776,1.9854,2.0596,2.0665,2.07,2.0724,2.093,2.1208,2.1486,2.174,2.2018,2.2236,2.2308,2.2308,2.2308,2.2308,2.2308,2.2308,2.2308,2.2308,2.2308,2.2308,2.2308,2.2308,2.2308,2.2308,2.2308,2.2308,2.2308,2.2417,2.2648,2.3236,2.4188,2.4494,2.5231,2.6175,2.64,2.64,2.64,2.64,2.64,2.64,2.64,2.64,2.64,2.64,2.64,2.64,2.64,2.64,2.64,2.64,2.64,2.64,2.64,2.64,2.64,2.64,2.64,2.64,2.64,2.64,2.64,2.64,2.64,2.64,2.64,2.6627,2.6827,2.7175,2.7482,2.7777,2.8045,2.8125,2.8165,2.8192,2.8192,2.8192,2.8192,2.8192,2.8192,2.8192,2.8192,2.8192,2.8276,2.8389,2.8936,2.9398,2.9816,3.029,3.054,3.0776,3.0776,3.0776,3.0776,3.0776,3.0776,3.0776,3.0776,3.0776,3.0776,3.0776,3.0776,3.0776,3.0776,3.0776,3.0776,3.0776,3.0776,3.0776,3.0776,3.0776,3.0776,3.0776,3.0776,3.0776]},{"header":{"parameterUnit":"m.s-1","parameterCategory":1,"la1":31.0,"la2":29.5877,"lo1":-88.7671,"lo2":-86.6584,"dy":0.0162,"dx":0.0185,"nx":115,"ny":88,"refTime":"2023-09-17T06:00:00:Z","depth":0,"parameterNumber":3,"parameterNumberName":"V-component_of_WINDS"},"data":[0.0,0.0,0.0,0.0,0.0,0.0,0.0,0.0,0.0,0.0,0.0,0.0,0.0,0.0,0.0,0.0,0.0,0.0,0.0,0.0,0.0,0.0,0.0,0.0,0.0,0.0,0.0,0.0,0.0,0.0,0.0,0.0,0.0,0.0,0.0,0.0,0.0,0.0,0.0,0.0,0.0,0.0,0.0,0.0,0.0,0.0,0.0,0.0,0.0,0.0,0.0,0.0,0.0,0.0,0.0,0.0,0.0,0.0,0.0,0.0,0.0,0.0,0.0,0.0,0.0,0.0,0.0,0.0,0.0,0.0,0.0,0.0,0.0,0.0,0.0,0.0,0.0,0.0,0.0,0.0,0.0,0.0,0.0,0.0,0.0,0.0,0.0,0.0,0.0,0.0,0.0,0.0,0.0,0.0,0.0,0.0,0.0,0.0,0.0,0.0,0.0,0.0,0.0,0.0,0.0,0.0,0.0,0.0,0.0,0.0,0.0,0.0,0.0,0.0,0.0,0.0,0.0,0.0,0.0,0.0,0.0,0.0,0.0,0.0,0.0,0.0,0.0,0.0,0.0,0.0,0.0,0.0,0.0,0.0,0.0,0.0,0.0,0.0,0.0,0.0,0.0,0.0,0.0,0.0,0.0,0.0,0.0,0.0,0.0,0.0,0.0,0.0,0.0,0.0,0.0,0.0,0.0,0.0,0.0,0.0,0.0,0.0,0.0,0.0,0.0,0.0,0.0,0.0,0.0,0.0,0.0,0.0,0.0,0.0,0.0,0.0,0.0,0.0,0.0,0.0,0.0,0.0,0.0,0.0,0.0,0.0,0.0,0.0,0.0,0.0,0.0,0.0,0.0,0.0,0.0,0.0,0.0,0.0,0.0,0.0,0.0,0.0,0.0,0.0,0.0,0.0,0.0,0.0,0.0,0.0,0.0,0.0,0.0,0.0,0.0,0.0,0.0,0.0,0.0,0.0,0.0,0.0,0.0,0.0,0.0,0.0,0.0,0.0,0.0,0.0,0.0,0.0,0.0,0.0,0.0,0.0,0.0,0.0,0.0,0.0,0.0,0.0,0.0,0.0,0.0,0.0,0.0,0.0,0.0,0.0,0.0,0.0,0.0,0.0,0.0,0.0,0.0,0.0,0.0,0.0,0.0,0.0,0.0,0.0,0.0,0.0,0.0,0.0,0.0,0.0,0.0,0.0,0.0,0.0,0.0,0.0,0.0,0.0,0.0,0.0,0.0,0.0,0.0,0.0,0.0,0.0,0.0,0.0,0.0,0.0,0.0,0.0,0.0,0.0,0.0,0.0,0.0,0.0,0.0,0.0,0.0,0.0,0.0,0.0,0.0,0.0,0.0,0.0,0.0,0.0,0.0,0.0,0.0,0.0,0.0,0.0,0.0,0.0,0.0,0.0,0.0,0.0,0.0,0.0,0.0,0.0,0.0,0.0,0.0,0.0,0.0,0.0,0.0,0.0,0.0,0.0,0.0,0.0,0.0,0.0,0.0,0.0,0.0,0.0,0.0,0.0,0.0,0.0,0.0,0.0,0.0,0.0,0.0,0.0,0.0,0.0,0.0,0.0,0.0,0.0,0.0,0.0,0.0,0.0,0.0,0.0,0.0,0.0,0.0,0.0,0.0,0.0,0.0,0.0,0.0,0.0,0.0,0.0,0.0,0.0,0.0,0.0,0.0,0.0,0.0,0.0,0.0,0.0,0.0,0.0,0.0,0.0,0.0,0.0,0.0,0.0,0.0,0.0,0.0,0.0,0.0,0.0,0.0,0.0,0.0,0.0,0.0,0.0,0.0,0.0,0.0,0.0,0.0,0.0,0.0,0.0,0.0,0.0,0.0,0.0,0.0,0.0,0.0,0.0,0.0,0.0,0.0,0.0,0.0,0.0,0.0,0.0,0.0,0.0,0.0,0.0,0.0,0.0,0.0,0.0,0.0,0.0,0.0,0.0,0.0,0.0,0.0,0.0,0.0,0.0,0.0,0.0,0.0,0.0,0.0,0.0,0.0,0.0,0.0,0.0,0.0,0.0,0.0,0.0,0.0,0.0,0.0,0.0,0.0,0.0,0.0,0.0,0.0,0.0,0.0,0.0,0.0,0.0,0.0,0.0,0.0,0.0,0.0,0.0,0.0,0.0,0.0,0.0,0.0,0.0,0.0,0.0,0.0,0.0,0.0,0.0,0.0,0.0,0.0,0.0,0.0,0.0,0.0,0.0,0.0,0.0,0.0,0.0,0.0,0.0,0.0,0.0,0.0,0.0,0.0,0.0,0.0,0.0,0.0,0.0,0.0,0.0,0.0,0.0,0.0,0.0,0.0,0.0,0.0,0.0,0.0,0.0,0.0,0.0,0.0,0.0,0.0,0.0,0.0,0.0,0.0,0.0,0.0,0.0,0.0,0.0,0.0,0.0,0.0,0.0,0.0,0.0,0.0,0.0,0.0,0.0,0.0,0.0,0.0,0.0,0.0,0.0,0.0,0.0,0.0,0.0,0.0,0.0,0.0,0.0,0.0,0.0,0.0,0.0,0.0,0.0,0.0,0.0,0.0,0.0,0.0,0.0,0.0,0.0,0.0,0.0,0.0,0.0,0.0,0.0,0.0,0.0,0.0,0.0,0.0,0.0,0.0,0.0,0.0,0.0,0.0,0.0,0.0,0.0,0.0,0.0,0.0,0.0,0.0,0.0,0.0,0.0,0.0,0.0,0.0,0.0,0.0,0.0,0.0,0.0,0.0,0.0,0.0,0.0,0.0,0.0,0.0,0.0,0.0,0.0,0.0,0.0,0.0,0.0,0.0,0.0,0.0,0.0,0.0,0.0,0.0,0.0,0.0,0.0,0.0,0.0,0.0,0.0,0.0,0.0,0.0,0.0,0.0,0.0,0.0,0.0,0.0,0.0,0.0,0.0,0.0,0.0,0.0,0.0,0.0,0.0,0.0,0.0,0.0,0.0,0.0,0.0,0.0,0.0,0.0,0.0,0.0,0.0,0.0,0.0,0.0,0.0,0.0,0.0,0.0,0.0,0.0,0.0,0.0,0.0,0.0,0.0,0.0,0.0,0.0,0.0,0.0,0.0,0.0,0.0,0.0,0.0,0.0,0.0,0.0,0.0,0.0,0.0,0.0,0.0,0.0,0.0,0.0,0.0,0.0,0.0,0.0,0.0,0.0,0.0,0.0,0.0,0.0,0.0,0.0,0.0,0.0,0.0,0.0,0.0,0.0,0.0,0.0,0.0,0.0,0.0,0.0,0.0,0.0,0.0,0.0,0.0,0.0,0.0,0.0,0.0,0.0,0.0,0.0,0.0,0.0,0.0,0.0,0.0,0.0,0.0,0.0,0.0,0.0,0.0,0.0,0.0,0.0,0.0,0.0,0.0,0.0,0.0,0.0,0.0,0.0,0.0,0.0,0.0,0.0,0.0,0.0,0.0,0.0,0.0,0.0,0.0,0.0,0.0,0.0,0.0,0.0,0.0,0.0,0.0,0.0,0.0,0.0,0.0,0.0,0.0,0.0,0.0,0.0,0.0,0.0,0.0,0.0,0.0,0.0,0.0,0.0,0.0,0.0,0.0,0.0,0.0,0.0,0.0,0.0,0.0,0.0,0.0,0.0,0.0,0.0,0.0,0.0,0.0,0.0,0.0,0.0,0.0,0.0,0.0,0.0,0.0,0.0,0.0,0.0,0.0,0.0,0.0,0.0,0.0,0.0,0.0,0.0,0.0,0.0,0.0,0.0,0.0,0.0,0.0,0.0,0.0,0.0,0.0,0.0,0.0,0.0,0.0,0.0,0.0,0.0,0.0,0.0,0.0,0.0,0.0,0.0,0.0,0.0,0.0,0.0,0.0,0.0,0.0,0.0,0.0,0.0,0.0,0.0,0.0,0.0,0.0,0.0,0.0,0.0,0.0,0.0,0.0,0.0,0.0,0.0,0.0,0.0,0.0,0.0,0.0,0.0,0.0,0.0,0.0,0.0,0.0,0.0,0.0,0.0,0.0,0.0,0.0,0.0,0.0,0.0,0.0,0.0,0.0,0.0,0.0,0.0,0.0,0.0,0.0,0.0,0.0,0.0,0.0,0.0,0.0,0.0,0.0,0.0,0.0,0.0,0.0,0.0,0.0,0.0,0.0,0.0,0.0,0.0,0.0,0.0,0.0,0.0,0.0,0.0,0.0,0.0,0.0,0.0,0.0,0.0,0.0,0.0,0.0,0.0,0.0,0.0,0.0,0.0,0.0,0.0,0.0,0.0,0.0,0.0,0.0,2.686,0.0,0.0,0.0,0.0,0.0,0.0,0.0,0.0,0.0,0.0,0.0,0.0,0.0,0.0,0.0,0.0,0.0,0.0,0.0,0.0,0.0,0.0,0.0,0.0,0.0,0.0,0.0,0.0,0.0,0.0,0.0,0.0,0.0,0.0,0.0,0.0,0.0,0.0,0.0,0.0,0.0,0.0,0.0,0.0,0.0,0.0,0.0,0.0,0.0,0.0,0.0,0.0,0.0,0.0,0.0,0.0,0.0,0.0,0.0,0.0,0.0,0.0,0.0,0.0,0.0,0.0,0.0,0.0,0.0,0.0,0.0,0.0,0.0,0.0,0.0,0.0,0.0,0.0,0.0,0.0,0.0,0.0,0.0,0.0,0.0,0.0,0.0,0.0,0.0,0.0,0.0,0.0,0.0,0.0,0.0,0.0,0.0,0.0,0.0,0.0,0.0,0.0,0.0,0.0,0.0,0.0,0.0,0.0,0.0,0.0,2.6691,2.6691,2.6691,2.6691,2.6691,0.0,0.0,0.0,0.0,0.0,0.0,0.0,0.0,0.0,0.0,0.0,0.0,0.0,0.0,0.0,0.0,0.0,0.0,0.0,0.0,0.0,0.0,0.0,0.0,0.0,0.0,0.0,0.0,0.0,0.0,0.0,0.0,0.0,0.0,0.0,0.0,0.0,0.0,0.0,0.0,0.0,0.0,0.0,0.0,0.0,0.0,0.0,0.0,0.0,0.0,0.0,0.0,0.0,0.0,0.0,0.0,0.0,0.0,0.0,0.0,0.0,0.0,0.0,0.0,0.0,0.0,0.0,0.0,0.0,0.0,0.0,0.0,0.0,0.0,0.0,0.0,0.0,0.0,0.0,0.0,0.0,0.0,0.0,0.0,0.0,0.0,0.0,0.0,0.0,0.0,0.0,0.0,0.0,0.0,0.0,0.0,0.0,0.0,0.0,0.0,0.0,0.0,0.0,0.0,0.0,0.0,0.0,0.0,0.0,0.0,0.0,0.0,2.6691,2.6691,2.6691,0.0,0.0,0.0,0.0,0.0,0.0,0.0,0.0,0.0,0.0,0.0,0.0,0.0,0.0,0.0,0.0,0.0,0.0,0.0,0.0,0.0,0.0,0.0,0.0,0.0,0.0,0.0,0.0,0.0,0.0,0.0,0.0,0.0,0.0,0.0,0.0,0.0,0.0,0.0,0.0,0.0,0.0,0.0,0.0,0.0,0.0,0.0,0.0,0.0,0.0,0.0,0.0,0.0,0.0,0.0,0.0,0.0,0.0,0.0,0.0,0.0,0.0,0.0,0.0,0.0,0.0,0.0,0.0,0.0,0.0,0.0,0.0,0.0,0.0,0.0,0.0,0.0,0.0,0.0,0.0,0.0,0.0,0.0,0.0,0.0,0.0,0.0,0.0,0.0,0.0,0.0,0.0,0.0,0.0,0.0,0.0,0.0,0.0,0.0,0.0,0.0,0.0,0.0,0.0,0.0,0.0,0.0,0.0,0.0,0.0,2.6691,2.6691,2.6691,0.0,2.6691,0.0,0.0,0.0,0.0,0.0,0.0,0.0,0.0,0.0,0.0,0.0,0.0,0.0,0.0,0.0,0.0,0.0,0.0,0.0,0.0,0.0,0.0,0.0,0.0,0.0,0.0,0.0,0.0,0.0,0.0,0.0,0.0,0.0,0.0,0.0,0.0,0.0,0.0,0.0,0.0,0.0,0.0,0.0,0.0,0.0,0.0,0.0,0.0,0.0,0.0,0.0,0.0,0.0,0.0,0.0,0.0,0.0,0.0,0.0,0.0,0.0,0.0,0.0,0.0,0.0,0.0,0.0,0.0,0.0,0.0,0.0,0.0,0.0,0.0,0.0,0.0,0.0,0.0,0.0,0.0,0.0,0.0,0.0,0.0,0.0,0.0,0.0,0.0,0.0,0.0,0.0,0.0,0.0,0.0,0.0,0.0,0.0,0.0,0.0,0.0,0.0,0.0,0.0,0.0,0.0,0.0,0.0,0.0,0.0,0.0,2.6691,2.6691,2.6691,2.6691,0.0,0.0,0.0,0.0,0.0,0.0,0.0,0.0,0.0,0.0,0.0,0.0,0.0,0.0,0.0,0.0,0.0,0.0,0.0,0.0,0.0,0.0,0.0,0.0,0.0,0.0,0.0,0.0,0.0,0.0,0.0,0.0,0.0,0.0,0.0,0.0,0.0,0.0,0.0,0.0,0.0,0.0,0.0,0.0,0.0,0.0,0.0,0.0,0.0,0.0,0.0,0.0,0.0,0.0,0.0,0.0,0.0,0.0,0.0,0.0,0.0,0.0,0.0,0.0,0.0,0.0,0.0,0.0,0.0,0.0,0.0,0.0,0.0,0.0,0.0,0.0,0.0,0.0,0.0,0.0,0.0,0.0,0.0,0.0,0.0,0.0,0.0,0.0,0.0,0.0,0.0,0.0,0.0,0.0,0.0,0.0,0.0,0.0,0.0,0.0,0.0,0.0,0.0,0.0,0.0,0.0,0.0,0.0,0.0,0.0,2.6691,2.6691,2.6691,2.6691,2.6691,2.6691,0.0,0.0,0.0,0.0,0.0,0.0,0.0,0.0,0.0,0.0,0.0,0.0,0.0,0.0,0.0,0.0,0.0,0.0,0.0,0.0,0.0,0.0,0.0,0.0,0.0,0.0,0.0,0.0,0.0,0.0,0.0,0.0,0.0,0.0,0.0,0.0,0.0,0.0,0.0,0.0,0.0,0.0,0.0,0.0,0.0,0.0,0.0,0.0,0.0,0.0,0.0,0.0,0.0,0.0,0.0,0.0,0.0,0.0,0.0,0.0,0.0,0.0,0.0,0.0,0.0,0.0,0.0,0.0,0.0,0.0,0.0,0.0,0.0,0.0,0.0,0.0,0.0,0.0,0.0,0.0,0.0,0.0,0.0,0.0,0.0,0.0,0.0,0.0,0.0,0.0,0.0,0.0,0.0,0.0,0.0,0.0,0.0,0.0,0.0,0.0,0.0,0.0,0.0,0.0,0.0,0.0,0.0,0.0,2.6691,2.6691,2.6691,2.6691,2.6691,2.6691,0.0,0.0,0.0,0.0,0.0,0.0,0.0,0.0,0.0,0.0,0.0,0.0,0.0,0.0,0.0,0.0,0.0,0.0,0.0,0.0,0.0,0.0,0.0,0.0,0.0,0.0,0.0,0.0,0.0,0.0,0.0,0.0,0.0,0.0,0.0,0.0,0.0,0.0,0.0,0.0,0.0,0.0,0.0,0.0,0.0,0.0,0.0,0.0,0.0,0.0,0.0,0.0,0.0,0.0,0.0,0.0,0.0,0.0,0.0,0.0,0.0,0.0,0.0,0.0,0.0,0.0,0.0,0.0,0.0,0.0,0.0,0.0,0.0,0.0,0.0,0.0,0.0,0.0,0.0,0.0,0.0,0.0,0.0,0.0,0.0,0.0,0.0,0.0,0.0,0.0,0.0,0.0,0.0,0.0,0.0,0.0,0.0,0.0,0.0,0.0,0.0,0.0,0.0,0.0,0.0,0.0,0.0,0.0,0.0,2.6691,2.6691,2.6691,2.6691,2.6691,2.6691,0.0,0.0,0.0,0.0,0.0,0.0,0.0,0.0,0.0,0.0,0.0,0.0,0.0,0.0,0.0,0.0,0.0,0.0,0.0,0.0,0.0,0.0,0.0,0.0,0.0,0.0,0.0,0.0,0.0,0.0,0.0,0.0,0.0,0.0,0.0,0.0,0.0,0.0,0.0,0.0,0.0,0.0,0.0,0.0,0.0,0.0,0.0,0.0,0.0,0.0,0.0,0.0,0.0,0.0,0.0,0.0,0.0,0.0,0.0,0.0,0.0,0.0,0.0,0.0,0.0,0.0,0.0,0.0,0.0,0.0,0.0,0.0,0.0,0.0,0.0,0.0,0.0,0.0,0.0,0.0,0.0,0.0,0.0,0.0,0.0,0.0,0.0,0.0,0.0,0.0,0.0,0.0,0.0,0.0,0.0,0.0,0.0,0.0,0.0,0.0,0.0,0.0,0.0,0.0,0.0,0.0,0.0,0.0,0.0,2.6691,0.0,2.6691,2.6691,2.6691,2.6691,0.0,0.0,0.0,0.0,0.0,0.0,0.0,0.0,0.0,0.0,0.0,0.0,0.0,0.0,0.0,0.0,0.0,0.0,0.0,0.0,0.0,0.0,0.0,0.0,0.0,0.0,0.0,0.0,0.0,0.0,0.0,0.0,0.0,0.0,0.0,0.0,0.0,0.0,0.0,0.0,0.0,0.0,0.0,0.0,0.0,0.0,0.0,0.0,0.0,0.0,0.0,0.0,0.0,0.0,0.0,0.0,0.0,0.0,0.0,0.0,0.0,0.0,0.0,0.0,0.0,0.0,0.0,0.0,0.0,0.0,0.0,0.0,0.0,0.0,0.0,0.0,0.0,0.0,0.0,0.0,0.0,0.0,0.0,0.0,0.0,0.0,0.0,0.0,0.0,0.0,0.0,0.0,0.0,0.0,0.0,0.0,0.0,0.0,0.0,0.0,0.0,0.0,0.0,0.0,0.0,0.0,0.0,0.0,2.6725,2.6733,2.6759,2.6835,2.6725,2.6759,2.6725,0.0,0.0,0.0,0.0,0.0,0.0,0.0,0.0,0.0,0.0,0.0,0.0,0.0,0.0,0.0,0.0,0.0,0.0,0.0,0.0,0.0,0.0,0.0,0.0,0.0,0.0,0.0,0.0,0.0,0.0,0.0,0.0,0.0,0.0,0.0,0.0,0.0,0.0,0.0,0.0,0.0,0.0,0.0,0.0,0.0,0.0,0.0,0.0,0.0,0.0,0.0,0.0,0.0,0.0,0.0,0.0,0.0,0.0,0.0,0.0,0.0,0.0,0.0,0.0,0.0,0.0,0.0,0.0,0.0,0.0,0.0,0.0,0.0,0.0,0.0,0.0,0.0,0.0,0.0,0.0,0.0,0.0,0.0,0.0,0.0,0.0,0.0,0.0,0.0,0.0,0.0,0.0,0.0,0.0,0.0,0.0,0.0,0.0,0.0,0.0,0.0,0.0,0.0,0.0,0.0,0.0,0.0,0.0,0.0,2.7486,2.7985,2.8299,2.8265,2.774,2.7461,0.0,0.0,0.0,0.0,0.0,0.0,0.0,0.0,0.0,0.0,0.0,0.0,0.0,0.0,0.0,0.0,0.0,0.0,0.0,0.0,0.0,0.0,0.0,0.0,0.0,0.0,0.0,0.0,0.0,0.0,0.0,0.0,0.0,0.0,0.0,0.0,0.0,0.0,0.0,0.0,0.0,0.0,0.0,0.0,0.0,0.0,0.0,0.0,0.0,0.0,0.0,0.0,0.0,0.0,0.0,0.0,0.0,0.0,0.0,0.0,0.0,0.0,0.0,0.0,0.0,0.0,0.0,0.0,0.0,0.0,0.0,0.0,0.0,0.0,0.0,0.0,0.0,0.0,0.0,0.0,0.0,0.0,0.0,0.0,0.0,0.0,0.0,0.0,0.0,0.0,0.0,0.0,0.0,0.0,0.0,0.0,0.0,0.0,0.0,0.0,0.0,0.0,0.0,0.0,0.0,0.0,0.0,0.0,0.0,2.9499,2.9431,2.9407,2.9407,2.8915,2.8398,2.7824,0.0,0.0,0.0,0.0,0.0,0.0,0.0,0.0,0.0,0.0,0.0,0.0,0.0,0.0,0.0,0.0,0.0,0.0,0.0,0.0,0.0,0.0,0.0,0.0,0.0,0.0,0.0,0.0,0.0,0.0,0.0,0.0,0.0,0.0,0.0,0.0,0.0,0.0,0.0,0.0,0.0,0.0,0.0,0.0,0.0,0.0,0.0,0.0,0.0,0.0,0.0,0.0,0.0,0.0,0.0,0.0,0.0,0.0,0.0,0.0,0.0,0.0,0.0,0.0,0.0,0.0,0.0,0.0,0.0,0.0,0.0,0.0,0.0,0.0,0.0,0.0,0.0,0.0,0.0,0.0,0.0,0.0,0.0,0.0,0.0,0.0,0.0,0.0,0.0,0.0,0.0,0.0,0.0,0.0,0.0,0.0,0.0,0.0,0.0,0.0,0.0,0.0,0.0,0.0,0.0,0.0,0.0,0.0,3.253,3.1224,3.0548,3.0369,3.0267,2.9523,0.0,0.0,0.0,0.0,0.0,0.0,0.0,0.0,0.0,0.0,0.0,0.0,0.0,0.0,0.0,0.0,0.0,0.0,0.0,0.0,0.0,0.0,0.0,0.0,0.0,0.0,0.0,0.0,0.0,0.0,0.0,0.0,0.0,0.0,0.0,0.0,0.0,0.0,0.0,0.0,0.0,0.0,0.0,0.0,0.0,0.0,0.0,0.0,0.0,0.0,0.0,0.0,0.0,0.0,0.0,0.0,0.0,0.0,0.0,0.0,0.0,0.0,0.0,0.0,0.0,0.0,0.0,0.0,0.0,0.0,0.0,0.0,0.0,0.0,0.0,0.0,0.0,0.0,0.0,0.0,0.0,0.0,0.0,0.0,0.0,0.0,0.0,0.0,0.0,0.0,0.0,0.0,0.0,0.0,0.0,0.0,0.0,0.0,0.0,0.0,0.0,0.0,0.0,0.0,0.0,0.0,0.0,0.0,0.0,3.5543,3.5791,3.5047,3.34,3.2283,3.1268,0.0,0.0,0.0,0.0,0.0,0.0,0.0,0.0,0.0,0.0,0.0,0.0,0.0,0.0,0.0,0.0,0.0,0.0,0.0,0.0,0.0,0.0,0.0,0.0,0.0,0.0,0.0,0.0,0.0,0.0,0.0,0.0,0.0,0.0,0.0,0.0,0.0,0.0,0.0,0.0,0.0,0.0,0.0,0.0,0.0,0.0,0.0,0.0,0.0,0.0,0.0,0.0,0.0,0.0,0.0,0.0,0.0,0.0,0.0,0.0,0.0,0.0,0.0,0.0,0.0,0.0,0.0,0.0,0.0,0.0,0.0,0.0,0.0,0.0,0.0,0.0,0.0,0.0,0.0,0.0,0.0,0.0,0.0,0.0,0.0,0.0,0.0,0.0,0.0,0.0,0.0,0.0,0.0,0.0,0.0,0.0,0.0,0.0,0.0,0.0,0.0,0.0,0.0,0.0,0.0,0.0,0.0,0.0,3.4979,3.7212,3.8294,3.835,3.7347,3.5306,3.3376,0.0,0.0,0.0,0.0,0.0,0.0,0.0,0.0,0.0,0.0,0.0,0.0,0.0,0.0,0.0,0.0,0.0,0.0,0.0,0.0,0.0,0.0,0.0,0.0,0.0,0.0,0.0,0.0,0.0,0.0,0.0,0.0,0.0,0.0,0.0,0.0,0.0,0.0,0.0,0.0,0.0,0.0,0.0,0.0,0.0,0.0,0.0,0.0,0.0,0.0,0.0,0.0,0.0,0.0,0.0,0.0,0.0,0.0,0.0,0.0,0.0,0.0,0.0,0.0,0.0,0.0,0.0,0.0,0.0,0.0,0.0,0.0,0.0,0.0,0.0,0.0,0.0,0.0,0.0,0.0,0.0,0.0,0.0,0.0,0.0,0.0,0.0,0.0,0.0,0.0,0.0,0.0,0.0,0.0,0.0,0.0,0.0,0.0,0.0,0.0,0.0,0.0,0.0,0.0,0.0,0.0,0.0,0.0,3.596,3.8215,3.9703,4.0751,4.1292,3.8577,3.5644,0.0,0.0,0.0,0.0,0.0,0.0,0.0,0.0,0.0,0.0,0.0,0.0,0.0,0.0,0.0,0.0,0.0,0.0,0.0,0.0,0.0,0.0,0.0,0.0,0.0,0.0,0.0,0.0,0.0,0.0,0.0,0.0,0.0,0.0,0.0,0.0,0.0,0.0,0.0,0.0,0.0,0.0,0.0,0.0,0.0,0.0,0.0,0.0,0.0,0.0,0.0,0.0,0.0,0.0,0.0,0.0,0.0,0.0,0.0,0.0,0.0,0.0,0.0,0.0,0.0,0.0,0.0,0.0,0.0,0.0,0.0,0.0,0.0,0.0,0.0,0.0,0.0,0.0,0.0,0.0,0.0,0.0,0.0,0.0,0.0,0.0,0.0,0.0,0.0,0.0,0.0,0.0,0.0,0.0,0.0,0.0,0.0,0.0,0.0,0.0,0.0,0.0,0.0,0.0,0.0,0.0,0.0,0.0,3.8261,4.046,4.1935,4.278,4.2916,4.0075,3.7381,0.0,0.0,0.0,0.0,0.0,0.0,0.0,0.0,0.0,0.0,0.0,0.0,0.0,0.0,0.0,0.0,0.0,0.0,0.0,0.0,0.0,0.0,0.0,0.0,0.0,0.0,0.0,0.0,0.0,0.0,0.0,0.0,0.0,0.0,0.0,0.0,0.0,0.0,0.0,0.0,0.0,0.0,0.0,0.0,0.0,0.0,0.0,0.0,3.3536,0.0,0.0,0.0,0.0,0.0,0.0,0.0,0.0,0.0,0.0,0.0,0.0,0.0,0.0,0.0,0.0,0.0,0.0,0.0,0.0,0.0,0.0,0.0,0.0,0.0,0.0,0.0,0.0,0.0,0.0,0.0,0.0,0.0,0.0,0.0,0.0,0.0,0.0,0.0,0.0,0.0,0.0,0.0,0.0,0.0,0.0,0.0,0.0,0.0,0.0,0.0,0.0,0.0,0.0,0.0,0.0,0.0,0.0,0.0,3.8971,4.117,4.2645,4.3592,4.3876,4.1758,3.9343,0.0,0.0,0.0,0.0,0.0,0.0,0.0,0.0,0.0,0.0,0.0,0.0,0.0,0.0,0.0,0.0,0.0,0.0,0.0,0.0,0.0,0.0,0.0,0.0,0.0,0.0,0.0,0.0,0.0,0.0,0.0,0.0,0.0,0.0,0.0,0.0,0.0,0.0,0.0,0.0,0.0,0.0,0.0,0.0,0.0,0.0,0.0,0.0,0.0,0.0,0.0,0.0,0.0,0.0,0.0,0.0,0.0,0.0,0.0,0.0,0.0,0.0,0.0,0.0,0.0,0.0,0.0,0.0,0.0,0.0,0.0,0.0,0.0,0.0,0.0,0.0,0.0,0.0,0.0,0.0,0.0,0.0,0.0,0.0,0.0,0.0,0.0,0.0,0.0,0.0,0.0,0.0,0.0,0.0,0.0,0.0,0.0,0.0,0.0,0.0,0.0,0.0,0.0,0.0,0.0,0.0,0.0,3.7246,3.9432,4.1461,4.2909,4.3952,4.4575,4.3166,4.1052,3.8352,0.0,0.0,0.0,0.0,0.0,0.0,0.0,0.0,0.0,0.0,0.0,0.0,0.0,0.0,0.0,0.0,0.0,0.0,0.0,0.0,0.0,0.0,0.0,0.0,0.0,0.0,0.0,0.0,0.0,0.0,0.0,0.0,0.0,0.0,0.0,0.0,0.0,0.0,3.2929,3.4421,0.0,0.0,0.0,0.0,0.0,0.0,0.0,0.0,3.7628,0.0,0.0,0.0,0.0,0.0,0.0,0.0,0.0,0.0,0.0,0.0,0.0,0.0,0.0,0.0,0.0,0.0,0.0,0.0,0.0,0.0,0.0,0.0,0.0,0.0,0.0,0.0,0.0,0.0,0.0,0.0,0.0,0.0,0.0,0.0,0.0,0.0,0.0,0.0,0.0,0.0,0.0,0.0,0.0,0.0,0.0,0.0,0.0,0.0,0.0,0.0,0.0,0.0,0.0,0.0,0.0,3.7302,3.9534,4.1428,4.3031,4.4034,4.4626,4.4728,4.3394,4.1759,3.9923,0.0,0.0,0.0,0.0,0.0,0.0,0.0,0.0,0.0,0.0,0.0,0.0,0.0,0.0,0.0,0.0,0.0,0.0,0.0,0.0,0.0,0.0,0.0,0.0,0.0,0.0,0.0,0.0,0.0,0.0,0.0,0.0,0.0,0.0,0.0,0.0,0.0,0.0,0.0,3.6512,3.7557,0.0,0.0,0.0,0.0,0.0,0.0,0.0,0.0,3.8535,0.0,0.0,0.0,0.0,0.0,0.0,0.0,0.0,0.0,0.0,0.0,0.0,0.0,0.0,0.0,0.0,0.0,0.0,0.0,0.0,0.0,0.0,0.0,0.0,0.0,0.0,0.0,0.0,0.0,0.0,0.0,0.0,0.0,0.0,0.0,0.0,0.0,0.0,0.0,0.0,0.0,0.0,0.0,0.0,0.0,0.0,0.0,0.0,0.0,0.0,0.0,0.0,0.0,0.0,0.0,3.7843,4.0087,4.1901,4.3355,4.4299,4.4619,4.4164,4.2833,4.1234,0.0,0.0,0.0,0.0,0.0,0.0,0.0,0.0,0.0,0.0,0.0,0.0,0.0,0.0,0.0,0.0,0.0,0.0,0.0,0.0,0.0,0.0,0.0,0.0,0.0,0.0,0.0,0.0,0.0,0.0,0.0,0.0,0.0,0.0,0.0,0.0,0.0,0.0,0.0,0.0,3.7815,3.8874,3.8597,0.0,0.0,0.0,0.0,0.0,0.0,4.1459,4.0762,0.0,0.0,0.0,0.0,0.0,0.0,0.0,0.0,0.0,0.0,0.0,0.0,0.0,0.0,0.0,0.0,0.0,0.0,0.0,0.0,0.0,0.0,0.0,0.0,0.0,0.0,0.0,0.0,0.0,0.0,0.0,0.0,0.0,0.0,0.0,0.0,0.0,0.0,0.0,0.0,0.0,0.0,0.0,0.0,0.0,0.0,0.0,0.0,0.0,0.0,0.0,0.0,0.0,0.0,0.0,3.8328,4.0392,4.2151,4.3606,4.4442,4.447,4.3687,4.2411,4.0651,0.0,0.0,0.0,0.0,0.0,0.0,0.0,0.0,0.0,0.0,0.0,0.0,0.0,0.0,0.0,0.0,0.0,0.0,0.0,0.0,0.0,0.0,0.0,0.0,0.0,0.0,0.0,0.0,0.0,0.0,0.0,0.0,0.0,0.0,0.0,0.0,0.0,0.0,0.0,0.0,0.0,4.0041,4.0165,4.0312,0.0,0.0,0.0,0.0,4.3291,4.3479,0.0,0.0,0.0,0.0,0.0,0.0,0.0,0.0,0.0,0.0,0.0,0.0,0.0,0.0,0.0,0.0,0.0,0.0,0.0,0.0,0.0,0.0,0.0,0.0,0.0,0.0,0.0,0.0,0.0,0.0,0.0,0.0,0.0,0.0,0.0,0.0,0.0,0.0,0.0,0.0,0.0,0.0,0.0,0.0,0.0,0.0,0.0,0.0,0.0,0.0,0.0,0.0,0.0,0.0,0.0,0.0,3.9762,4.1386,4.2909,4.4378,4.4776,4.466,4.3952,4.2777,4.1011,0.0,0.0,0.0,0.0,0.0,0.0,0.0,0.0,0.0,0.0,0.0,0.0,0.0,0.0,0.0,0.0,0.0,0.0,0.0,0.0,0.0,0.0,0.0,0.0,0.0,0.0,0.0,0.0,0.0,0.0,0.0,0.0,0.0,0.0,0.0,0.0,0.0,0.0,0.0,0.0,0.0,4.1674,4.1796,4.2455,4.2818,0.0,0.0,4.3277,4.4072,4.4158,0.0,0.0,0.0,0.0,0.0,0.0,0.0,0.0,0.0,0.0,0.0,0.0,0.0,0.0,0.0,0.0,0.0,0.0,0.0,0.0,0.0,0.0,0.0,0.0,0.0,0.0,0.0,0.0,0.0,0.0,0.0,0.0,0.0,0.0,0.0,0.0,0.0,0.0,0.0,0.0,0.0,0.0,0.0,0.0,0.0,0.0,0.0,0.0,0.0,0.0,0.0,0.0,0.0,0.0,0.0,3.7181,4.0145,4.1827,4.3405,4.4852,4.519,4.5018,4.4298,4.2999,4.1221,0.0,0.0,0.0,0.0,0.0,0.0,0.0,0.0,0.0,0.0,0.0,0.0,0.0,0.0,0.0,0.0,0.0,0.0,0.0,0.0,0.0,0.0,0.0,0.0,0.0,0.0,0.0,0.0,0.0,0.0,0.0,0.0,0.0,0.0,0.0,0.0,0.0,0.0,0.0,0.0,0.0,0.0,4.3416,4.422,0.0,0.0,0.0,4.5698,4.6783,0.0,0.0,0.0,0.0,0.0,0.0,0.0,0.0,0.0,0.0,0.0,0.0,0.0,0.0,0.0,0.0,0.0,0.0,0.0,0.0,0.0,0.0,0.0,0.0,0.0,0.0,0.0,0.0,0.0,0.0,0.0,0.0,0.0,0.0,0.0,0.0,0.0,0.0,0.0,0.0,0.0,0.0,0.0,0.0,0.0,0.0,0.0,0.0,0.0,0.0,0.0,0.0,0.0,0.0,0.0,0.0,0.0,4.0316,4.2252,4.3997,4.5551,4.6074,4.5908,4.4993,4.3826,0.0,0.0,0.0,0.0,0.0,0.0,0.0,0.0,0.0,0.0,0.0,0.0,0.0,0.0,0.0,0.0,0.0,0.0,0.0,0.0,0.0,0.0,0.0,0.0,0.0,0.0,0.0,3.6299,0.0,0.0,0.0,0.0,0.0,0.0,0.0,0.0,0.0,0.0,0.0,0.0,0.0,0.0,4.2637,4.5111,4.6056,4.6714,0.0,0.0,4.7626,4.8621,4.815,4.6969,0.0,0.0,0.0,0.0,0.0,0.0,0.0,0.0,0.0,0.0,0.0,0.0,0.0,0.0,0.0,0.0,0.0,0.0,0.0,0.0,0.0,0.0,0.0,0.0,0.0,0.0,0.0,0.0,0.0,0.0,0.0,0.0,0.0,0.0,0.0,0.0,0.0,0.0,0.0,0.0,0.0,0.0,0.0,0.0,0.0,0.0,0.0,0.0,0.0,0.0,0.0,0.0,0.0,0.0,3.7342,4.0429,4.2956,4.5023,4.665,4.7753,4.7636,4.6327,4.5728,4.395,0.0,0.0,0.0,0.0,0.0,0.0,0.0,0.0,0.0,0.0,0.0,0.0,0.0,0.0,0.0,0.0,0.0,0.0,0.0,0.0,0.0,0.0,0.0,0.0,0.0,0.0,0.0,0.0,0.0,0.0,0.0,0.0,0.0,0.0,0.0,0.0,0.0,0.0,0.0,0.0,0.0,4.4584,4.6996,4.807,4.8822,0.0,4.8953,4.8391,4.8171,4.7549,4.652,4.4852,0.0,0.0,0.0,0.0,0.0,0.0,0.0,0.0,0.0,0.0,0.0,0.0,0.0,0.0,0.0,0.0,0.0,0.0,0.0,0.0,0.0,0.0,0.0,0.0,0.0,0.0,0.0,0.0,0.0,0.0,0.0,0.0,0.0,0.0,0.0,0.0,0.0,0.0,0.0,0.0,0.0,0.0,0.0,0.0,0.0,0.0,0.0,0.0,0.0,0.0,0.0,0.0,0.0,3.9078,4.2375,4.4596,4.6572,4.8273,4.8935,4.9008,4.8448,4.7765,4.639,0.0,0.0,0.0,0.0,0.0,0.0,0.0,0.0,0.0,0.0,0.0,0.0,0.0,0.0,0.0,0.0,0.0,0.0,0.0,0.0,0.0,0.0,0.0,0.0,0.0,0.0,0.0,0.0,4.2218,4.2712,4.1494,0.0,0.0,0.0,0.0,0.0,0.0,0.0,0.0,0.0,0.0,4.58,4.8225,4.9145,0.0,0.0,4.9541,4.9232,4.91,4.8382,4.7212,4.5213,4.3179,0.0,0.0,0.0,0.0,0.0,0.0,0.0,0.0,0.0,0.0,0.0,0.0,0.0,0.0,0.0,0.0,0.0,0.0,0.0,0.0,0.0,0.0,0.0,0.0,0.0,0.0,0.0,0.0,0.0,0.0,0.0,0.0,0.0,0.0,0.0,0.0,0.0,0.0,0.0,0.0,0.0,0.0,0.0,0.0,0.0,0.0,0.0,0.0,0.0,0.0,0.0,0.0,4.0296,4.3698,4.5941,4.7927,4.977,5.029,5.0464,5.0211,4.9725,4.8692,0.0,0.0,0.0,0.0,0.0,0.0,0.0,0.0,0.0,0.0,0.0,0.0,0.0,0.0,0.0,0.0,0.0,0.0,0.0,0.0,0.0,0.0,0.0,0.0,0.0,0.0,0.0,0.0,4.3348,4.3385,4.1532,0.0,0.0,0.0,0.0,0.0,0.0,0.0,0.0,0.0,0.0,4.7041,4.9231,4.9899,5.0098,4.9924,4.9561,4.9226,4.8842,4.8123,4.6948,4.5175,0.0,0.0,0.0,0.0,0.0,0.0,0.0,0.0,0.0,0.0,0.0,0.0,0.0,0.0,0.0,0.0,0.0,0.0,0.0,0.0,0.0,0.0,0.0,0.0,0.0,0.0,0.0,2.4729,0.0,0.0,2.5066,0.0,0.0,0.0,0.0,0.0,0.0,0.0,0.0,0.0,0.0,0.0,0.0,0.0,0.0,0.0,0.0,0.0,0.0,0.0,0.0,0.0,0.0,4.0625,4.3991,4.6765,4.9065,5.0843,5.1984,5.2154,5.1402,5.1464,5.0746,4.906,0.0,0.0,0.0,0.0,0.0,0.0,0.0,0.0,0.0,0.0,0.0,0.0,0.0,0.0,0.0,0.0,0.0,0.0,0.0,0.0,0.0,0.0,0.0,0.0,0.0,0.0,4.3093,4.348,4.3115,0.0,0.0,0.0,0.0,0.0,0.0,0.0,0.0,0.0,4.4953,4.6719,4.835,5.001,5.0284,5.0145,4.985,4.9073,4.8129,4.6976,4.6217,4.5386,0.0,0.0,0.0,0.0,0.0,0.0,0.0,0.0,0.0,0.0,0.0,0.0,0.0,0.0,0.0,0.0,0.0,0.0,0.0,0.0,0.0,0.0,0.0,0.0,0.0,0.0,0.0,2.8781,2.8133,0.0,0.0,0.0,0.0,0.0,0.0,0.0,0.0,0.0,0.0,0.0,3.7679,3.7472,0.0,0.0,0.0,0.0,0.0,0.0,0.0,0.0,0.0,0.0,0.0,0.0,4.2496,4.6047,4.8315,5.0371,5.2221,5.2736,5.2871,5.2615,5.2647,5.1825,5.0081,0.0,0.0,0.0,0.0,0.0,0.0,0.0,0.0,0.0,0.0,0.0,0.0,0.0,0.0,0.0,0.0,0.0,0.0,0.0,0.0,0.0,0.0,0.0,0.0,0.0,4.3418,0.0,0.0,0.0,0.0,0.0,0.0,0.0,0.0,0.0,0.0,0.0,4.4485,4.701,4.783,4.8508,4.9639,4.9685,4.9564,0.0,0.0,0.0,0.0,0.0,0.0,0.0,0.0,0.0,0.0,0.0,0.0,0.0,0.0,4.1731,3.9399,3.9158,3.9629,4.0605,0.0,0.0,0.0,0.0,0.0,0.0,0.0,0.0,0.0,0.0,0.0,0.0,0.0,0.0,3.2053,3.1691,3.1244,0.0,0.0,0.0,0.0,0.0,0.0,0.0,0.0,3.8342,3.9744,4.0883,4.0723,4.0746,4.0965,4.1035,4.0219,0.0,0.0,0.0,0.0,0.0,0.0,0.0,0.0,4.4331,4.7618,4.963,5.1501,5.3299,5.3528,5.3775,5.4032,5.4032,5.3334,5.183,4.998,4.824,0.0,0.0,0.0,0.0,0.0,0.0,0.0,0.0,0.0,0.0,0.0,0.0,0.0,0.0,0.0,0.0,0.0,0.0,0.0,0.0,0.0,0.0,0.0,4.4703,0.0,0.0,0.0,0.0,0.0,0.0,0.0,0.0,0.0,4.3604,4.4481,4.5969,4.858,4.8641,4.8641,4.9238,0.0,0.0,0.0,0.0,0.0,0.0,0.0,4.7463,4.6979,4.7737,4.8307,4.7949,4.7535,4.7394,4.7819,0.0,0.0,4.3918,4.3424,4.3954,4.5167,4.4867,4.46,4.532,4.5418,4.5453,0.0,0.0,0.0,0.0,3.0137,0.0,0.0,0.0,3.4875,3.5332,0.0,3.5256,0.0,0.0,0.0,0.0,3.4441,3.6605,0.0,0.0,4.1435,4.2598,4.3404,4.4187,4.4249,4.3674,4.4788,4.5352,4.5093,4.0589,0.0,0.0,0.0,0.0,0.0,0.0,4.6079,4.8761,5.0682,5.2492,5.4188,5.4371,5.4803,5.5548,5.5585,5.5126,5.4221,5.2649,5.1206,4.9974,4.6888,0.0,0.0,0.0,0.0,0.0,0.0,0.0,0.0,0.0,0.0,0.0,0.0,0.0,0.0,0.0,0.0,0.0,0.0,0.0,0.0,4.6567,0.0,0.0,0.0,0.0,0.0,0.0,0.0,0.0,0.0,0.0,4.5021,4.5692,4.7024,4.9622,0.0,0.0,0.0,0.0,4.8773,4.8697,4.8595,4.8492,4.8328,4.8352,4.8709,4.9554,0.0,0.0,5.1957,5.2743,5.3146,5.3218,5.3241,5.2101,4.872,4.8409,4.8815,4.9466,4.947,4.9535,5.0096,5.0244,5.0349,3.771,0.0,0.0,0.0,0.0,3.5687,3.692,3.8319,3.917,3.9529,3.9507,3.8951,0.0,0.0,0.0,0.0,0.0,0.0,4.155,4.3034,4.4642,4.5836,4.6541,4.7047,4.7164,4.698,4.7632,4.7948,4.7938,4.6274,4.4517,4.2661,0.0,0.0,0.0,0.0,4.7496,5.0559,5.1952,5.3441,5.52,5.5233,5.5365,5.5585,5.5622,5.5464,5.5211,5.466,5.3846,5.2817,5.0666,0.0,0.0,0.0,0.0,0.0,0.0,0.0,0.0,0.0,0.0,0.0,0.0,0.0,0.0,0.0,0.0,0.0,0.0,0.0,4.759,4.74,4.6262,0.0,0.0,0.0,0.0,0.0,0.0,0.0,0.0,0.0,4.91,4.8543,4.8651,0.0,0.0,4.9912,5.0524,5.0507,5.0597,5.1139,5.1118,0.0,5.021,5.1108,5.1946,5.2318,5.4228,5.6078,5.71,5.7369,5.7599,5.8152,5.8282,5.8062,5.7603,5.5156,5.3718,5.4101,5.4126,5.4056,5.414,5.4074,5.4089,4.2761,3.968,3.7805,3.7568,3.8548,3.9379,4.0307,4.1307,4.2415,4.2859,4.2824,4.2614,4.2347,4.2044,4.1498,0.0,0.0,0.0,4.4476,4.5412,4.6782,4.7669,4.8114,4.8758,4.9068,4.9129,5.0238,5.0795,5.0832,5.0743,4.9859,4.8188,0.0,4.5122,4.6434,4.7471,4.934,5.2003,5.3054,5.4371,5.6025,5.6393,5.6576,5.6539,5.6576,5.6539,5.6539,5.6167,5.5651,5.4955,5.3299,5.1313,0.0,0.0,0.0,0.0,0.0,0.0,0.0,0.0,0.0,0.0,0.0,4.0919,4.1818,0.0,0.0,0.0,4.7096,4.8601,4.9516,4.8615,0.0,0.0,0.0,0.0,0.0,0.0,0.0,4.5806,4.7699,4.9727,5.1937,5.1879,5.1748,5.219,5.155,5.1332,5.2165,0.0,5.2532,5.3616,5.3701,5.3688,5.3869,5.4675,5.5553,5.6279,5.8497,6.0268,6.0775,6.1068,6.141,6.1856,6.2001,6.2145,6.26,6.0564,5.8824,5.8723,5.8602,5.8543,5.8739,5.8766,5.8825,4.6979,4.6742,4.3597,4.2185,4.2107,4.3014,4.3378,4.3452,4.4941,4.5552,4.5467,4.6059,4.5905,4.5227,4.5045,0.0,4.5053,4.6525,4.7174,4.7222,4.8173,4.8636,4.8767,4.9838,5.0384,5.0503,5.2616,5.3592,5.3604,5.3922,5.4105,5.3995,5.0187,4.8582,4.931,5.0154,5.138,5.298,5.3978,5.528,5.6847,5.7629,5.7997,5.796,5.7923,5.7898,5.7886,5.7104,5.6573,5.6292,5.4857,5.3235,5.1458,0.0,0.0,0.0,0.0,0.0,0.0,0.0,0.0,0.0,0.0,0.0,0.0,0.0,0.0,0.0,4.9981,0.0,5.1477,5.009,0.0,0.0,0.0,4.6069,4.6902,4.7699,4.8521,4.9463,0.0,0.0,5.4146,5.5486,5.5884,5.4544,5.3566,5.3241,5.4074,5.4327,5.4798,5.6355,5.65,5.7007,5.8213,5.8611,5.9227,6.0652,6.2367,6.3273,6.3382,6.4106,6.4577,6.4671,6.4722,6.4794,6.4794,6.4707,6.4426,6.3226,6.2639,6.2555,6.2954,6.3167,6.3281,4.8687,4.8651,4.7832,4.7074,4.6483,4.6708,4.7133,4.7701,4.808,4.8184,4.8109,4.8213,4.8151,4.7839,4.7586,4.7435,4.7491,4.8328,4.8775,4.8837,4.9898,5.0691,5.1308,5.2032,5.2702,5.3348,5.4133,5.4569,5.4581,5.4898,5.5069,5.4996,5.354,5.2206,5.1081,5.1333,5.1982,5.298,5.4539,5.6099,5.7666,5.7886,5.7997,5.7997,5.7409,5.7068,5.7068,5.6308,5.5845,5.5764,5.4748,5.3683,5.2616,4.9456,0.0,0.0,0.0,0.0,0.0,0.0,0.0,0.0,0.0,4.3141,4.4581,0.0,4.8164,0.0,5.0814,5.248,5.3059,5.2226,0.0,0.0,5.009,5.0173,5.0959,5.1792,5.3023,5.5015,5.574,5.6862,5.8841,5.9421,5.9747,5.9928,5.8275,5.7297,5.8081,5.8746,5.9457,6.0326,6.0543,6.0724,6.1123,6.1679,6.2417,6.3382,6.4396,6.5011,6.5048,6.6207,6.7148,6.7184,6.767,6.7996,6.796,6.8032,6.793,6.7499,6.558,6.376,6.3801,6.3976,6.4137,5.0054,5.0375,5.0375,5.0101,4.9589,4.8865,4.8793,4.9242,4.9562,4.963,4.9518,4.9859,5.0175,5.0429,5.0259,5.033,5.0579,5.1021,5.1232,5.1259,5.2029,5.2704,5.3258,5.3719,5.4193,5.4639,5.5329,5.5665,5.5677,5.6275,5.6548,5.6548,5.5478,5.4235,5.2871,5.2228,5.2297,5.3092,5.51,5.676,5.7923,5.7997,5.785,5.7446,5.6675,5.6088,5.5757,5.495,5.4693,5.5023,5.4554,5.4071,5.3605,5.0801,4.8234,0.0,0.0,0.0,0.0,0.0,0.0,0.0,0.0,0.0,0.0,0.0,5.0053,5.1454,5.3096,5.4399,5.5196,5.4544,5.4037,5.3941,5.3929,5.4411,5.5522,5.6391,5.7502,5.9131,5.9651,6.0375,6.1716,6.2476,6.3092,6.3563,6.3092,6.2295,6.1462,6.1897,6.268,6.3476,6.3911,6.4273,6.4599,6.5337,6.6004,6.6475,6.6909,6.7199,6.7235,6.7909,6.8525,6.8561,6.8902,6.9192,6.9192,6.9192,6.9192,6.8974,6.78,6.6597,6.6378,6.6438,6.6555,5.1374,5.1993,5.1993,5.2006,5.1886,5.0482,4.9815,4.9729,5.0441,5.0698,5.0654,5.1315,5.2011,5.2662,5.2635,5.2922,5.3435,5.3545,5.3613,5.3681,5.4057,5.4376,5.4721,5.5039,5.5278,5.5399,5.6314,5.6784,5.6772,5.7694,5.8143,5.8107,5.6638,5.5511,5.4656,5.3115,5.2711,5.3508,5.5783,5.7299,5.796,5.8107,5.774,5.6822,5.5904,5.5071,5.4252,5.3361,5.3214,5.3885,5.4032,5.4069,5.4032,5.2077,5.023,0.0,4.6411,0.0,0.0,0.0,0.0,0.0,0.0,0.0,0.0,4.9916,5.2175,5.5136,5.6066,5.6827,5.7612,5.7128,5.7043,5.7732,5.7913,5.8528,5.9905,6.076,6.163,6.2499,6.3237,6.3722,6.4084,6.5243,6.6076,6.6134,6.6967,6.6714,6.47,6.4627,6.5315,6.5989,6.6641,6.7112,6.7764,6.854,6.8974,6.9083,6.8974,6.9192,6.9047,6.9228,6.9373,6.9373,6.9481,6.9554,6.9481,6.9554,6.9518,6.9636,6.9582,6.9475,6.9185,6.9135,6.9544,5.3444,5.3551,5.3551,5.3551,5.3515,5.3217,5.2766,5.2266,5.299,5.3285,5.3258,5.3296,5.3433,5.3527,5.3441,5.348,5.3559,5.3586,5.3722,5.3939,5.4202,5.4903,5.5837,5.6184,5.6618,5.7288,5.7599,5.7659,5.7602,5.8514,5.8976,5.8939,5.7997,5.7152,5.6297,0.0,0.0,0.0,5.6895,5.785,5.7997,5.8657,5.8279,5.6847,5.539,0.0,5.3434,5.204,5.1306,5.1499,5.2087,0.0,0.0,0.0,0.0,0.0,0.0,0.0,0.0,0.0,0.0,0.0,5.2477,5.2094,5.1863,5.3943,5.6089,5.7862,5.8661,5.9397,6.0197,6.0659,6.0942,6.1086,6.1679,6.22,6.2526,6.3251,6.4251,6.5736,6.6025,6.6605,6.7706,6.8358,6.8467,6.8431,6.8793,6.8721,6.8105,6.8069,6.8286,6.854,6.8648,6.8793,6.8938,6.9155,6.9337,6.9192,6.9192,6.9228,6.93,6.9808,7.017,7.017,7.0641,7.1024,7.1024,7.106,7.1034,7.1267,7.1292,7.0944,6.9687,6.9639,6.9827,5.4001,5.4001,5.4001,5.4001,0.0,5.4443,5.4384,5.4028,5.4014,5.4001,5.4001,5.3935,5.4136,5.4492,5.4411,5.4557,5.4892,5.4994,5.5183,5.5372,5.5819,5.6394,5.7093,5.7361,5.7695,5.8125,5.8561,5.8711,5.8632,5.9462,5.9854,5.9783,5.8976,5.8389,5.7985,5.7178,5.6602,5.6198,5.7776,5.8621,5.8621,5.8976,5.8425,5.6847,5.5611,0.0,0.0,0.0,0.0,0.0,0.0,0.0,0.0,5.4399,0.0,5.3674,5.3308,5.3407,5.4122,5.414,5.5156,5.7507,5.8457,5.8032,5.5968,5.7656,5.9516,6.1024,6.1519,6.2013,6.2778,6.3153,6.3275,6.3348,6.4293,6.4975,6.5084,6.6076,6.7091,6.7815,6.7981,6.8358,6.9098,6.9554,6.9771,6.9808,7.0134,7.0315,7.0315,7.0025,6.988,7.0278,7.0335,7.0351,7.0335,7.0335,7.0315,7.0351,7.0351,7.0351,7.0351,7.0661,7.0951,7.0951,7.1277,7.1494,7.1494,7.1593,7.1672,7.1765,7.1939,7.1842,7.0981,7.0968,7.1099,5.4407,5.4443,5.4407,5.4407,5.4478,5.512,5.5419,5.5348,5.4692,0.0,0.0,5.4443,5.4799,5.5406,5.5419,5.5708,5.6231,5.6505,5.671,5.6907,5.74,5.7895,5.832,5.8559,5.8721,5.8906,5.9534,5.9774,5.9697,6.0448,6.0746,6.0602,5.9979,5.9551,5.9453,5.9698,5.9196,5.7985,5.9013,5.9563,5.9416,5.9563,5.8866,5.7251,5.6466,5.5658,5.484,5.4058,5.3985,5.4766,5.495,5.5721,5.7104,5.6859,5.698,5.7556,5.7152,5.7519,5.8951,5.8967,5.9835,6.1958,6.3496,6.3055,6.0004,6.1136,6.2537,6.3875,6.4068,6.4456,6.5186,6.5291,6.5288,6.5434,6.6526,6.7221,6.7293,6.8358,6.9119,6.9373,6.9373,6.9481,6.9663,7.0206,7.0604,7.0677,7.106,7.1494,7.1422,7.0951,7.0786,7.1241,7.1277,7.1422,7.1494,7.1422,7.1494,7.1386,7.1422,7.1494,7.1494,7.1494,7.1494,7.1458,7.1494,7.151,7.1542,7.1687,7.1832,7.1893,7.2121,7.2329,7.2343,7.2321,7.2314,5.6026,5.6062,5.6062,5.6062,5.6062,5.6169,5.624,5.6218,5.6097,5.6062,5.6062,5.6062,5.6133,5.624,5.624,5.6311,5.6383,5.6653,5.6959,5.7313,5.7619,5.841,5.9527,5.9571,5.9989,6.0619,6.073,6.0748,6.0708,6.1294,6.1628,6.1555,6.1349,6.0933,6.0407,6.1582,6.2205,6.1949,6.1484,6.0933,6.0272,6.0896,6.0493,5.8939,5.8107,5.7299,5.6492,5.5721,5.5647,5.6407,5.7116,5.7923,5.8829,6.0052,6.0786,6.0933,6.1484,6.2218,6.3148,6.3233,6.3661,6.4651,6.5605,6.526,6.3471,6.4158,6.4833,6.5089,6.5594,6.6198,6.6989,6.7445,6.7869,6.8524,6.8775,6.8866,6.8829,6.9083,6.9554,7.0134,7.0242,7.0496,7.0951,7.1205,7.1277,7.135,7.1422,7.1494,7.1494,7.1422,7.1386,7.1494,7.1494,7.1494,7.1494,7.1494,7.1494,7.1494,7.1494,7.1494,7.1494,7.1494,7.1494,7.1494,7.1494,7.1557,7.1703,7.1801,7.1939,7.2114,7.2284,7.2321,7.2423,7.2475,7.2504,5.6396,5.6396,5.6396,5.6396,5.6396,5.6396,5.6396,5.6396,5.6396,5.6396,5.6396,5.6396,5.6396,5.6396,5.6396,5.6424,5.6519,5.6878,5.7454,5.8142,5.8574,5.9374,6.037,6.0521,6.074,6.1111,6.1556,6.1675,6.1636,6.2318,6.2581,6.2487,6.2757,6.2781,6.2511,6.3576,6.415,6.415,6.3796,6.3209,6.2438,6.2768,6.2365,6.1178,6.0774,6.0444,6.0077,5.9722,5.9673,6.004,6.0407,6.097,6.1814,6.2548,6.3148,6.3576,6.393,6.453,6.5351,6.6219,6.7063,6.782,6.8238,6.8151,6.7363,6.7243,6.7467,6.7871,6.817,6.8472,6.8875,6.9045,6.9202,6.9457,6.9781,6.9899,6.9932,7.0242,7.0589,7.0915,7.0987,7.1132,7.1458,7.1494,7.1494,7.1494,7.1494,7.1494,7.1494,7.1494,7.1494,7.1494,7.1494,7.1494,7.1494,7.1494,7.1494,7.1494,7.1494,7.1494,7.1494,7.1494,7.1494,7.1494,7.1593,7.1687,7.1816,7.197,7.2136,7.2204,7.2351,7.2423,7.2481,7.2532,7.2532,5.6396,5.6396,5.6396,5.6396,5.6396,5.6396,5.6396,5.6396,5.6396,5.649,5.6633,5.649,5.6396,5.6418,5.6561,5.6778,5.698,5.7531,5.8285,5.9152,5.9674,6.0426,6.1241,6.1403,6.1548,6.177,6.2376,6.2617,6.2613,6.3109,6.3364,6.3346,6.3835,6.4163,6.4383,6.5154,6.5582,6.5582,6.5729,6.5375,6.442,6.4396,6.4053,6.3417,6.3343,6.3343,6.338,6.338,6.3453,6.3637,6.3637,6.409,6.5081,6.5154,6.5558,6.6256,6.6389,6.6659,6.732,6.8458,6.9449,7.0036,7.011,7.0146,7.0293,6.9802,6.9596,7.0036,6.9963,7.0073,7.0265,7.0226,7.0171,7.0157,7.0577,7.0774,7.0729,7.1168,7.1494,7.1494,7.1494,7.1494,7.1494,7.1494,7.1494,7.1494,7.1494,7.1494,7.1494,7.1494,7.1494,7.1494,7.1494,7.1494,7.1494,7.1494,7.1494,7.1494,7.1494,7.1494,7.1494,7.1494,7.1494,7.1546,7.1656,7.178,7.1842,7.2106,7.2284,7.2321,7.2409,7.2481,7.2496,7.2532,7.2532,5.6418,5.6396,5.6454,5.6396,5.6454,5.6468,5.6454,5.6454,5.6432,5.6825,5.7396,5.6704,5.6468,5.6504,5.7182,5.762,5.794,5.9048,5.9783,6.0272,6.0683,6.1352,6.2194,6.229,6.2662,6.3256,6.3405,6.3405,6.3371,6.3428,6.366,6.4033,6.4116,6.4506,6.5178,6.5999,6.6402,6.6402,6.71,6.6733,6.5288,6.5178,6.5141,6.5118,6.5068,6.5068,6.5105,6.5068,6.5411,6.6072,6.6145,6.6843,6.8187,6.8408,6.8788,6.9486,6.9596,6.9706,6.9743,6.9889,7.0036,7.0073,7.0183,7.0477,7.1123,7.1123,7.0756,7.0367,7.0146,7.0513,7.1073,7.1068,7.1158,7.1522,7.1612,7.1609,7.1433,7.1458,7.1494,7.1494,7.1494,7.1494,7.1494,7.1494,7.1494,7.1494,7.1494,7.1494,7.1494,7.1494,7.1494,7.1494,7.1494,7.1494,7.1494,7.1494,7.1494,7.1494,7.1494,7.1494,7.1494,7.1494,7.1494,7.1593,7.1687,7.1842,7.1994,7.2159,7.2358,7.2409,7.2467,7.2532,7.2532,7.2569,7.2606,5.776,5.776,5.7774,5.776,5.776,5.776,5.776,5.776,5.776,5.7939,5.8189,5.7903,5.776,5.781,5.823,5.8581,5.888,5.9667,6.0469,6.1199,6.1658,6.2294,6.3033,6.3108,6.3293,6.359,6.359,6.359,6.3642,6.3959,6.4435,6.5078,6.542,6.5759,6.6072,6.6806,6.7187,6.7223,6.7554,6.737,6.6806,6.6696,6.6696,6.6696,6.6696,6.6953,6.7393,6.7417,6.7797,6.8531,6.8641,6.8898,6.9559,6.9596,6.9743,7.0073,7.011,7.033,7.077,7.0793,7.1027,7.1468,7.1505,7.1688,7.1967,7.2018,7.1857,7.1615,7.1505,7.1688,7.1931,7.1961,7.2006,7.2116,7.2024,7.1842,7.1703,7.1578,7.1494,7.1494,7.1494,7.1494,7.1494,7.1494,7.1494,7.1494,7.1494,7.1494,7.1494,7.1494,7.1494,7.1494,7.1494,7.1494,7.1494,7.1494,7.1494,7.1494,7.1494,7.1494,7.1494,7.1494,7.1546,7.1656,7.1811,7.1964,7.2144,7.2292,7.2423,7.2569,7.2532,7.2532,7.2532,7.2899,7.3156,5.8688,5.8688,5.8688,5.8688,5.8688,5.8688,5.8688,5.8688,5.8688,5.8831,5.903,5.9045,5.9166,5.9381,5.9394,5.955,5.9888,6.0575,6.141,6.2212,6.2575,6.3033,6.3553,6.359,6.359,6.359,6.359,6.3702,6.3988,6.4626,6.5322,6.6001,6.6466,6.673,6.6893,6.7444,6.77,6.77,6.77,6.7811,6.7981,6.8031,6.8017,6.8031,6.8017,6.8421,6.9192,6.9229,6.9486,7.0036,7.011,7.022,7.0403,7.044,7.0513,7.0734,7.0734,7.1027,7.16,7.1637,7.1857,7.2422,7.2532,7.2532,7.2532,7.2532,7.2532,7.2459,7.2532,7.2459,7.2532,7.2532,7.2475,7.2292,7.2114,7.1948,7.178,7.1625,7.1494,7.1494,7.1494,7.1494,7.1494,7.1494,7.1494,7.1494,7.1494,7.1494,7.1494,7.1494,7.1494,7.1494,7.1494,7.1494,7.1494,7.1494,7.1494,7.1494,7.1494,7.1494,7.151,7.1546,7.1609,7.1734,7.1933,7.2267,7.2679,7.2805,7.2995,7.312,7.3156,7.3156,7.3362,7.3744,7.3964,5.8688,5.8724,5.8709,5.8795,5.8724,5.8745,5.8759,5.8866,5.8795,5.9188,5.9794,5.9865,6.0345,6.1027,6.0553,6.0585,6.1072,6.2054,6.2769,6.3236,6.3422,6.3553,6.359,6.359,6.3628,6.3702,6.3702,6.411,6.4816,6.5491,6.6186,6.6827,6.6811,6.7074,6.7507,6.7664,6.77,6.77,6.7737,6.8054,6.8715,6.8825,6.8862,6.8935,6.8848,6.9229,6.9926,7.0036,7.011,7.0146,7.022,7.0477,7.116,7.1233,7.1564,7.2202,7.2312,7.2349,7.2371,7.2349,7.2386,7.2496,7.2532,7.2532,7.2532,7.2532,7.2532,7.2532,7.2532,7.2532,7.2532,7.2532,7.2438,7.2343,7.2129,7.1964,7.1832,7.1656,7.151,7.1494,7.1494,7.1494,7.1494,7.1494,7.1494,7.1494,7.1494,7.1494,7.1494,7.1494,7.1531,7.1603,7.1603,7.1531,7.1531,7.1494,7.1494,7.1567,7.1603,7.1619,7.1593,7.164,7.1791,7.1987,7.2383,7.2825,7.3265,7.3648,7.3971,7.4184,7.4353,7.4426,7.4169,7.461,7.483,6.031,6.0237,6.0222,6.0222,6.0222,6.0237,6.0237,6.0222,6.0222,6.038,6.0629,6.0665,6.0881,6.1292,6.1376,6.1575,6.1956,6.2645,6.3099,6.3382,6.3534,6.359,6.359,6.359,6.3888,6.4333,6.4371,6.5076,6.6302,6.6675,6.7147,6.7679,6.7664,6.7683,6.781,6.7741,6.77,6.7737,6.8178,6.8605,6.8958,6.9376,6.9926,7.0353,6.9926,7.0036,7.0844,7.0881,7.1101,7.1615,7.1615,7.1762,7.2004,7.2092,7.2188,7.2422,7.2004,7.1967,7.2334,7.2004,7.1982,7.2459,7.2532,7.2532,7.2532,7.2532,7.2532,7.2532,7.2532,7.2532,7.2532,7.2532,7.2467,7.2409,7.2277,7.2114,7.1964,7.1796,7.1656,7.151,7.1494,7.1494,7.1494,7.1494,7.1494,7.1494,7.1494,7.1531,7.1531,7.1531,7.1748,7.2146,7.2291,7.2472,7.2999,7.2038,7.1531,7.1675,7.182,7.2262,7.2434,7.2917,7.3177,7.3337,7.355,7.3735,7.4271,7.4572,7.4882,7.4918,7.5124,7.5234,7.4867,7.538,7.5616,6.1255,6.1167,6.1108,6.1093,6.1093,6.1093,6.1093,6.1093,6.1093,6.1093,6.1093,6.1093,6.1197,6.143,6.1798,6.2132,6.25,6.2892,6.3183,6.3382,6.3534,6.3739,6.3962,6.3999,6.4408,6.5151,6.5522,6.6228,6.7193,6.7565,6.7901,6.8259,6.8183,6.8055,6.7876,6.7781,6.7774,6.8128,6.8605,6.9105,6.9619,6.9926,7.0477,7.105,7.0513,7.0477,7.127,7.1307,7.138,7.1688,7.1725,7.1725,7.1725,7.1725,7.1835,7.2004,7.1637,7.1637,7.2298,7.1967,7.1931,7.2459,7.2532,7.2532,7.2532,7.2532,7.2532,7.2532,7.2532,7.2532,7.2532,7.2532,7.2532,7.2467,7.2365,7.224,7.2003,7.1872,7.1718,7.1562,7.1494,7.1494,7.1494,7.1494,7.1494,7.1494,7.1675,7.1857,7.1893,7.2146,7.2384,7.2963,7.3072,7.3289,7.3543,7.2963,7.2601,7.271,7.269,7.3075,7.3457,7.3992,7.4426,7.4674,7.4848,7.4997,7.5189,7.5476,7.5564,7.5601,7.5858,7.6151,7.6078,7.6151,7.6298,6.1314,6.1285,6.1152,6.1108,6.1093,6.1093,6.1093,6.1093,6.1093,6.1093,6.1093,6.1093,6.1255,6.153,6.17,6.2087,6.2526,6.3002,6.328,6.3419,6.3608,6.4062,6.4668,6.4779,6.5262,6.6128,6.6896,6.7268,6.7416,6.8048,6.8395,6.8309,6.8146,6.8031,6.7926,6.7854,6.8141,6.8605,6.8862,6.9655,7.094,7.0403,7.044,7.105,7.0477,7.0403,7.1123,7.1197,7.0917,7.033,7.0257,7.0146,7.0403,7.0403,7.0587,7.1344,7.1344,7.1711,7.2349,7.2386,7.2224,7.2496,7.2532,7.2532,7.2532,7.2532,7.2532,7.2532,7.2532,7.2532,7.2532,7.2532,7.2532,7.2481,7.2365,7.2233,7.2054,7.1909,7.1718,7.1542,7.1494,7.1494,7.1531,7.1639,7.1712,7.1929,7.2327,7.271,7.2746,7.3144,7.3687,7.3868,7.3941,7.4086,7.4013,7.3905,7.3941,7.3941,7.3868,7.4006,7.4267,7.4742,7.5155,7.5409,7.5568,7.5717,7.6047,7.6335,7.6628,7.6738,7.6959,7.6885,7.6848,7.6812,7.6959,6.1516,6.1314,6.127,6.1182,6.1108,6.1093,6.1093,6.1093,6.1093,6.1093,6.1093,6.1093,6.1197,6.1386,6.1523,6.1818,6.2235,6.3128,6.3518,6.3558,6.401,6.4487,6.4879,6.5448,6.6128,6.6933,6.7751,6.8122,6.8159,6.8382,6.8469,6.8408,6.8221,6.8107,6.803,6.8335,6.8495,6.8201,6.9192,6.9779,6.9729,6.9963,7.022,7.0403,7.022,7.0,6.9706,7.0183,7.033,7.0073,7.011,7.033,7.0793,7.0903,7.1307,7.1931,7.1564,7.1637,7.2275,7.2041,7.1967,7.2349,7.2532,7.2532,7.2532,7.2532,7.2532,7.2532,7.2532,7.2532,7.2532,7.2532,7.2532,7.2532,7.2452,7.2351,7.2195,7.197,7.1718,7.1562,7.1494,7.1712,7.2183,7.2327,7.2493,7.2963,7.3325,7.3506,7.3579,7.3832,7.4194,7.4593,7.4665,7.4882,7.5008,7.5044,7.508,7.4955,7.4826,7.4869,7.5136,7.5405,7.5818,7.6099,7.6274,7.6466,7.6812,7.7032,7.7215,7.7326,7.7179,7.7179,7.7289,7.7326,7.7326,6.1854,6.1551,6.1516,6.1415,6.127,6.1211,6.1167,6.1167,6.1108,6.1093,6.1093,6.1093,6.1182,6.135,6.1681,6.2068,6.254,6.3606,6.4136,6.4241,6.4717,6.5256,6.577,6.6599,6.7193,6.7713,6.8271,6.8493,6.8531,6.8531,6.8469,6.8396,6.8221,6.8044,6.803,6.8299,6.8238,6.8288,6.9119,6.9559,6.9412,6.9522,6.9669,6.9633,6.9339,6.8935,6.8531,6.8985,6.9206,6.9279,6.9486,6.9926,7.0389,7.0646,7.1197,7.1747,7.1674,7.1637,7.2298,7.2078,7.1931,7.2422,7.2532,7.2532,7.2532,7.2532,7.2532,7.2532,7.2532,7.2532,7.2532,7.2532,7.2532,7.2532,7.2496,7.2394,7.224,7.224,7.219,7.2121,7.2239,7.2617,7.2979,7.3181,7.3325,7.3796,7.4158,7.4339,7.4412,7.4629,7.5063,7.5389,7.5498,7.5768,7.613,7.622,7.622,7.5985,7.5732,7.5805,7.5944,7.6206,7.6516,7.6752,7.6907,7.687,7.7142,7.7179,7.7326,7.7326,7.7326,7.7326,7.7326,7.7326,7.7326,6.2291,6.201,6.1895,6.1742,6.1587,6.1415,6.1314,6.1285,6.1152,6.1093,6.1093,6.1093,6.1239,6.152,6.2116,6.2666,6.3354,6.4279,6.4988,6.542,6.5866,6.6468,6.7219,6.7899,6.8233,6.8382,6.8456,6.8493,6.8531,6.8531,6.8432,6.8309,6.8183,6.8055,6.7963,6.7817,6.8214,6.8568,6.8862,6.9265,6.9669,6.9192,6.8862,6.8811,6.8238,6.7847,6.7847,6.8031,6.7994,6.7921,6.8678,6.9155,6.9265,6.9779,7.0697,7.149,7.1417,7.1784,7.2349,7.2422,7.2422,7.2496,7.2532,7.2532,7.2532,7.2532,7.2532,7.2532,7.2532,7.2532,7.2532,7.2532,7.2532,7.2606,7.2716,7.2548,7.2245,7.2704,7.2984,7.2951,7.3414,7.3905,7.3905,7.3977,7.405,7.4303,7.481,7.5063,7.5244,7.5551,7.6094,7.6203,7.6058,7.613,7.6292,7.6292,7.6292,7.6256,7.6111,7.6224,7.6433,7.6676,7.6913,7.715,7.7326,7.7326,7.7326,7.7326,7.7326,7.7326,7.7326,7.7326,7.7326,7.7326,7.7326,6.278,6.2436,6.2305,6.2105,6.1882,6.1579,6.1394,6.1299,6.1167,6.1108,6.1093,6.1093,6.148,6.2025,6.2373,6.2982,6.3992,6.5107,6.5883,6.6427,6.7296,6.7765,6.8135,6.8382,6.8531,6.8531,6.8531,6.8531,6.8531,6.8531,6.842,6.8296,6.817,6.8018,6.7949,6.8305,6.8325,6.8164,6.8641,6.8641,6.8361,6.8214,6.8031,6.7994,6.7811,6.77,6.7774,6.8274,6.8568,6.8605,6.8752,6.9472,7.0463,7.083,7.1307,7.1945,7.2165,7.2239,7.2422,7.2532,7.2532,7.2532,7.2532,7.2532,7.2532,7.2532,7.2532,7.2532,7.2532,7.2532,7.2532,7.2532,7.2753,7.3266,7.3413,7.334,7.3242,7.3623,7.3962,7.384,7.3913,7.4263,7.4629,7.481,7.4991,7.5442,7.5696,7.5913,7.5913,7.5985,7.6292,7.6292,7.6203,7.6256,7.6292,7.6292,7.6292,7.6292,7.6273,7.6339,7.655,7.6817,7.7009,7.7243,7.7273,7.7326,7.7326,7.7326,7.7326,7.7326,7.7326,7.7326,7.7326,7.7326,7.7326,6.3289,6.2929,6.2743,6.25,6.2225,6.1873,6.1594,6.1415,6.1255,6.1138,6.1179,6.1501,6.1888,6.2406,6.3251,6.4035,6.4903,6.6047,6.6823,6.734,6.8012,6.8383,6.8481,6.8531,6.8531,6.8531,6.8531,6.8531,6.8531,6.8531,6.8396,6.8246,6.8121,6.7993,6.782,6.8158,6.8214,6.7884,6.8164,6.8141,6.7737,6.77,6.77,6.77,6.77,6.7811,6.8201,6.8678,6.8898,6.9045,6.9522,7.0353,7.116,7.1637,7.2004,7.2496,7.2532,7.2496,7.2532,7.2532,7.2532,7.2532,7.2532,7.2532,7.2532,7.2532,7.2532,7.2532,7.2532,7.2532,7.2569,7.2789,7.3377,7.4074,7.4478,7.4492,7.4071,7.4622,7.4869,7.4824,7.4934,7.511,7.5604,7.5587,7.5804,7.6094,7.6147,7.622,7.6256,7.6292,7.6292,7.6292,7.6292,7.6292,7.6292,7.6292,7.6292,7.6292,7.6292,7.6395,7.6561,7.6822,7.7045,7.7202,7.7264,7.7326,7.7326,7.7326,7.7326,7.7326,7.7326,7.7326,7.7326,7.7326,7.7326,6.3764,6.344,6.3183,6.2917,6.2629,6.2212,6.1909,6.1666,6.1573,6.1449,6.1554,6.2132,6.2716,6.2886,6.4402,6.5388,6.5999,6.6966,6.7573,6.8021,6.8371,6.8518,6.8518,6.8531,6.8531,6.8531,6.8531,6.8531,6.8531,6.8531,6.8358,6.8196,6.8083,6.7928,6.7781,6.7774,6.77,6.77,6.7774,6.7811,6.77,6.77,6.77,6.77,6.77,6.8091,6.8641,6.8995,6.9142,6.9192,7.0536,7.1197,7.149,7.2151,7.2459,7.2496,7.2532,7.2532,7.2532,7.2532,7.2532,7.2532,7.2532,7.2532,7.2532,7.2532,7.2532,7.2532,7.2532,7.2569,7.2863,7.3413,7.4258,7.4992,7.5689,7.5724,7.5339,7.5608,7.5907,7.5657,7.6227,7.6422,7.6412,7.6328,7.6292,7.622,7.6292,7.6292,7.6292,7.6292,7.6292,7.6292,7.6292,7.6292,7.6292,7.6292,7.6292,7.6292,7.6292,7.6378,7.6495,7.6708,7.695,7.7108,7.7186,7.7264,7.7326,7.7326,7.7326,7.7326,7.7326,7.7326,7.7326,7.7326,7.7326,6.4094,6.3905,6.3576,6.3338,6.3002,6.2539,6.2158,6.2018,6.2292,6.2414,6.255,6.3232,6.3983,6.4685,6.5395,6.6117,6.6989,6.7647,6.8108,6.8383,6.8445,6.8493,6.8531,6.8531,6.8531,6.8531,6.8531,6.8531,6.8531,6.8469,6.8371,6.8121,6.807,6.7941,6.7741,6.77,6.77,6.77,6.77,6.77,6.77,6.77,6.77,6.77,6.7737,6.8164,6.8862,6.9522,7.0146,7.072,7.1123,7.1637,7.2092,7.2386,7.2496,7.2532,7.2532,7.2532,7.2532,7.2532,7.2532,7.2532,7.2532,7.2532,7.2532,7.2532,7.2532,7.2532,7.2532,7.2863,7.3523,7.4771,7.5432,7.5909,7.6481,7.6907,7.675,7.6768,7.6732,7.6694,7.6595,7.6597,7.6548,7.6378,7.6345,7.6292,7.6292,7.6292,7.6292,7.6292,7.6292,7.6292,7.6292,7.6292,7.6292,7.6292,7.6292,7.6292,7.6292,7.6292,7.6445,7.6545,7.6757,7.695,7.7108,7.7186,7.7264,7.7326,7.7326,7.7326,7.7326,7.7326,7.7326,7.7326,7.7326,6.4374,6.4196,6.3856,6.3802,6.3867,6.3456,6.3281,6.3339,6.356,6.3609,6.3704,6.4397,6.5127,6.5684,6.6344,6.7071,6.766,6.8095,6.8358,6.8469,6.8493,6.8493,6.8531,6.8531,6.8531,6.8531,6.8531,6.8531,6.8531,6.8469,6.8371,6.8095,6.8083,6.7941,6.7741,6.77,6.77,6.77,6.77,6.77,6.77,6.77,6.77,6.7811,6.8068,6.8641,6.9449,7.0257,7.1013,7.1637,7.1857,7.2055,7.2386,7.2532,7.2532,7.2532,7.2532,7.2532,7.2532,7.2532,7.2532,7.2532,7.2532,7.2532,7.2532,7.2532,7.2532,7.2606,7.2936,7.3523,7.4661,7.5395,7.6166,7.668,7.7032,7.7289,7.7273,7.7212,7.7171,7.7077,7.6834,7.6692,7.6561,7.6429,7.6345,7.6292,7.6292,7.6292,7.6292,7.6292,7.6292,7.6292,7.6292,7.6292,7.6292,7.6292,7.6292,7.6292,7.6292,7.6292,7.6342,7.6462,7.6545,7.6741,7.695,7.7108,7.7186,7.7248,7.731,7.7326,7.7326,7.7326,7.7326,7.7326,7.7326,6.453,6.4403,6.4118,6.4365,6.4753,6.456,6.4581,6.4819,6.5021,6.4895,6.4925,6.5649,6.6175,6.6487,6.7193,6.7839,6.8133,6.8346,6.8481,6.8481,6.8531,6.8531,6.8531,6.8531,6.8531,6.8531,6.8531,6.8531,6.8531,6.8469,6.8358,6.8121,6.8083,6.7928,6.7767,6.77,6.77,6.77,6.77,6.77,6.77,6.77,6.7737,6.8091,6.8458,6.9339,7.0146,7.0917,7.16,7.2422,7.2532,7.2532,7.2532,7.2532,7.2532,7.2532,7.2532,7.2532,7.2532,7.2532,7.2532,7.2532,7.2532,7.2532,7.2532,7.2532,7.2642,7.3046,7.356,7.4639,7.5909,7.6313,7.6628,7.7069,7.7289,7.7326,7.7326,7.7326,7.7248,7.7155,7.6913,7.6721,7.661,7.6478,7.6395,7.6292,7.6292,7.6292,7.6292,7.6292,7.6292,7.6292,7.6292,7.6292,7.6292,7.6292,7.6292,7.6292,7.6292,7.6292,7.6292,7.6342,7.6462,7.6594,7.6826,7.695,7.7092,7.7186,7.7233,7.7295,7.7326,7.7326,7.7326,7.7326,7.7326,6.4539,6.4451,6.4933,6.5084,6.5039,6.5368,6.5509,6.5479,6.5975,6.6116,6.6186,6.6919,6.7343,6.76,6.7781,6.8159,6.8383,6.8469,6.8531,6.8531,6.8531,6.8531,6.8531,6.8531,6.8531,6.8531,6.8531,6.8531,6.8531,6.8481,6.8358,6.8133,6.8083,6.7941,6.7781,6.77,6.77,6.77,6.77,6.77,6.77,6.7737,6.8031,6.8495,6.8898,6.9692,7.0756,7.1233,7.1674,7.2422,7.2496,7.2532,7.2532,7.2532,7.2532,7.2532,7.2532,7.2532,7.2532,7.2532,7.2532,7.2532,7.2532,7.2532,7.2532,7.2606,7.2973,7.378,7.4735,7.5799,7.6056,7.6628,7.7032,7.7289,7.7326,7.7326,7.7326,7.731,7.731,7.7233,7.6993,7.6785,7.6656,7.6545,7.6412,7.6309,7.6292,7.6292,7.6292,7.6292,7.6292,7.6292,7.6292,7.6292,7.6292,7.6292,7.6292,7.6292,7.6292,7.6292,7.6292,7.6292,7.6395,7.6512,7.6663,7.6773,7.6934,7.7061,7.7171,7.7196,7.7243,7.731,7.7326,7.7326,7.7326,6.453,6.4489,6.5124,6.5534,6.5833,6.6407,6.6814,6.6987,6.7268,6.7351,6.7449,6.777,6.8006,6.8132,6.8259,6.8396,6.8469,6.8531,6.8531,6.8531,6.8531,6.8531,6.8531,6.8531,6.8531,6.8531,6.8531,6.8531,6.8531,6.8531,6.8358,6.8146,6.8083,6.7941,6.7767,6.77,6.77,6.77,6.77,6.77,6.77,6.77,6.8128,6.8752,6.9376,7.0132,7.105,7.1784,7.2078,7.2422,7.2496,7.2532,7.2532,7.2532,7.2532,7.2532,7.2532,7.2532,7.2532,7.2532,7.2532,7.2532,7.2532,7.2532,7.2642,7.2936,7.367,7.4771,7.5359,7.6313,7.6702,7.7069,7.7252,7.7326,7.7326,7.7326,7.7326,7.7326,7.7326,7.731,7.7103,7.6913,7.6753,7.6627,7.6445,7.6362,7.6292,7.6292,7.6292,7.6292,7.6292,7.6292,7.6292,7.6292,7.6292,7.6292,7.6292,7.6292,7.6292,7.6292,7.6292,7.6292,7.6309,7.6412,7.6528,7.6643,7.6725,7.6854,7.7013,7.7118,7.7171,7.7202,7.7279,7.7326,7.731,6.453,6.4469,6.5322,6.5972,6.6515,6.7437,6.8007,6.8321,6.8297,6.8197,6.8221,6.8284,6.8321,6.8358,6.842,6.8531,6.8531,6.8531,6.8531,6.8531,6.8531,6.8531,6.8531,6.8531,6.8531,6.8531,6.8531,6.8531,6.8531,6.8531,6.8346,6.8146,6.8083,6.7941,6.7767,6.77,6.77,6.77,6.77,6.77,6.77,6.7884,6.8311,6.9119,6.9926,7.072,7.16,7.2092,7.2386,7.2496,7.2532,7.2532,7.2532,7.2532,7.2532,7.2532,7.2532,7.2532,7.2532,7.2532,7.2532,7.2532,7.2532,7.2569,7.3046,7.378,7.4735,7.5836,7.635,7.6607,7.7069,7.7289,7.7326,7.7326,7.7326,7.7326,7.7326,7.7326,7.7326,7.7279,7.7186,7.7045,7.6817,7.6676,7.6478,7.6362,7.6292,7.6292,7.6292,7.6292,7.6292,7.6292,7.6292,7.6292,7.6292,7.6292,7.6292,7.6292,7.6292,7.6292,7.6292,7.6292,7.6309,7.6326,7.6412,7.6512,7.6594,7.6676,7.6838,7.6966,7.7013,7.7092,7.7186,7.7248,7.7248,6.4491,6.4417,6.5974,6.6614,6.6785,6.8047,6.8656,6.8626,6.8506,6.8469,6.842,6.8457,6.8457,6.8469,6.8469,6.8531,6.8531,6.8531,6.8531,6.8531,6.8531,6.8531,6.8531,6.8531,6.8531,6.8531,6.8531,6.8531,6.8531,6.8531,6.8358,6.8133,6.8057,6.7941,6.7727,6.77,6.77,6.77,6.77,6.77,6.7847,6.8385,6.9082,6.9926,7.066,7.1417,7.2078,7.2422,7.2496,7.2532,7.2532,7.2532,7.2532,7.2532,7.2532,7.2532,7.2532,7.2532,7.2532,7.2532,7.2532,7.2532,7.2532,7.2863,7.3634,7.4735,7.5689,7.5983,7.6665,7.7069,7.7252,7.7289,7.7326,7.7326,7.7326,7.7326,7.7326,7.7326,7.7326,7.731,7.7248,7.7061,7.6834,7.6692,7.6512,7.6395,7.6292,7.6292,7.6292,7.6292,7.6292,7.6292,7.6292,7.6292,7.6292,7.6292,7.6292,7.6292,7.6292,7.6292,7.6292,7.6292,7.6292,7.6309,7.6378,7.6412,7.6495,7.6594,7.6692,7.6773,7.6854,7.6966,7.7092,7.7139,7.7155,6.451,6.4477,6.5592,6.6287,6.6705,6.7733,6.8392,6.8636,6.8554,6.8531,6.8531,6.8531,6.8531,6.8531,6.8531,6.8531,6.8531,6.8531,6.8531,6.8531,6.8531,6.8531,6.8531,6.8531,6.8531,6.8531,6.8531,6.8531,6.8531,6.8469,6.8371,6.8121,6.807,6.7941,6.7727,6.77,6.77,6.77,6.7737,6.7944,6.8348,6.8788,6.9509,7.0697,7.1123,7.1747,7.2312,7.2532,7.2532,7.2532,7.2532,7.2532,7.2532,7.2532,7.2532,7.2532,7.2532,7.2532,7.2532,7.2532,7.2532,7.2532,7.2606,7.3046,7.4221,7.5395,7.6387,7.6775,7.7069,7.7289,7.7326,7.7326,7.7326,7.7326,7.7326,7.7326,7.7326,7.7326,7.7326,7.7326,7.7258,7.7056,7.6882,7.6773,7.6578,7.6378,7.6292,7.6292,7.6292,7.6292,7.6292,7.6292,7.6292,7.6292,7.6292,7.6292,7.6292,7.6292,7.6292,7.6292,7.6292,7.6292,7.6292,7.6292,7.6309,7.6378,7.6429,7.6462,7.6528,7.661,7.6676,7.6806,7.6918,7.6913,7.6961,6.4549,6.4537,6.5199,6.5922,6.6711,6.7307,6.8042,6.8684,6.8566,6.8531,6.8531,6.8531,6.8531,6.8531,6.8531,6.8531,6.8531,6.8531,6.8531,6.8531,6.8531,6.8531,6.8531,6.8531,6.8531,6.8531,6.8531,6.8531,6.8531,6.8469,6.8371,6.8132,6.8083,6.7965,6.7781,6.77,6.77,6.77,6.77,6.8091,6.8752,6.9105,7.0022,7.0903,7.1527,7.1894,7.2386,7.2532,7.2532,7.2532,7.2532,7.2532,7.2532,7.2532,7.2532,7.2532,7.2532,7.2532,7.2532,7.2532,7.2532,7.2642,7.3068,7.3766,7.4698,7.5726,7.6518,7.7179,7.7252,7.7289,7.7326,7.7326,7.7326,7.7326,7.7326,7.7326,7.7326,7.7326,7.7326,7.7326,7.7227,7.7087,7.6929,7.687,7.6639,7.6376,7.6292,7.6292,7.6292,7.6292,7.6292,7.6292,7.6292,7.6292,7.6292,7.6292,7.6292,7.6292,7.6292,7.6292,7.6292,7.6292,7.6292,7.6292,7.6292,7.6309,7.6378,7.6326,7.6326,7.6445,7.6528,7.661,7.6692,7.6721,7.685,6.4596,6.4643,6.5229,6.5936,6.6779,6.7366,6.8088,6.8751,6.8602,6.8531,6.8531,6.8531,6.8531,6.8531,6.8531,6.8531,6.8531,6.8531,6.8531,6.8531,6.8531,6.8531,6.8531,6.8531,6.8531,6.8531,6.8531,6.8531,6.8531,6.8531,6.8346,6.8158,6.8083,6.7939,6.7781,6.77,6.77,6.7737,6.7811,6.8274,6.9009,6.9669,7.0499,7.127,7.2004,7.2459,7.2532,7.2532,7.2532,7.2532,7.2532,7.2532,7.2532,7.2532,7.2532,7.2532,7.2532,7.2532,7.2532,7.2532,7.2532,7.2899,7.367,7.45,7.4903,7.6371,7.7142,7.7273,7.7289,7.7326,7.7326,7.7326,7.7326,7.7326,7.7326,7.7326,7.7326,7.7326,7.7326,7.7326,7.7212,7.7087,7.6945,7.6854,7.666,7.6359,7.6292,7.6292,7.6292,7.6292,7.6292,7.6292,7.6292,7.6292,7.6292,7.6292,7.6292,7.6292,7.6292,7.6292,7.6292,7.6292,7.6292,7.6292,7.6292,7.6292,7.6292,7.6292,7.6292,7.6292,7.6342,7.6478,7.6578,7.6676,7.6801,6.4596,6.4615,6.4712,6.5233,6.6028,6.6629,6.7303,6.8079,6.8379,6.8531,6.8531,6.8531,6.8531,6.8531,6.8531,6.8531,6.8531,6.8531,6.8531,6.8531,6.8531,6.8531,6.8531,6.8531,6.8531,6.8531,6.8531,6.8531,6.8531,6.8531,6.8334,6.8159,6.8083,6.7939,6.7794,6.77,6.77,6.7884,6.8251,6.8825,6.9633,7.0426,7.1233,7.2004,7.2188,7.2496,7.2532,7.2532,7.2532,7.2532,7.2532,7.2532,7.2532,7.2532,7.2532,7.2532,7.2532,7.2532,7.2532,7.2532,7.2532,7.2826,7.3876,7.4903,7.4977,7.6371,7.7142,7.7289,7.7326,7.7326,7.7326,7.7326,7.7326,7.7326,7.7326,7.7326,7.7326,7.7326,7.7326,7.7326,7.7227,7.715,7.6977,7.6838,7.661,7.6395,7.6309,7.6292,7.6292,7.6292,7.6292,7.6292,7.6292,7.6292,7.6292,7.6292,7.6292,7.6292,7.6292,7.6292,7.6292,7.6292,7.6292,7.6292,7.6292,7.6292,7.6292,7.6292,7.6292,7.6292,7.6292,7.6362,7.6462,7.6578,7.6725,6.4577,6.453,6.4364,6.4762,6.5489,6.587,6.662,6.7523,6.7958,6.8308,6.8493,6.8531,6.8531,6.8531,6.8531,6.8531,6.8531,6.8531,6.8531,6.8531,6.8531,6.8531,6.8531,6.8531,6.8531,6.8531,6.8531,6.8531,6.8531,6.8531,6.8346,6.8159,6.807,6.7952,6.7767,6.77,6.7811,6.8201,6.8605,6.9522,7.0367,7.0977,7.1637,7.2312,7.2496,7.2496,7.2532,7.2532,7.2532,7.2532,7.2532,7.2532,7.2532,7.2532,7.2532,7.2532,7.2532,7.2532,7.2532,7.2532,7.2532,7.2716,7.3986,7.472,7.527,7.6335,7.7215,7.7326,7.7326,7.7326,7.7326,7.7326,7.7326,7.7326,7.7326,7.7326,7.7326,7.7326,7.7326,7.7326,7.7227,7.7181,7.7013,7.6838,7.6594,7.6395,7.6309,7.6292,7.6292,7.6292,7.6292,7.6292,7.6292,7.6292,7.6292,7.6292,7.6292,7.6292,7.6292,7.6292,7.6292,7.6292,7.6292,7.6292,7.6292,7.6292,7.6292,7.6292,7.6292,7.6292,7.6292,7.6328,7.6309,7.6462,7.6561,6.4539,6.4395,6.4334,6.4721,6.5293,6.5288,6.6101,6.733,6.7525,6.7899,6.8456,6.8531,6.8531,6.8531,6.8531,6.8531,6.8531,6.8531,6.8531,6.8531,6.8531,6.8531,6.8531,6.8531,6.8531,6.8531,6.8531,6.8531,6.8531,6.8531,6.8346,6.8133,6.8031,6.7952,6.7714,6.7737,6.8128,6.8752,6.8898,6.9986,7.083,7.1344,7.1945,7.2312,7.2532,7.2532,7.2532,7.2532,7.2532,7.2532,7.2532,7.2532,7.2532,7.2532,7.2532,7.2532,7.2532,7.2532,7.2532,7.2532,7.2532,7.2716,7.3949,7.4793,7.5197,7.6225,7.7289,7.7326,7.7326,7.7326,7.7326,7.7326,7.7326,7.7326,7.7326,7.7326,7.7326,7.7326,7.7326,7.7326,7.7273,7.7212,7.7045,7.6822,7.6578,7.6412,7.6309,7.6292,7.6292,7.6292,7.6292,7.6292,7.6292,7.6292,7.6292,7.6292,7.6292,7.6292,7.6292,7.6292,7.6292,7.6292,7.6292,7.6292,7.6292,7.6292,7.6292,7.6292,7.6292,7.6292,7.6292,7.6292,7.6292,7.6326,7.6478,6.4492,6.4385,6.4254,6.426,6.4492,6.4983,6.5754,6.67,6.7587,6.8233,6.8456,6.8531,6.8531,6.8531,6.8531,6.8531,6.8531,6.8531,6.8531,6.8531,6.8531,6.8531,6.8531,6.8531,6.8531,6.8531,6.8531,6.8531,6.8531,6.8531,6.8346,6.8133,6.7928,6.7807,6.7911,6.8104,6.8715,6.9068,6.9839,7.083,7.1307,7.1784,7.2202,7.2532,7.2532,7.2532,7.2532,7.2532,7.2532,7.2532,7.2532,7.2532,7.2532,7.2532,7.2532,7.2532,7.2532,7.2532,7.2532,7.2532,7.2532,7.301,7.3802,7.4757,7.505,7.6408,7.7069,7.7326,7.7326,7.7326,7.7326,7.7326,7.7326,7.7326,7.7326,7.7326,7.7326,7.7326,7.7326,7.7326,7.7273,7.7233,7.7077,7.6902,7.666,7.6478,7.6412,7.6309,7.6292,7.6292,7.6292,7.6292,7.6292,7.6292,7.6292,7.6292,7.6292,7.6292,7.6292,7.6292,7.6292,7.6292,7.6292,7.6292,7.6292,7.6292,7.6292,7.6292,7.6292,7.6292,7.6292,7.6292,7.6292,7.6309,7.6412,6.452,6.4336,6.4155,6.4011,6.4017,6.4507,6.524,6.6319,6.7787,6.8531,6.8531,6.8531,6.8531,6.8531,6.8531,6.8531,6.8531,6.8531,6.8531,6.8531,6.8531,6.8531,6.8531,6.8531,6.8531,6.8531,6.8531,6.8531,6.8531,6.8531,6.8358,6.8083,6.7847,6.7961,6.8178,6.8641,6.9045,6.9559,7.0463,7.1344,7.1784,7.2165,7.2459,7.2532,7.2532,7.2532,7.2532,7.2532,7.2532,7.2532,7.2532,7.2532,7.2532,7.2532,7.2532,7.2532,7.2532,7.2532,7.2532,7.2532,7.2532,7.2606,7.3817,7.4551,7.4977,7.6078,7.6848,7.7179,7.7289,7.7326,7.7326,7.7326,7.7326,7.7326,7.7326,7.7326,7.7326,7.7326,7.7326,7.7326,7.731,7.7217,7.7139,7.6966,7.681,7.6663,7.6515,7.6412,7.6292,7.6292,7.6292,7.6292,7.6292,7.6292,7.6292,7.6292,7.6292,7.6292,7.6292,7.6292,7.6292,7.6292,7.6292,7.6292,7.6292,7.6292,7.6292,7.6292,7.6292,7.6292,7.6292,7.6292,7.6292,7.6309,7.6378,6.4481,6.4294,6.4162,6.4,6.3894,6.3973,6.4793,6.6202,6.7751,6.8456,6.8531,6.8531,6.8531,6.8531,6.8531,6.8531,6.8531,6.8531,6.8531,6.8531,6.8531,6.8531,6.8531,6.8531,6.8531,6.8531,6.8531,6.8531,6.8531,6.842,6.8296,6.8144,6.8018,6.8241,6.8641,6.9192,6.9596,7.0293,7.1027,7.1784,7.2239,7.2422,7.2532,7.2532,7.2532,7.2532,7.2532,7.2532,7.2532,7.2532,7.2532,7.2532,7.2532,7.2532,7.2532,7.2532,7.2532,7.2532,7.2532,7.2532,7.2532,7.2569,7.3156,7.4001,7.4918,7.5784,7.6555,7.7069,7.7326,7.7326,7.7326,7.7326,7.7326,7.7326,7.7326,7.7326,7.7326,7.7326,7.7326,7.7326,7.7326,7.7264,7.7186,7.7029,7.6886,7.6708,7.6561,7.6429,7.6362,7.6292,7.6292,7.6292,7.6292,7.6292,7.6292,7.6292,7.6292,7.6292,7.6292,7.6292,7.6292,7.6292,7.6292,7.6292,7.6292,7.6292,7.6292,7.6292,7.6292,7.6292,7.6292,7.6292,7.6292,7.6292,7.6309,6.4403,6.4274,6.4069,6.3926,6.3947,6.432,6.5148,6.6202,6.7231,6.7899,6.8531,6.8531,6.8531,6.8531,6.8531,6.8531,6.8531,6.8531,6.8531,6.8531,6.8531,6.8531,6.8531,6.8531,6.8531,6.8531,6.8531,6.8531,6.8445,6.8371,6.8246,6.8131,6.8325,6.8682,6.9229,6.9986,7.0499,7.1013,7.1725,7.2129,7.2422,7.2496,7.2532,7.2532,7.2532,7.2532,7.2532,7.2532,7.2532,7.2532,7.2532,7.2532,7.2532,7.2532,7.2532,7.2532,7.2532,7.2532,7.2532,7.2532,7.2532,7.2532,7.2789,7.3619,7.461,7.5579,7.635,7.6812,7.7252,7.7326,7.7326,7.7326,7.7326,7.7326,7.7326,7.7326,7.7326,7.7326,7.7326,7.7326,7.7326,7.731,7.7217,7.7155,7.6998,7.6806,7.6643,7.6512,7.6395,7.6309,7.6292,7.6292,7.6292,7.6292,7.6292,7.6292,7.6292,7.6292,7.6292,7.6292,7.6292,7.6292,7.6292,7.6292,7.6292,7.6292,7.6292,7.6292,7.6292,7.6292,7.6292,7.6292,7.6292,7.6292,7.6292,6.4354,6.4203,6.399,6.3862,6.3854,6.4167,6.4965,6.6079,6.6933,6.7751,6.8456,6.8531,6.8531,6.8531,6.8531,6.8531,6.8531,6.8531,6.8531,6.8531,6.8531,6.8531,6.8531,6.8531,6.8531,6.8531,6.8531,6.8531,6.8445,6.8321,6.8196,6.8181,6.867,6.9113,6.9646,7.0499,7.1344,7.1747,7.2165,7.2459,7.2532,7.2532,7.2532,7.2532,7.2532,7.2532,7.2532,7.2532,7.2532,7.2532,7.2532,7.2532,7.2532,7.2532,7.2532,7.2532,7.2532,7.2532,7.2532,7.2532,7.2532,7.2532,7.2532,7.3193,7.4111,7.5028,7.5873,7.6533,7.6995,7.7326,7.7326,7.7326,7.7326,7.7326,7.7326,7.7326,7.7326,7.7326,7.7326,7.7326,7.7326,7.7326,7.7243,7.7181,7.7071,7.685,7.6672,7.6541,7.6409,7.6309,7.6292,7.6292,7.6292,7.6292,7.6292,7.6292,7.6292,7.6292,7.6292,7.6292,7.6292,7.6292,7.6292,7.6292,7.6292,7.6292,7.6292,7.6292,7.6292,7.6292,7.6292,7.6292,7.6292,7.6292,7.6292,6.4257,6.4111,6.3958,6.3775,6.3613,6.3665,6.4556,6.6091,6.6822,6.7676,6.8382,6.8531,6.8531,6.8531,6.8531,6.8531,6.8531,6.8531,6.8531,6.8531,6.8531,6.8531,6.8531,6.8531,6.8531,6.8531,6.8531,6.8531,6.8457,6.8383,6.8245,6.823,6.8947,6.9572,7.0307,7.1101,7.1821,7.2239,7.2386,7.2532,7.2532,7.2532,7.2532,7.2532,7.2532,7.2532,7.2532,7.2532,7.2532,7.2532,7.2532,7.2532,7.2532,7.2532,7.2532,7.2532,7.2532,7.2532,7.2532,7.2532,7.2532,7.2532,7.2532,7.2899,7.3634,7.4368,7.5139,7.6166,7.6665,7.7105,7.7179,7.7289,7.7326,7.7326,7.7326,7.7326,7.7326,7.7326,7.7326,7.7326,7.7326,7.7326,7.731,7.7212,7.7087,7.6897,7.6753,7.6623,7.6442,7.6309,7.6292,7.6292,7.6292,7.6292,7.6292,7.6292,7.6292,7.6292,7.6292,7.6292,7.6292,7.6292,7.6292,7.6292,7.6292,7.6292,7.6292,7.6292,7.6292,7.6292,7.6292,7.6292,7.6292,7.6292,7.6292,6.4135,6.4063,6.391,6.3736,6.3602,6.359,6.4556,6.6091,6.6277,6.7231,6.8345,6.8531,6.8531,6.8531,6.8531,6.8531,6.8531,6.8531,6.8531,6.8531,6.8531,6.8531,6.8531,6.8531,6.8531,6.8531,6.8531,6.8531,6.8506,6.8433,6.8591,6.9017,6.966,7.0349,7.0881,7.1674,7.2275,7.2532,7.2532,7.2532,7.2532,7.2532,7.2532,7.2532,7.2532,7.2532,7.2532,7.2532,7.2532,7.2532,7.2532,7.2532,7.2532,7.2532,7.2532,7.2532,7.2532,7.2532,7.2532,7.2532,7.2532,7.2532,7.2532,7.2606,7.2973,7.3634,7.4441,7.5542,7.635,7.6775,7.7142,7.7215,7.7326,7.7326,7.7326,7.7326,7.7326,7.7326,7.7326,7.7326,7.7326,7.7326,7.7326,7.7248,7.7124,7.6998,7.6834,7.6688,7.6442,7.6292,7.6292,7.6292,7.6292,7.6292,7.6292,7.6292,7.6292,7.6292,7.6292,7.6292,7.6292,7.6292,7.6292,7.6292,7.6292,7.6292,7.6292,7.6292,7.6292,7.6292,7.6292,7.6292,7.6292,7.6292,7.6292,6.4021,6.3953,6.378,6.3658,6.3602,6.359,6.4556,6.5905,6.6091,6.7008,6.8382,6.8531,6.8531,6.8531,6.8531,6.8531,6.8531,6.8531,6.8531,6.8531,6.8531,6.8531,6.8531,6.8531,6.8531,6.8531,6.8531,6.8531,6.8518,6.8903,6.9235,6.9523,7.0253,7.1052,7.1459,7.2055,7.2532,7.2532,7.2532,7.2532,7.2532,7.2532,7.2532,7.2532,7.2532,7.2532,7.2532,7.2532,7.2532,7.2532,7.2532,7.2532,7.2532,7.2532,7.2532,7.2532,7.2532,7.2532,7.2532,7.2532,7.2532,7.2532,7.2532,7.2606,7.2569,7.323,7.3891,7.4955,7.5946,7.646,7.7069,7.7289,7.7326,7.7326,7.7326,7.7326,7.7326,7.7326,7.7326,7.7326,7.7326,7.7326,7.7326,7.731,7.7171,7.6913,7.6801,7.6708,7.6442,7.6292,7.6292,7.6292,7.6292,7.6292,7.6292,7.6292,7.6292,7.6292,7.6292,7.6292,7.6292,7.6292,7.6292,7.6292,7.6292,7.6292,7.6292,7.6292,7.6292,7.6292,7.6292,7.6292,7.6292,7.6292,7.6292,6.3963,6.3758,6.3647,6.359,6.3628,6.3739,6.4631,6.5968,6.6228,6.7082,6.8382,6.8531,6.8531,6.8531,6.8531,6.8531,6.8531,6.8531,6.8531,6.8531,6.8531,6.8531,6.8531,6.8531,6.8531,6.8531,6.8531,6.8531,6.8531,6.9076,6.9569,6.9771,7.0625,7.1614,7.17,7.2055,7.2532,7.2532,7.2532,7.2532,7.2532,7.2532,7.2532,7.2532,7.2532,7.2532,7.2532,7.2532,7.2532,7.2532,7.2532,7.2532,7.2532,7.2532,7.2532,7.2532,7.2532,7.2532,7.2532,7.2532,7.2532,7.2532,7.2532,7.2532,7.2532,7.2863,7.3523,7.4331,7.5322,7.6166,7.6738,7.7252,7.7252,7.7326,7.7326,7.7326,7.7326,7.7326,7.7326,7.7326,7.7326,7.7326,7.7326,7.7326,7.715,7.6929,7.6737,7.6574,7.6462,7.6342,7.6292,7.6292,7.6292,7.6292,7.6292,7.6292,7.6292,7.6292,7.6292,7.6292,7.6292,7.6292,7.6292,7.6292,7.6292,7.6292,7.6292,7.6292,7.6292,7.6292,7.6292,7.6292,7.6292,7.6292,7.6292,6.3819,6.3624,6.3602,6.359,6.3665,6.4296,6.5151,6.6128,6.6785,6.7639,6.8308,6.8531,6.8531,6.8531,6.8531,6.8531,6.8531,6.8531,6.8531,6.8531,6.8531,6.8531,6.8531,6.8531,6.8531,6.8531,6.8531,6.8531,6.8865,6.9447,6.9953,7.0373,7.1135,7.1872,7.2282,7.2532,7.2532,7.2532,7.2532,7.2532,7.2532,7.2532,7.2532,7.2532,7.2532,7.2532,7.2532,7.2532,7.2532,7.2532,7.2532,7.2532,7.2532,7.2532,7.2532,7.2532,7.2532,7.2532,7.2532,7.2532,7.2532,7.2532,7.2532,7.2532,7.2532,7.2532,7.3156,7.3707,7.4661,7.5506,7.6188,7.6922,7.7142,7.7252,7.7326,7.7326,7.7326,7.7326,7.7326,7.7326,7.7326,7.7326,7.7326,7.7295,7.7212,7.7009,7.6834,7.6672,7.6528,7.6429,7.6292,7.6292,7.6292,7.6292,7.6292,7.6292,7.6292,7.6292,7.6292,7.6292,7.6292,7.6292,7.6292,7.6292,7.6292,7.6292,7.6292,7.6292,7.6292,7.6292,7.6292,7.6292,7.6292,7.6292,7.6292]}]]